[[{"header":{"parameterUnit":"m.s-1","parameterCategory":1,"la1":30.6,"la2":29.2853,"lo1":-89.7004,"lo2":-87.6739,"dy":0.0162,"dx":0.0183,"nx":112,"ny":82,"refTime":"2024-08-10T00:00:00:Z","depth":0,"parameterNumber":2,"parameterNumberName":"U-component_of_WINDS"},"data":[0.0,0.0,0.0,0.0,0.0,0.0,0.0,0.0,0.0,0.0,0.0,0.0,0.0,0.0,0.0,0.0,0.0,0.0,0.0,0.0,0.0,0.0,0.0,0.0,0.0,0.0,0.0,0.0,0.0,0.0,0.0,0.0,0.0,0.0,0.0,0.0,0.0,0.0,0.0,0.0,0.0,0.0,0.0,0.0,0.0,0.0,0.0,0.0,0.0,0.0,0.0,0.0,0.0,0.0,0.0,0.0,0.0,0.0,0.0,0.0,0.0,0.0,0.0,0.0,0.0,0.0,0.0,0.0,0.0,0.0,0.0,0.0,0.0,0.0,0.0,0.0,0.0,0.0,0.0,0.0,0.0,0.0,0.0,0.0,0.0,0.0,0.0,0.0,0.0,0.0,0.0,-2.481,-2.7407,-2.8792,-2.8398,-2.79,-2.5807,-2.1663,0.0,0.0,0.0,0.0,0.0,0.0,0.0,0.0,0.0,0.0,0.0,0.0,0.0,0.0,0.0,0.0,0.0,0.0,0.0,0.0,0.0,0.0,0.0,0.0,0.0,0.0,0.0,0.0,0.0,0.0,0.0,0.0,0.0,0.0,0.0,0.0,0.0,0.0,0.0,0.0,0.0,0.0,0.0,0.0,0.0,0.0,0.0,0.0,0.0,0.0,0.0,0.0,0.0,0.0,0.0,0.0,0.0,0.0,0.0,0.0,0.0,0.0,0.0,0.0,0.0,0.0,0.0,0.0,0.0,0.0,0.0,0.0,0.0,0.0,0.0,0.0,0.0,0.0,0.0,0.0,0.0,0.0,0.0,0.0,0.0,0.0,0.0,0.0,0.0,0.0,0.0,0.0,0.0,0.0,0.0,0.0,0.0,0.0,0.0,0.0,0.0,0.0,0.0,0.0,-2.3996,-2.8151,-2.9059,-2.9331,-2.9354,-2.7993,-2.5698,-2.2419,0.0,0.0,0.0,0.0,0.0,0.0,0.0,0.0,0.0,0.0,0.0,0.0,0.0,0.0,0.0,0.0,0.0,0.0,0.0,0.0,0.0,0.0,0.0,0.0,0.0,0.0,0.0,0.0,0.0,0.0,0.0,0.0,0.0,0.0,0.0,0.0,0.0,0.0,0.0,0.0,0.0,0.0,0.0,0.0,0.0,0.0,0.0,0.0,0.0,0.0,0.0,0.0,0.0,0.0,0.0,0.0,0.0,0.0,0.0,0.0,0.0,0.0,0.0,0.0,0.0,0.0,0.0,0.0,0.0,0.0,0.0,0.0,0.0,0.0,0.0,0.0,0.0,0.0,0.0,0.0,0.0,0.0,0.0,0.0,0.0,0.0,0.0,0.0,0.0,0.0,0.0,0.0,0.0,0.0,0.0,0.0,0.0,0.0,0.0,0.0,0.0,0.0,0.0,-2.2863,-2.4664,-2.8635,-2.906,-2.9005,-2.8845,-2.7659,-2.5726,-2.3004,-2.1125,0.0,0.0,0.0,0.0,0.0,0.0,0.0,0.0,0.0,0.0,0.0,0.0,0.0,0.0,0.0,0.0,0.0,0.0,0.0,0.0,0.0,0.0,0.0,0.0,0.0,0.0,0.0,0.0,0.0,0.0,0.0,0.0,0.0,0.0,0.0,0.0,0.0,0.0,0.0,0.0,0.0,0.0,0.0,0.0,0.0,0.0,0.0,0.0,0.0,0.0,0.0,0.0,0.0,0.0,0.0,0.0,0.0,0.0,0.0,0.0,0.0,0.0,0.0,0.0,0.0,0.0,0.0,0.0,0.0,0.0,0.0,0.0,0.0,0.0,0.0,0.0,0.0,0.0,0.0,0.0,0.0,0.0,0.0,0.0,0.0,0.0,0.0,0.0,0.0,0.0,0.0,0.0,0.0,0.0,0.0,0.0,0.0,0.0,0.0,0.0,0.0,0.0,-2.4414,-2.5633,-2.8249,-2.8701,-2.8574,-2.8005,-2.6803,-2.5181,-2.2951,-2.0809,0.0,0.0,0.0,0.0,0.0,0.0,0.0,0.0,0.0,0.0,0.0,0.0,0.0,0.0,0.0,0.0,0.0,0.0,0.0,0.0,0.0,0.0,0.0,0.0,0.0,0.0,0.0,0.0,0.0,0.0,0.0,0.0,0.0,0.0,0.0,0.0,0.0,0.0,0.0,0.0,0.0,0.0,0.0,0.0,0.0,0.0,0.0,0.0,0.0,0.0,0.0,0.0,0.0,0.0,0.0,0.0,0.0,0.0,0.0,0.0,0.0,0.0,0.0,0.0,0.0,0.0,0.0,0.0,0.0,0.0,0.0,0.0,0.0,0.0,0.0,0.0,0.0,0.0,0.0,0.0,0.0,0.0,0.0,0.0,0.0,0.0,0.0,0.0,0.0,0.0,0.0,0.0,0.0,0.0,0.0,0.0,0.0,0.0,0.0,0.0,0.0,0.0,-2.4871,-2.7123,-2.7703,-2.8389,-2.8388,-2.7362,-2.5318,-2.3448,-2.183,-1.9224,0.0,0.0,0.0,0.0,0.0,0.0,0.0,0.0,0.0,0.0,0.0,0.0,0.0,0.0,0.0,0.0,0.0,0.0,0.0,0.0,0.0,0.0,0.0,0.0,0.0,0.0,0.0,0.0,0.0,0.0,0.0,0.0,0.0,0.0,0.0,0.0,0.0,0.0,0.0,0.0,0.0,0.0,0.0,0.0,0.0,0.0,0.0,0.0,0.0,0.0,0.0,0.0,0.0,0.0,0.0,0.0,0.0,0.0,0.0,0.0,0.0,0.0,0.0,0.0,0.0,0.0,0.0,0.0,0.0,0.0,0.0,0.0,0.0,0.0,0.0,0.0,0.0,0.0,0.0,0.0,0.0,0.0,0.0,0.0,0.0,0.0,0.0,0.0,0.0,0.0,0.0,0.0,0.0,0.0,0.0,0.0,0.0,0.0,0.0,0.0,0.0,0.0,-2.337,-2.5154,0.0,-2.7313,-2.73,-2.6734,-2.5011,-2.3218,-2.152,0.0,0.0,0.0,0.0,0.0,0.0,0.0,0.0,0.0,0.0,0.0,0.0,0.0,0.0,0.0,0.0,0.0,0.0,0.0,0.0,0.0,0.0,0.0,0.0,0.0,0.0,0.0,0.0,0.0,0.0,0.0,0.0,0.0,0.0,0.0,0.0,0.0,0.0,0.0,0.0,0.0,0.0,0.0,0.0,0.0,0.0,0.0,0.0,0.0,0.0,0.0,0.0,0.0,0.0,0.0,0.0,0.0,0.0,0.0,0.0,0.0,0.0,0.0,0.0,0.0,0.0,0.0,0.0,0.0,0.0,0.0,0.0,0.0,0.0,0.0,0.0,0.0,0.0,0.0,0.0,0.0,0.0,0.0,0.0,0.0,0.0,0.0,0.0,0.0,0.0,0.0,0.0,0.0,0.0,0.0,0.0,0.0,0.0,0.0,0.0,0.0,0.0,-2.1138,-2.2509,-2.4076,0.0,-2.6417,-2.6286,-2.5863,-2.4197,-2.242,-2.0686,0.0,0.0,0.0,0.0,0.0,0.0,0.0,0.0,0.0,0.0,0.0,0.0,0.0,0.0,0.0,0.0,0.0,0.0,0.0,0.0,0.0,0.0,0.0,0.0,0.0,0.0,0.0,0.0,0.0,0.0,0.0,0.0,0.0,0.0,0.0,0.0,0.0,0.0,0.0,0.0,0.0,0.0,0.0,0.0,0.0,0.0,0.0,0.0,0.0,0.0,0.0,0.0,0.0,0.0,0.0,0.0,0.0,0.0,0.0,0.0,0.0,0.0,0.0,0.0,0.0,0.0,0.0,0.0,0.0,0.0,0.0,0.0,0.0,0.0,0.0,0.0,0.0,0.0,0.0,0.0,0.0,0.0,0.0,0.0,0.0,0.0,0.0,0.0,0.0,0.0,0.0,0.0,0.0,0.0,0.0,0.0,0.0,0.0,0.0,0.0,0.0,0.0,-2.0505,-2.2648,-2.4491,-2.5544,-2.5754,-2.5439,-2.4672,-2.2631,-2.0683,0.0,0.0,0.0,0.0,0.0,0.0,0.0,0.0,0.0,0.0,0.0,0.0,0.0,0.0,0.0,0.0,0.0,0.0,0.0,0.0,0.0,0.0,0.0,0.0,0.0,0.0,0.0,0.0,0.0,0.0,0.0,0.0,0.0,0.0,0.0,0.0,0.0,0.0,0.0,0.0,0.0,0.0,0.0,0.0,0.0,0.0,0.0,0.0,0.0,0.0,0.0,0.0,0.0,0.0,0.0,0.0,0.0,0.0,0.0,0.0,0.0,0.0,0.0,0.0,0.0,0.0,0.0,0.0,0.0,0.0,0.0,0.0,0.0,0.0,0.0,0.0,0.0,0.0,0.0,0.0,0.0,0.0,0.0,0.0,0.0,0.0,0.0,0.0,0.0,0.0,0.0,0.0,0.0,0.0,0.0,0.0,0.0,0.0,0.0,0.0,0.0,0.0,0.0,-1.9497,-2.1126,-2.2539,-2.3701,-2.3807,-2.3658,-2.3301,-2.1815,-2.0169,-1.8411,0.0,0.0,0.0,0.0,0.0,0.0,0.0,0.0,0.0,0.0,0.0,0.0,0.0,0.0,0.0,0.0,0.0,0.0,0.0,0.0,0.0,0.0,0.0,0.0,0.0,0.0,0.0,0.0,0.0,0.0,0.0,0.0,0.0,0.0,0.0,0.0,0.0,0.0,0.0,0.0,0.0,0.0,0.0,0.0,0.0,0.0,0.0,0.0,0.0,0.0,0.0,0.0,0.0,0.0,0.0,0.0,0.0,0.0,0.0,0.0,0.0,0.0,0.0,0.0,0.0,0.0,0.0,0.0,0.0,0.0,0.0,0.0,0.0,0.0,0.0,0.0,0.0,0.0,0.0,0.0,0.0,0.0,0.0,0.0,0.0,0.0,0.0,0.0,0.0,0.0,0.0,0.0,0.0,0.0,0.0,0.0,0.0,0.0,0.0,0.0,0.0,0.0,-1.9008,-2.024,-2.148,-2.2849,-2.2815,-2.2603,-2.2434,-2.1194,-1.9754,-1.8235,0.0,0.0,0.0,0.0,0.0,0.0,0.0,0.0,0.0,0.0,0.0,0.0,0.0,0.0,0.0,0.0,0.0,0.0,0.0,0.0,0.0,0.0,0.0,0.0,0.0,0.0,0.0,0.0,0.0,0.0,0.0,0.0,0.0,0.0,0.0,0.0,0.0,0.0,0.0,0.0,0.0,0.0,0.0,0.0,0.0,0.0,0.0,0.0,0.0,0.0,0.0,0.0,0.0,0.0,0.0,0.0,0.0,0.0,0.0,0.0,0.0,0.0,0.0,0.0,0.0,0.0,0.0,0.0,0.0,0.0,0.0,0.0,0.0,0.0,0.0,0.0,0.0,0.0,0.0,0.0,0.0,0.0,0.0,0.0,0.0,0.0,0.0,0.0,0.0,0.0,0.0,0.0,0.0,0.0,0.0,0.0,0.0,0.0,0.0,0.0,0.0,0.0,-1.884,-1.99,-2.1054,-2.2671,-2.2434,-2.2091,-2.1949,-2.0761,-1.9516,-1.8345,0.0,0.0,0.0,0.0,0.0,0.0,0.0,0.0,0.0,0.0,0.0,0.0,0.0,0.0,0.0,0.0,0.0,0.0,0.0,0.0,0.0,0.0,0.0,0.0,0.0,0.0,0.0,0.0,0.0,0.0,0.0,0.0,0.0,0.0,0.0,0.0,0.0,0.0,0.0,0.0,0.0,0.0,0.0,0.0,0.0,0.0,0.0,0.0,0.0,0.0,0.0,0.0,0.0,0.0,0.0,0.0,0.0,0.0,0.0,0.0,-2.301,0.0,0.0,0.0,0.0,0.0,0.0,0.0,0.0,0.0,0.0,0.0,0.0,0.0,0.0,0.0,0.0,0.0,0.0,0.0,0.0,0.0,0.0,0.0,0.0,0.0,0.0,0.0,0.0,0.0,0.0,0.0,0.0,0.0,0.0,0.0,0.0,0.0,0.0,0.0,0.0,0.0,-1.87,-1.9812,-2.0795,-2.1649,-2.165,-2.1471,-2.1229,-2.057,-1.9527,-1.8083,0.0,0.0,0.0,0.0,0.0,0.0,0.0,0.0,0.0,0.0,0.0,0.0,0.0,0.0,0.0,0.0,0.0,0.0,0.0,0.0,0.0,0.0,0.0,0.0,0.0,0.0,0.0,0.0,0.0,0.0,0.0,0.0,0.0,0.0,0.0,0.0,0.0,0.0,0.0,0.0,0.0,0.0,0.0,0.0,0.0,0.0,0.0,0.0,0.0,0.0,0.0,0.0,0.0,0.0,0.0,0.0,0.0,0.0,0.0,0.0,0.0,-2.4367,0.0,0.0,0.0,0.0,0.0,0.0,0.0,0.0,0.0,0.0,0.0,0.0,0.0,0.0,0.0,0.0,0.0,0.0,0.0,0.0,0.0,0.0,0.0,0.0,0.0,0.0,0.0,0.0,0.0,0.0,0.0,0.0,0.0,0.0,0.0,0.0,0.0,0.0,0.0,0.0,-1.8616,-1.9809,-2.0711,-2.1355,-2.1423,-2.1277,-2.1033,-2.0513,-1.982,-1.8891,-1.7622,0.0,0.0,0.0,0.0,0.0,0.0,0.0,0.0,0.0,0.0,0.0,0.0,0.0,0.0,0.0,0.0,0.0,0.0,0.0,0.0,0.0,0.0,0.0,0.0,0.0,0.0,0.0,0.0,0.0,0.0,0.0,0.0,0.0,0.0,0.0,0.0,0.0,0.0,0.0,0.0,0.0,0.0,0.0,0.0,0.0,0.0,0.0,0.0,0.0,0.0,0.0,0.0,0.0,-2.9382,-2.9453,-2.9386,-2.9386,-2.9386,-2.9317,-2.7992,-2.7343,-2.7156,0.0,0.0,0.0,0.0,0.0,0.0,0.0,0.0,0.0,0.0,0.0,0.0,0.0,0.0,0.0,0.0,0.0,0.0,0.0,0.0,0.0,0.0,0.0,0.0,0.0,-2.1542,-2.0951,0.0,0.0,0.0,0.0,0.0,0.0,0.0,0.0,0.0,0.0,0.0,0.0,-1.8779,-1.9958,-2.0833,-2.1369,-2.1375,-2.1277,-2.1033,-2.0606,-2.0144,-1.9799,-1.8229,-1.7273,0.0,0.0,0.0,0.0,0.0,0.0,0.0,0.0,0.0,0.0,0.0,0.0,0.0,0.0,0.0,0.0,0.0,0.0,0.0,0.0,0.0,0.0,0.0,0.0,0.0,0.0,0.0,0.0,0.0,0.0,0.0,0.0,-2.0333,-2.064,0.0,0.0,0.0,0.0,0.0,0.0,0.0,0.0,0.0,0.0,0.0,0.0,0.0,0.0,-2.9216,-3.0612,-3.1356,-3.1388,-3.2734,-3.3373,-3.3335,-3.3335,-3.3335,-3.3335,-3.3128,0.0,-2.7896,-2.701,0.0,0.0,0.0,0.0,0.0,0.0,0.0,0.0,0.0,0.0,0.0,0.0,0.0,0.0,0.0,0.0,0.0,0.0,0.0,0.0,0.0,0.0,-2.2862,-2.2746,-2.2746,-2.2425,0.0,-2.0396,-1.9648,-1.8766,0.0,0.0,0.0,0.0,0.0,0.0,0.0,0.0,-1.9551,-2.0595,-2.1328,-2.141,-2.1277,-2.118,-2.0997,-2.0908,-2.0496,-1.9668,-1.9278,-1.8801,-1.8223,-1.7541,0.0,0.0,0.0,0.0,0.0,0.0,0.0,0.0,0.0,0.0,0.0,0.0,0.0,0.0,0.0,0.0,0.0,0.0,0.0,0.0,0.0,0.0,0.0,0.0,0.0,0.0,0.0,0.0,0.0,-2.0169,-2.2431,-2.2351,-2.3638,-2.4172,0.0,0.0,0.0,0.0,0.0,0.0,0.0,0.0,0.0,-2.966,-3.0291,-3.0942,-3.1689,-3.2654,-3.336,-3.3757,-3.4409,-3.4714,-3.4714,-3.4714,-3.4473,-3.4093,-3.4093,-3.3051,-3.1233,-2.9355,-2.7786,-2.6486,0.0,0.0,0.0,0.0,0.0,-2.3943,-2.407,-2.3871,0.0,0.0,0.0,0.0,0.0,0.0,0.0,0.0,0.0,0.0,0.0,0.0,0.0,-2.2866,-2.271,-2.2398,-2.1531,-2.101,-2.0522,0.0,-1.961,-1.9343,-1.8613,0.0,0.0,0.0,0.0,0.0,-2.008,-2.0894,-2.1375,-2.1277,-2.1229,-2.1144,-2.0974,-2.0938,-2.072,-2.0234,-1.9713,-1.9285,-1.8993,-1.827,-1.7576,0.0,0.0,0.0,0.0,0.0,0.0,0.0,0.0,0.0,0.0,0.0,0.0,0.0,0.0,0.0,0.0,0.0,0.0,0.0,0.0,0.0,0.0,0.0,0.0,0.0,0.0,0.0,0.0,-2.2135,-2.408,-2.3699,-2.5282,-2.5943,0.0,0.0,0.0,0.0,0.0,0.0,-2.9054,-2.9568,-3.0547,-3.2197,-3.2737,-3.336,-3.4071,-3.4506,-3.5002,-3.5561,-3.5514,-3.5473,-3.5473,-3.5473,-3.518,-3.4645,-3.4645,-3.4502,-3.4043,-3.1414,-2.9538,-2.8115,-2.6657,-2.5954,-2.5743,-2.589,-2.5639,-2.53,-2.6083,-2.601,-2.5456,-2.461,0.0,-2.3763,-2.1919,0.0,0.0,0.0,0.0,-2.2355,-2.3252,-2.3314,-2.3131,-2.3082,-2.2674,-2.2183,-2.1749,-2.1532,-2.1206,0.0,-2.0249,-1.9903,-1.8974,0.0,0.0,0.0,0.0,-1.9537,-2.0373,-2.1009,-2.1326,-2.1229,-2.1144,-2.1059,-2.0888,-2.0888,-2.0825,-2.0712,-1.9997,-1.9541,-1.94,-1.8637,-1.794,-1.7388,0.0,0.0,0.0,0.0,0.0,0.0,0.0,0.0,0.0,0.0,0.0,0.0,0.0,0.0,0.0,0.0,0.0,0.0,0.0,0.0,0.0,0.0,0.0,0.0,0.0,0.0,0.0,0.0,0.0,-2.4461,-2.7002,0.0,0.0,0.0,0.0,-2.8657,-2.8942,-2.9968,-3.2071,-3.2195,-3.3248,-3.5475,-3.5521,-3.5863,-3.6528,-3.6422,-3.6357,-3.6232,-3.6249,-3.6232,-3.6232,-3.6232,-3.6215,-3.6197,-3.6197,-3.5783,-3.4956,-3.2565,-3.1172,-3.0342,-2.8444,-2.7396,-2.6855,-2.6481,-2.6363,-2.6348,-2.6364,-2.6364,-2.6426,-2.7011,-2.6749,-2.5998,-2.4702,-2.3865,0.0,0.0,-2.2825,-2.3047,-2.3876,-2.3607,-2.3336,-2.3892,-2.3146,-2.2291,-2.2264,-2.1817,-2.1233,0.0,-2.0487,-2.0297,-1.9758,0.0,-1.9578,-1.9605,-2.0093,-2.0427,-2.0481,-2.0914,-2.1229,-2.118,-2.1023,-2.0901,-2.0901,-2.0775,-2.0712,-2.0699,-2.0359,-1.9951,-1.9413,-1.8637,-1.794,-1.7388,-1.681,0.0,0.0,0.0,0.0,0.0,0.0,0.0,0.0,0.0,0.0,0.0,0.0,0.0,0.0,0.0,0.0,0.0,0.0,0.0,0.0,0.0,0.0,0.0,0.0,0.0,0.0,0.0,0.0,-2.6653,-2.8269,0.0,0.0,-2.8632,-2.973,-3.0349,-3.1366,-3.2721,-3.4495,-3.46,-3.5405,-3.7171,-3.7201,-3.7463,-3.8035,-3.7975,-3.7672,-3.706,-3.706,-3.6801,-3.6301,-3.6301,-3.6301,-3.6266,-3.5801,-3.5439,-3.5059,-3.321,-3.2241,-3.1725,-3.0245,-2.9313,-2.8717,-2.8062,-2.7814,-2.7814,-2.7735,-2.7688,-2.7657,-2.7457,-2.6949,-2.6334,-2.5818,-2.5046,-2.4294,-2.4143,-2.3638,-2.3248,-2.3906,-2.396,-2.3852,-2.4069,-2.3446,-2.2793,-2.2386,-2.1844,-2.1355,-2.109,-2.1063,-2.0874,-2.0292,-2.0183,-2.0197,-2.0178,-2.0294,-2.0516,-2.0783,-2.0962,-2.1046,-2.1023,-2.0938,-2.0888,-2.0775,-2.0371,-2.01,-1.9989,-1.9471,-1.9044,-1.8767,-1.8399,-1.794,-1.7388,-1.7187,-1.6218,0.0,0.0,0.0,0.0,0.0,0.0,0.0,0.0,0.0,0.0,0.0,0.0,0.0,0.0,0.0,0.0,0.0,0.0,0.0,0.0,0.0,0.0,0.0,0.0,0.0,0.0,-2.7881,-2.8125,-2.9704,-3.0374,-2.9301,-3.0706,-3.1967,-3.2704,-3.3705,-3.4969,-3.6496,-3.6338,-3.6878,-3.8397,-3.8205,-3.8307,-3.8877,-3.8894,-3.8547,-3.7853,-3.7594,-3.7215,-3.6697,-3.6422,-3.6301,-3.6266,-3.5508,-3.5197,-3.5094,-3.3835,-3.3104,-3.2636,-3.1405,-3.0478,-2.9715,-2.923,-2.8823,-2.8573,-2.8444,-2.8411,-2.8334,-2.7888,-2.7442,-2.7011,-2.6779,-2.6213,-2.5663,-2.5479,-2.4629,-2.398,-2.4531,-2.4232,-2.3879,-2.4069,-2.3459,-2.2807,-2.24,-2.1844,-2.1423,-2.1423,-2.1423,-2.1287,-2.0847,-2.0779,-2.0793,-2.0725,-2.0677,-2.0764,-2.1042,-2.0997,-2.0974,-2.0888,-2.0838,-2.0775,-2.0712,-2.0139,-1.9751,-1.9629,-1.8982,-1.8456,-1.8147,-1.8008,-1.7664,-1.7099,-1.7087,-1.6504,-1.5347,0.0,0.0,0.0,0.0,0.0,0.0,0.0,0.0,0.0,0.0,0.0,0.0,0.0,0.0,0.0,0.0,0.0,0.0,0.0,0.0,0.0,0.0,0.0,-2.5632,-2.7901,-2.9237,-2.876,-3.1315,-3.2706,-3.1565,-3.3442,-3.5021,-3.5759,-3.5864,-3.6531,-3.8023,-3.7444,-3.776,-3.9305,-3.8585,-3.8443,-3.9077,-3.9077,-3.8929,-3.8612,-3.787,-3.7508,-3.7456,-3.6663,-3.6284,-3.6215,-3.549,-3.5145,-3.5059,-3.4318,-3.371,-3.3136,-3.1828,-3.0739,-2.981,-2.9795,-2.9277,-2.8573,-2.8444,-2.8411,-2.8411,-2.8411,-2.8411,-2.8299,-2.773,-2.7515,-2.7399,-2.6857,-2.5835,-2.5103,-2.5669,-2.4514,-2.3297,-2.396,-2.3173,-2.2305,-2.2305,-2.1844,-2.1423,-2.1423,-2.1423,-2.1423,-2.1423,-2.1423,-2.1423,-2.1375,-2.1277,0.0,-2.118,-2.101,-2.0888,-2.0888,-2.0775,-2.0699,-2.0699,-2.0113,-1.9712,-1.9603,-1.8943,-1.8252,-1.7613,-1.7465,-1.7124,-1.6572,-1.6504,-1.6779,-1.7355,0.0,0.0,0.0,0.0,0.0,0.0,0.0,0.0,0.0,0.0,0.0,0.0,0.0,0.0,0.0,0.0,0.0,0.0,0.0,0.0,0.0,0.0,-2.6735,-2.8164,-2.936,-3.0289,-3.093,-3.2642,-3.3517,-3.2967,-3.4477,-3.5583,-3.5794,-3.6847,-3.7654,-3.8093,-3.8462,-3.9129,-4.013,-3.9954,-4.0114,-4.0734,-4.0645,-4.0231,-3.9541,-3.8691,-3.8008,-3.7456,-3.6663,-3.6008,-3.5456,-3.4714,-3.4059,-3.3473,-3.2731,-3.227,-3.2007,-3.2035,-3.1424,-3.043,-2.9888,-2.9217,-2.8573,-2.8444,-2.8411,-2.8411,-2.8411,-2.8411,-2.8348,-2.8186,-2.7845,-2.736,-2.6783,-2.5546,-2.4408,-2.4526,-2.3585,-2.2712,-2.3283,-2.2875,-2.2305,-2.2305,-2.1844,-2.1423,-2.1423,-2.1423,-2.1423,-2.1423,-2.1423,-2.1326,-2.1131,-2.1082,0.0,-2.0848,-2.0812,-2.0762,-2.0762,-2.0712,-2.0699,-2.0699,-1.9734,-1.9066,0.0,-1.7933,-1.7377,-1.7453,-1.742,-1.7488,-1.7739,-1.7053,-1.6735,0.0,0.0,0.0,0.0,0.0,0.0,0.0,0.0,0.0,0.0,0.0,0.0,0.0,0.0,0.0,0.0,0.0,0.0,0.0,0.0,0.0,0.0,-2.6876,-2.8652,-3.0068,-3.0535,-3.1148,-3.2288,-3.3659,-3.4283,-3.3688,-3.5252,-3.6039,-3.539,-3.7058,-3.8111,-3.8111,-3.8866,-3.9814,-4.092,-4.0639,-4.0788,-4.1408,-4.1272,-4.0781,-3.9898,-3.8691,-3.7732,-3.6956,-3.587,-3.5128,0.0,-3.3921,-3.3335,-3.2852,-3.2093,-3.1722,0.0,0.0,0.0,0.0,0.0,-2.9029,-2.8636,-2.846,-2.8411,-2.8411,-2.8411,-2.8411,-2.8411,-2.8411,-2.8186,-2.7758,-2.7106,-2.5886,-2.4742,-2.4693,-2.3497,-2.2435,-2.3004,-2.2538,-2.1925,-2.1925,-2.1667,-2.1423,-2.1423,0.0,0.0,-2.1423,-2.1423,-2.1326,-2.1131,-2.1033,-2.0947,-2.0825,-2.0712,-2.0699,-2.0699,-2.0699,-2.0699,-2.0699,-1.9812,0.0,0.0,0.0,-1.7658,-1.7714,-1.7727,0.0,0.0,0.0,0.0,0.0,0.0,0.0,0.0,-1.758,-1.7622,0.0,0.0,0.0,0.0,0.0,0.0,0.0,0.0,0.0,0.0,0.0,0.0,0.0,0.0,0.0,0.0,-2.8819,-3.0193,-3.1486,-3.1458,-3.1746,-3.2967,-3.4375,-3.4868,-3.3915,-3.5698,-3.6324,-3.4953,-3.6865,-3.8146,-3.8234,0.0,0.0,0.0,0.0,-4.0876,-4.1426,-4.123,-4.0694,-3.9898,-3.82,-3.7033,-3.6249,-3.4766,-3.4042,-3.3904,-3.3214,-3.2852,-3.2731,-3.2076,-3.1763,-3.1703,-3.1466,-3.0868,-3.0022,-2.9155,-2.8748,0.0,0.0,0.0,0.0,-2.8381,-2.8411,-2.8411,-2.8411,-2.835,-2.8165,-2.7565,-2.6488,-2.5497,-2.5388,-2.3836,-2.2405,-2.2859,-2.2242,-2.1471,-2.1423,-2.1423,-2.1423,-2.1423,-2.1423,-2.1423,-2.1375,-2.1375,-2.1375,-2.118,-2.1082,-2.0947,-2.0888,-2.0762,-2.0699,-2.0699,0.0,0.0,-2.0699,-2.0139,-1.9703,-1.9448,-1.8955,-1.863,-1.8392,-1.8505,-1.902,-1.9974,-1.9409,-1.9581,-2.0601,-1.9794,-1.9251,-1.8846,-1.7722,-1.7928,0.0,0.0,0.0,0.0,0.0,0.0,0.0,0.0,0.0,0.0,0.0,0.0,0.0,0.0,0.0,-2.8895,-3.0312,-3.1574,-3.2447,-3.1831,-3.1737,-3.2949,-3.4505,-3.5052,-3.4049,-3.535,-3.6162,-3.5842,-3.7242,-3.8392,-3.9041,-4.0393,0.0,-4.1604,-4.1464,-4.1464,-4.156,-4.0814,-4.0341,-4.0016,0.0,0.0,-3.6249,-3.4766,-3.3731,-3.3128,-3.2972,-3.2559,-3.199,-3.1852,-3.1579,-3.1179,-3.0833,-3.0336,-2.9781,-2.9061,-2.842,-2.7953,-2.8307,-2.8057,-2.7688,-2.8227,-2.8411,-2.8411,-2.8411,-2.8027,0.0,-2.7442,-2.6153,-2.4777,-2.4762,-2.3775,-2.2692,-2.2419,-2.2222,-2.1949,-2.1471,-2.1423,-2.1423,-2.1423,-2.1423,-2.1375,-2.1277,-2.1326,-2.1326,-2.1082,-2.1033,-2.0947,-2.0762,-2.0712,-2.0699,-2.0699,-2.0699,-2.0699,-2.0699,-2.0139,-1.9703,-1.9448,-1.9509,-1.9548,-1.9497,-2.0363,-2.0953,-2.1154,-2.1056,-2.1018,-2.1116,-2.0442,-2.0279,-2.0574,-1.9285,-1.8847,0.0,0.0,0.0,0.0,0.0,0.0,0.0,0.0,0.0,0.0,0.0,-2.4535,-2.6105,0.0,-2.9251,-3.0076,-3.1474,-3.243,-3.2312,-3.2164,-3.2198,-3.2582,-3.3615,-3.3934,-3.3033,-3.4583,-3.5279,-3.4411,-3.6406,-3.7787,-3.8128,-3.9989,-4.1218,-4.1587,-4.1604,-4.1411,-4.1042,-4.0543,-3.9861,-3.8912,-3.6932,-3.57,-3.5145,-3.3628,-3.2731,-3.2352,-3.2352,-3.2145,-3.18,-3.18,-3.1542,-3.1033,-3.0482,-2.9848,-2.9216,-2.8748,-2.8007,-2.7205,-2.735,-2.7396,-2.7457,-2.7796,-2.8134,-2.835,-2.7996,-2.7673,-2.7257,-2.6549,-2.5664,-2.4878,-2.4544,-2.3849,-2.3201,-2.2934,-2.254,-2.2137,-2.1841,-2.1616,-2.1423,-2.1423,-2.1375,-2.1277,-2.1229,-2.118,-2.1144,-2.0961,-2.0974,-2.0861,-2.0699,-2.0699,-2.0699,-2.0699,-2.0699,-2.0699,-2.0699,-2.0289,-1.9922,-1.9723,-1.9762,-1.9936,-2.0225,-2.0778,-2.1343,-2.1895,-2.1597,-2.1494,-2.1716,-2.1055,-2.0694,-2.0624,-2.016,-2.0073,0.0,0.0,0.0,0.0,0.0,0.0,0.0,0.0,-2.3408,-2.4708,-2.5679,-2.6686,-2.7997,-2.9325,-3.0433,-3.1054,-3.2458,-3.3141,-3.2191,-3.2386,-3.2422,-3.1892,-3.2513,-3.2721,-3.2013,-3.3659,-3.4278,-3.3006,-3.5296,-3.6829,-3.7031,-3.8942,-4.0375,-4.113,-4.1165,-4.0867,-4.0253,-3.9966,-3.9163,-3.7805,-3.6186,-3.5025,-3.4249,-3.2714,-3.2007,-3.2007,-3.1852,-3.18,-3.18,-3.18,-3.1579,-3.1172,-3.0442,-2.9577,-2.878,-2.8345,-2.7565,-2.6645,-2.647,-2.6657,-2.7026,-2.7149,-2.7565,-2.7904,-2.7365,-2.7103,-2.6765,-2.5626,-2.5226,-2.4995,-2.4441,-2.4036,-2.3724,-2.3595,-2.3024,-2.2402,-2.2217,-2.1841,-2.152,-2.1423,-2.1326,-2.1229,-2.118,-2.1082,-2.0961,-2.0888,-2.0901,-2.0838,-2.0712,-2.0699,-2.0699,-2.0699,-2.0699,-2.0699,-2.0699,-2.0385,-2.0131,-2.0042,-2.0128,-2.0338,-2.0857,-2.1083,-2.1556,-2.2447,-2.1905,-2.1862,-2.2298,-2.1616,-2.1169,-2.0834,-2.0941,-2.104,-1.9955,-2.0865,-2.1641,-2.2054,-2.2397,-2.3098,0.0,0.0,-2.5467,-2.6219,-2.7251,-2.8016,-2.8031,-3.007,-3.1822,-3.2014,-3.3344,-3.4064,-3.316,-3.2437,-3.1634,-3.0646,-3.1712,-3.2466,-3.2198,-3.2889,-3.3539,-3.4078,-3.4762,-3.5755,-3.7114,-3.7928,-3.8743,-3.955,-3.9568,-3.9533,-3.9445,-3.8678,-3.8098,-3.7805,-3.6186,-3.5302,-3.5007,-3.3473,-3.2783,-3.2748,-3.2076,-3.18,-3.18,-3.18,-3.1763,-3.164,-3.09,-2.9962,-2.8858,-2.781,-2.7126,-2.6645,-2.647,-2.6026,-2.5656,-2.6287,-2.6518,-2.6549,-2.6518,-2.6057,-2.5518,-2.5349,-2.4887,-2.4394,-2.4333,-2.4261,-2.4135,-2.3696,-2.3508,-2.3201,-2.2402,-2.2137,-2.1996,-2.1471,-2.1375,-2.1277,-2.1033,-2.0997,-2.0961,-2.0888,-2.0901,-2.0838,-2.0712,-2.0699,-2.0699,-2.0699,-2.0699,-2.0699,-2.0699,-2.0385,-2.0182,-2.0182,-2.0914,-2.133,-2.1393,-2.2334,-2.2912,-2.2977,-2.2917,-2.2942,-2.3005,-2.231,-2.2553,-2.3516,-2.206,-2.1075,-2.1581,-2.22,0.0,0.0,-2.4161,-2.4895,-2.5485,-2.6433,-2.7214,-2.7366,-2.8236,-2.8914,-2.8832,-3.0302,-3.1694,0.0,-3.2902,-3.3223,-3.2748,-3.1918,-3.0993,-2.9906,-3.0724,-3.1464,-3.1646,-3.2328,-3.2995,-3.3566,-3.4178,-3.5153,-3.6481,-3.7217,-3.8086,-3.9269,-3.9305,-3.9094,-3.862,-3.8246,-3.7737,-3.7137,-3.6,-3.5359,-3.5145,-3.4076,-3.3335,-3.2869,-3.211,-3.18,-3.18,-3.18,-3.18,-3.1679,-3.0472,-2.9811,-2.9391,-2.7767,-2.6607,-2.5762,-2.5435,-2.5284,-2.5364,-2.5672,-2.6041,-2.6287,-2.5887,-2.5549,-2.5226,-2.4841,-2.4533,-2.4302,-2.4302,-2.4302,-2.4261,-2.4036,-2.3824,-2.3421,-2.2754,-2.2402,-2.2044,-2.152,-2.1326,-2.1229,-2.1033,-2.0961,-2.0924,-2.0825,-2.0775,-2.0762,-2.0712,-2.0699,-2.0699,-2.0699,-2.0612,-2.0562,-2.0562,-2.0296,-2.0093,-2.0093,-2.0671,-2.1154,-2.1481,-2.2234,-2.2661,-2.2661,-2.2661,-2.2661,-2.2661,-2.234,-2.2604,-2.3413,-2.2532,-2.2087,-2.2295,0.0,0.0,-2.3936,-2.5098,-2.6004,-2.6056,-2.7232,-2.8353,-2.8443,-2.8858,-2.9288,-2.9514,-3.0328,0.0,-3.195,-3.2378,-3.2471,-3.2087,-3.1447,-3.0753,-2.9944,-3.0373,-3.1067,-3.2053,-3.2394,-3.2858,-3.3533,-3.3888,-3.4458,-3.5474,-3.6199,-3.7129,-3.8304,-3.855,-3.8392,-3.7795,-3.7755,-3.7411,-3.6725,-3.6093,-3.5711,-3.5514,-3.4565,-3.3645,-3.2869,-3.211,-3.18,-3.18,-3.18,-3.18,-3.1645,-3.011,-2.9659,-2.9607,-2.7541,-2.6238,-2.5424,-2.4708,-2.4683,-2.5041,-2.5041,-2.5395,-2.5718,-2.5195,-2.5041,-2.4933,-2.4441,-2.4302,-2.4302,-2.4302,-2.4302,-2.4302,-2.4302,-2.4036,-2.3638,-2.3201,-2.2709,-2.2217,-2.165,-2.1375,-2.1131,-2.101,-2.0924,-2.0838,-2.0712,-2.0699,-2.0699,-2.0699,-2.0699,-2.0699,-2.0699,-2.0612,-2.0562,-2.0511,-2.0246,-2.0042,-1.999,-2.0456,-2.084,-2.1242,-2.1794,-2.2083,-2.2083,-2.2083,-2.2159,-2.2309,-2.2309,-2.271,-2.3494,-2.2991,-2.3235,0.0,0.0,-2.3778,-2.3809,-2.4923,-2.622,-2.7047,-2.7846,-2.8642,-2.9471,-2.915,-2.8973,-2.9825,-3.0166,-3.0592,-3.1388,-3.2123,-3.2289,-3.1439,-3.1244,-3.1123,-3.0959,-3.0959,-3.1844,0.0,-3.3345,-3.3368,-3.4751,-3.3978,-3.3611,-3.4044,-3.4623,-3.5258,-3.5899,-3.6654,-3.704,-3.7023,-3.6886,-3.6846,-3.6771,-3.655,-3.6468,-3.6416,-3.4806,-3.3645,-3.2869,-3.211,-3.18,-3.18,-3.18,-3.18,-3.1645,-3.011,-2.9523,-2.9231,-2.69,-2.614,-2.6078,-2.4766,-2.4317,-2.4333,-2.4333,-2.4364,-2.4364,-2.4348,-2.4333,-2.4333,-2.4317,-2.4302,-2.4302,-2.4302,-2.4302,-2.4302,-2.4302,-2.4302,-2.4135,-2.3681,-2.3201,-2.2709,-2.2077,-2.1568,-2.1144,-2.0938,-2.0901,-2.0838,-2.0712,-2.0699,-2.0699,-2.0699,-2.0699,-2.0699,-2.0699,-2.0699,-2.0662,-2.0511,-2.0296,-2.0131,-1.999,-2.0456,-2.0731,-2.0743,-2.1217,-2.1506,-2.1506,-2.1506,-2.1782,-2.2309,-2.2309,-2.3163,-2.473,-2.3899,-2.4198,0.0,0.0,-2.4819,-2.4581,-2.5817,-2.7129,-2.7327,-2.7528,-2.7762,-2.8045,-2.8032,-2.8055,-2.8346,-2.9002,-2.978,-3.0567,-3.0877,-3.1087,-3.1329,-3.0849,-3.0633,-3.1082,-3.1561,0.0,0.0,0.0,0.0,-3.4952,-3.3671,-3.3208,-3.4159,-3.4757,-3.5296,-3.5794,-3.6584,-3.6987,-3.6987,-3.6948,-3.6869,-3.6725,-3.6485,-3.636,-3.6308,-3.4806,-3.3938,-3.3628,-3.2352,-3.18,-3.18,-3.18,-3.18,-3.1645,-3.011,-2.9351,-2.8881,-2.669,-2.574,-2.5472,-2.4723,-2.4359,-2.4302,-2.4302,-2.4302,-2.4302,-2.4302,-2.4302,-2.4302,-2.4302,-2.4302,-2.4302,-2.4302,-2.4302,-2.4302,-2.4302,-2.4302,-2.4094,-2.329,-2.2934,-2.2526,-2.165,-2.1229,-2.1046,-2.0938,-2.0901,-2.0838,-2.0712,-2.0699,-2.0699,-2.0699,-2.0699,-2.0699,-2.0699,-2.0498,-2.0398,-2.0511,-2.0131,-1.9965,-1.999,-2.0456,-2.0718,-2.0718,-2.1192,-2.1317,-2.0953,-2.0941,-2.1041,-2.1217,-2.1217,-2.2083,-2.3654,-2.3283,-2.3947,0.0,-2.3755,-2.4138,-2.4511,-2.5497,-2.6477,-2.7007,-2.7083,-2.714,-2.7458,-2.737,-2.7343,-2.7656,-2.7984,-2.8576,-2.9685,-2.9851,-3.01,-3.0887,-3.0767,-3.0876,-3.1599,-3.2368,0.0,0.0,0.0,0.0,-3.5162,-3.3979,-3.3515,-3.4377,-3.499,-3.5509,-3.589,-3.6605,-3.6987,-3.6987,-3.6987,-3.6908,-3.6702,-3.6502,-3.6205,-3.587,-3.4645,-3.3921,-3.3593,-3.2334,-3.18,-3.18,-3.18,-3.18,-3.1645,-3.011,-2.9368,-2.8846,-2.6617,-2.5615,-2.5269,-2.463,-2.4359,-2.4302,-2.4302,-2.4302,-2.4302,-2.4302,-2.4302,-2.4302,-2.4302,-2.4302,-2.4302,-2.4302,-2.4302,-2.4302,-2.4302,-2.4302,-2.4135,-2.3508,-2.3009,-2.2466,-2.1779,-2.1277,-2.0924,-2.0825,-2.0838,-2.0775,-2.0699,-2.0699,-2.0699,-2.0699,-2.0699,-2.0699,-2.0699,-2.0448,-2.0347,-2.0398,-2.008,-1.9875,-1.9926,-2.0215,-2.0351,-2.0351,-2.0702,-2.0715,-2.0363,-2.0351,-2.0451,-2.0718,-2.0718,-2.1418,-2.2802,-2.2887,-2.3688,-2.2921,-2.2385,-2.2223,-2.3771,-2.4205,-2.4648,-2.6227,-2.6574,-2.6776,-2.7605,-2.7113,-2.6795,0.0,0.0,-2.7187,-2.8779,-2.9113,-2.9447,-3.0267,-3.1033,-3.18,0.0,0.0,0.0,0.0,0.0,0.0,-3.544,0.0,-3.4382,-3.4611,-3.5232,-3.5749,-3.6094,-3.6682,-3.7027,-3.6987,-3.697,-3.6869,-3.6702,-3.6509,-3.6028,-3.5163,-3.4387,-3.3611,-3.2869,-3.211,-3.18,-3.18,-3.18,-3.1783,-3.1593,-3.0093,-2.942,-2.9007,-2.6709,-2.5762,-2.5572,-2.4655,-2.4302,-2.4302,-2.4302,-2.4302,-2.4302,-2.4302,-2.4302,-2.4302,-2.4302,-2.4302,-2.4302,-2.4302,-2.4302,-2.4302,-2.4302,-2.4302,-2.4302,-2.4261,-2.3465,-2.2649,-2.2512,-2.1616,-2.0838,-2.0712,-2.0699,-2.0699,-2.0699,-2.0699,-2.0699,-2.0699,-2.0712,-2.0712,-2.0712,-2.0562,-2.041,-2.0233,-2.0093,-1.9926,-1.9811,-1.9798,-1.9798,-1.9798,-1.9798,-1.9798,-1.9798,-1.9798,-2.0075,-2.0668,-2.0668,-2.1179,-2.2234,-2.2824,-2.3401,-2.3146,-2.4159,-2.5352,-2.5114,-2.556,-2.6149,-2.6573,-2.6168,-2.5763,-2.5985,-2.586,-2.5763,-2.5995,0.0,0.0,-2.8192,-2.9242,0.0,-3.1218,-3.1482,0.0,0.0,0.0,-3.4253,-3.5229,-3.5438,0.0,0.0,-3.4899,-3.4457,-3.4806,-3.5957,-3.6474,-3.6112,-3.6834,-3.7143,-3.6987,-3.6908,-3.6788,-3.6684,-3.5989,-3.5509,-3.5145,-3.3818,-3.3093,-3.2869,-3.211,-3.18,-3.18,-3.18,-3.1472,-3.0869,-2.9886,-2.8973,-2.8065,-2.6736,-2.6049,-2.5684,-2.4997,-2.4574,-2.4302,-2.4302,-2.4302,-2.4302,-2.4302,-2.4302,-2.4302,-2.4302,-2.4302,-2.4302,-2.4302,-2.4302,-2.4302,-2.4302,-2.4302,-2.4177,-2.3724,-2.3319,-2.2815,-2.2016,-2.1229,-2.0762,-2.0712,-2.0699,-2.0699,-2.0699,-2.0699,-2.0699,-2.0699,-2.0612,-2.0562,-2.0562,-2.0309,-2.0093,-2.0042,-1.9926,-1.9862,-1.9798,-1.9798,-1.9798,-1.9798,-1.9798,-1.9798,-1.9798,-1.9798,-1.9874,-2.0024,-2.0024,-2.0388,-2.1104,-2.2071,-2.2824,-2.3602,-2.4308,-2.5039,-2.4904,-2.5247,-2.5693,-2.6041,-2.5751,-2.5288,-2.4949,-2.5161,0.0,-2.4941,0.0,0.0,0.0,0.0,0.0,-3.1563,-3.2281,-3.3029,0.0,-3.4324,0.0,-3.5072,-3.578,-3.6178,0.0,-3.575,-3.5757,-3.6085,-3.6753,-3.7033,-3.679,-3.7104,-3.722,-3.6987,-3.6869,-3.6748,-3.6684,-3.5798,-3.5163,-3.468,-3.3455,-3.2714,-3.2386,0.0,-3.18,-3.18,-3.18,-3.1369,-3.061,-2.9817,-2.8853,-2.781,-2.679,-2.6191,-2.5852,-2.5351,-2.4902,-2.4533,-2.4343,-2.4302,-2.4302,-2.4302,-2.4302,-2.4302,-2.4302,-2.4302,-2.4302,-2.4302,-2.4302,-2.4302,-2.4302,-2.4276,-2.4151,-2.3824,-2.3421,-2.283,-2.1746,-2.1082,-2.0699,-2.0699,-2.0699,-2.0699,-2.0699,-2.0699,-2.0662,-2.0612,-2.0562,-2.0511,-2.0511,-2.0195,-1.999,-1.999,-1.9862,-1.9798,-1.9798,-1.9798,-1.9798,-1.9798,-1.9798,-1.9798,-1.9798,-1.9798,-1.9798,-1.9798,-1.9798,-1.9962,-2.0313,-2.1179,-2.1882,-2.3817,-2.3582,-2.3305,-2.3876,-2.4208,-2.4521,-2.512,-2.5228,-2.5081,-2.4486,0.0,-2.5062,-2.449,0.0,-2.6116,-2.7745,0.0,-2.9852,-3.171,-3.3126,-3.403,-3.4256,-3.4883,-3.5245,-3.5127,-3.5853,-3.6255,-3.6037,-3.6831,-3.7361,-3.7442,-3.7382,-3.7426,-3.7595,-3.7266,-3.7023,-3.6829,-3.6646,-3.6492,-3.6388,-3.5526,-3.4696,-3.3943,-3.311,-3.2403,-3.18,0.0,0.0,-3.1783,-3.1679,-3.1196,-3.0455,-2.9661,-2.8801,-2.7845,-2.6842,-2.6367,-2.6139,-2.5726,-2.5313,-2.4902,-2.4533,-2.4343,-2.4302,-2.4302,-2.4302,-2.4302,-2.4302,-2.4302,-2.4302,-2.4302,-2.4302,-2.4302,-2.4317,-2.425,-2.4181,-2.4166,-2.3538,-2.2663,-2.1684,-2.1082,-2.0699,-2.0699,-2.0699,-2.0699,-2.0699,-2.0662,-2.0612,-2.0511,-2.0461,-2.0461,-2.0461,-2.0144,-1.9978,-1.9978,-1.9862,-1.9798,-1.9798,-1.9798,-1.9798,-1.9798,-1.9798,-1.9798,-1.9798,-1.9798,-1.9798,-1.9798,-1.9798,-1.9798,-1.9811,-2.0401,-2.097,-2.238,-2.3135,-2.3918,-2.3276,-2.4217,-2.512,-2.4544,-2.4401,0.0,0.0,0.0,-2.459,-2.5168,-2.5936,0.0,-2.7912,0.0,0.0,0.0,0.0,-3.3673,0.0,0.0,0.0,0.0,0.0,0.0,0.0,0.0,0.0,-3.6656,-3.722,-3.7551,-3.7595,-3.6622,-3.606,-3.6022,-3.539,-3.4999,-3.4868,-3.4007,-3.346,-3.3225,-3.2372,-3.1921,-3.18,0.0,0.0,-3.1748,-3.1127,-3.042,-2.9627,-2.8885,-2.8044,-2.7242,-2.6976,-2.6842,-2.6691,-2.6175,-2.5726,-2.5313,-2.4942,-2.4558,-2.4302,-2.4302,-2.4302,-2.4302,-2.4302,-2.4302,-2.4302,-2.4302,-2.4302,-2.4276,-2.425,-2.4208,-2.4124,-2.3925,-2.3054,-2.2221,-2.2002,-2.1313,-2.0699,-2.0699,-2.0699,-2.0699,-2.0699,-2.0612,-2.0511,-2.0511,-2.0347,-2.0195,-2.0093,-1.9926,-1.985,-1.985,-1.9798,-1.9798,-1.9798,-1.9798,-1.9798,-1.9798,-1.9798,-1.9798,-1.9798,-1.9798,-1.9798,-1.9798,-1.9798,-1.9798,-1.9811,-2.0401,-2.0769,-2.2474,-2.3068,-2.3553,-2.3077,-2.3919,-2.4755,-2.429,0.0,0.0,0.0,0.0,-2.3792,-2.471,0.0,0.0,0.0,0.0,0.0,0.0,0.0,0.0,0.0,0.0,0.0,0.0,0.0,0.0,0.0,0.0,0.0,-3.667,-3.6666,-3.6581,-3.6381,-3.5686,-3.5289,-3.5232,-3.4881,-3.4633,-3.4486,-3.3698,-3.3221,-3.3055,-3.2239,-3.1819,-3.18,-3.18,0.0,-3.1731,-3.0989,-3.0231,-2.9437,-2.8696,-2.7872,-2.7055,-2.7007,-2.6909,-2.6759,-2.6505,-2.6016,-2.5465,-2.5275,-2.4799,-2.4302,-2.4302,-2.4302,-2.4302,-2.4302,-2.4302,-2.4317,-2.425,-2.4234,-2.4208,-2.4124,-2.4024,-2.394,-2.3739,-2.3054,-2.242,-2.2128,-2.1541,-2.0997,-2.0749,-2.0662,-2.0612,-2.0612,-2.0448,-2.0296,-2.0258,-2.0144,-2.0093,-1.999,-1.9862,-1.9798,-1.9798,-1.9798,-1.9798,-1.9798,-1.9798,-1.9798,-1.9798,-1.9798,-1.9798,-1.9798,-1.9798,-1.9798,-1.9798,-1.9798,-1.9798,-1.9811,-2.0087,-2.0216,-2.2363,-2.2675,-2.2769,-2.2513,-2.3392,-2.4243,-2.4005,-2.3935,0.0,0.0,0.0,-2.2979,-2.4103,0.0,0.0,0.0,0.0,0.0,0.0,0.0,0.0,0.0,0.0,0.0,0.0,0.0,0.0,0.0,0.0,0.0,-3.6545,-3.5928,-3.5467,-3.5272,-3.4871,-3.4624,-3.4515,-3.432,-3.4142,-3.4051,-3.342,-3.3014,-3.285,-3.2189,-3.1839,-3.18,-3.18,0.0,0.0,-3.0817,-3.0075,-2.9386,-2.8473,-2.7652,-2.6992,-2.6992,-2.6859,-2.6691,-2.6691,-2.6175,-2.5503,-2.5503,-2.4942,-2.4302,-2.4302,-2.4302,-2.4302,-2.4302,-2.4302,-2.4261,-2.4208,-2.4223,-2.4166,-2.3982,-2.3839,-2.3739,-2.3595,-2.3143,-2.2603,-2.2175,-2.1636,-2.1082,-2.0699,-2.0549,-2.0461,-2.0461,-2.0296,-2.0131,-1.999,-1.9978,-1.9978,-1.9978,-1.9862,-1.9798,-1.9798,-1.9798,-1.9798,-1.9798,-1.9798,-1.9798,-1.9798,-1.9798,-1.9798,-1.9798,-1.9798,-1.9798,-1.9798,-1.9798,-1.9798,-1.9798,-1.9798,-1.9723,-2.0719,-2.1328,-2.1737,-2.0921,-2.2523,-2.4088,-2.3295,0.0,0.0,0.0,-2.2978,-2.2319,-2.3997,0.0,0.0,0.0,0.0,0.0,0.0,0.0,0.0,0.0,0.0,0.0,0.0,0.0,0.0,0.0,0.0,0.0,0.0,-3.4999,-3.4938,-3.5457,-3.4442,-3.3881,-3.3881,-3.302,-3.2616,-3.2599,-3.2336,-3.2213,-3.2177,-3.1927,-3.18,-3.18,0.0,0.0,0.0,-3.0213,-2.9541,-2.9265,-2.7805,-2.7074,-2.6926,-2.6926,-2.6825,-2.6691,-2.6691,-2.6175,-2.5503,-2.5503,-2.4942,-2.4302,-2.4302,-2.4302,-2.4302,-2.4302,-2.4302,-2.4261,-2.4208,-2.4223,-2.4124,-2.3882,-2.3739,-2.3595,-2.3595,-2.286,-2.2175,-2.2128,-2.1251,-2.0562,-2.0511,-2.0347,-2.0233,-2.0233,-2.0093,-1.999,-1.999,-1.9862,-1.9811,-1.9811,-1.9811,-1.9798,-1.9798,-1.9798,-1.9798,-1.9798,-1.9798,-1.9798,-1.9798,-1.9798,-1.9798,-1.9798,-1.9798,-1.9798,-1.9798,-1.9798,-1.9798,-1.9798,-1.9798,-1.9525,-2.0501,-2.0746,-2.1068,-2.123,-2.2447,-2.3611,-2.3743,0.0,0.0,-2.4793,-2.3287,-2.238,-2.4652,-2.4689,-2.4754,0.0,-2.611,0.0,0.0,0.0,0.0,0.0,0.0,0.0,0.0,0.0,0.0,0.0,0.0,0.0,0.0,-3.455,-3.4321,-3.4232,-3.3605,-3.3184,-3.3084,-3.2649,-3.2406,-3.2406,-3.2319,-3.2232,-3.2126,-3.2018,-3.1893,-3.18,0.0,0.0,0.0,-2.9955,-2.9214,-2.8697,-2.7646,-2.7105,-2.6959,-2.6959,-2.6859,-2.6691,-2.6691,-2.6175,-2.5503,-2.5503,-2.4942,-2.425,-2.4317,-2.4302,-2.4317,-2.4234,-2.425,-2.4208,-2.4024,-2.3882,-2.3797,-2.3696,-2.3653,-2.3595,-2.3595,-2.3246,-2.2754,-2.2081,-2.1589,-2.1082,-2.0448,-2.0195,-2.0093,-2.0093,-1.9978,-1.9862,-1.9862,-1.985,-1.9798,-1.9798,-1.9798,-1.9798,-1.9798,-1.9798,-1.9798,-1.9798,-1.9798,-1.9798,-1.9798,-1.9798,-1.9798,-1.9798,-1.9798,-1.9798,-1.9798,-1.9798,-1.9798,-1.9798,-1.9798,-1.95,-2.0802,-2.0876,-2.1087,-2.1964,-2.2832,-2.3623,0.0,0.0,-2.3752,-2.4968,-2.3553,-2.2758,-2.4859,-2.4788,-2.4684,0.0,-2.5644,-2.6306,-2.8293,0.0,0.0,0.0,0.0,0.0,0.0,0.0,0.0,0.0,0.0,0.0,0.0,-3.4416,-3.4012,-3.3504,-3.3202,-3.2912,-3.2705,-3.2541,-3.2457,-3.2406,-3.2354,-3.2267,-3.2108,-3.2073,-3.1965,-3.1783,0.0,0.0,0.0,-2.9558,-2.8801,-2.825,-2.7478,-2.7089,-2.6892,-2.6892,-2.6808,-2.6691,-2.6691,-2.6175,-2.5503,-2.5503,-2.4902,-2.425,-2.4276,-2.4276,-2.4193,-2.4166,-2.4124,-2.4024,-2.3839,-2.3696,-2.3595,-2.3595,-2.3595,-2.3595,-2.3595,-2.329,-2.2799,-2.2035,-2.1575,-2.1019,-2.0283,-2.0029,-1.9926,-1.9926,-1.9862,-1.9798,-1.9798,-1.9798,-1.9798,-1.9798,-1.9798,-1.9798,-1.9798,-1.9798,-1.9798,-1.9798,-1.9798,-1.9798,-1.9798,-1.9759,-1.9759,-1.9759,-1.9708,-1.9656,-1.9656,-1.9656,-1.9708,-1.9759,-1.9708,-1.9364,-2.1519,-2.1783,-2.1993,-2.2873,-2.3739,-2.4375,0.0,-2.4344,-2.4374,-2.4323,-2.3664,-2.3351,-2.4252,-2.4413,-2.4687,-2.5566,-2.5644,-2.6502,0.0,0.0,0.0,0.0,0.0,0.0,0.0,0.0,0.0,0.0,0.0,0.0,0.0,-3.4572,-3.4099,-3.3726,-3.3494,-3.3232,-3.2916,-3.2705,-3.2523,-3.2406,-3.2267,-3.2179,-3.2126,-3.1948,-3.1875,0.0,0.0,0.0,0.0,-2.8973,-2.8236,-2.8032,-2.7215,-2.6825,-2.6691,-2.6691,-2.6691,-2.6691,-2.6691,-2.6175,-2.5503,-2.5503,-2.4942,-2.4302,-2.4302,-2.4151,-2.3982,-2.3982,-2.3925,-2.3797,-2.3797,-2.3696,-2.3595,-2.3595,-2.3595,-2.3595,-2.3595,-2.2725,-2.1894,-2.1894,-2.0894,-2.0042,-1.999,-1.9862,-1.9798,-1.9798,-1.9798,-1.9798,-1.9798,-1.9798,-1.9798,-1.9798,-1.9798,-1.9798,-1.9798,-1.9798,-1.9798,-1.9798,-1.9798,-1.9798,-1.9798,-1.9656,-1.9617,-1.9617,-1.9473,-1.942,-1.942,-1.942,-1.9473,-1.9617,-1.9473,-1.9036,-2.0848,-2.1245,-2.1811,-2.2126,-2.283,-2.361,-2.4238,-2.439,-2.4555,-2.5074,-2.4553,-2.4251,-2.5136,-2.5293,-2.5564,-2.6452,0.0,0.0,0.0,0.0,0.0,0.0,0.0,0.0,0.0,0.0,0.0,0.0,0.0,0.0,0.0,-3.3524,-3.3423,-3.4012,-3.3494,-3.3129,-3.3024,-3.277,-3.2573,-3.2557,-3.2405,-3.1987,-3.1289,-3.1255,0.0,0.0,0.0,0.0,0.0,-2.8576,-2.7977,-2.7396,-2.7141,-2.6957,-2.6842,-2.6842,-2.6792,-2.6691,-2.6691,-2.6175,-2.5503,-2.5443,-2.4839,-2.4067,-2.4009,-2.4024,-2.4082,-2.3925,-2.3782,-2.3653,-2.3653,-2.3638,-2.3595,-2.3595,-2.3595,-2.361,-2.3538,-2.2889,-2.2175,-2.1799,-2.0993,-2.0271,-1.9914,-1.9811,-1.9798,-1.9798,-1.9798,-1.9798,-1.9798,-1.9798,-1.9798,-1.9798,-1.9708,-1.9708,-1.9798,-1.9798,-1.9798,-1.9798,-1.9708,-1.9656,-1.9656,-1.9512,-1.9473,-1.9473,-1.942,-1.942,-1.942,-1.942,-1.942,-1.946,-1.9028,-1.8457,0.0,-2.1229,-2.1764,-2.2181,-2.2672,-2.3187,-2.3787,-2.416,-2.453,-2.5035,-2.5018,-2.5058,-2.5598,-2.5696,-2.589,-2.642,0.0,0.0,0.0,0.0,0.0,0.0,0.0,0.0,0.0,0.0,0.0,0.0,0.0,0.0,0.0,0.0,-3.2732,-3.3374,-3.2842,-3.2645,-3.2769,-3.2465,-3.2435,-3.2606,-3.2241,-3.1668,-3.0975,-3.0661,0.0,0.0,0.0,0.0,0.0,-2.8042,-2.7581,-2.7055,-2.7023,-2.6925,-2.6825,-2.6825,-2.6775,-2.6691,-2.6674,-2.6227,-2.5631,-2.5406,-2.4719,-2.3982,-2.3839,-2.3882,-2.394,-2.3782,-2.3653,-2.3595,-2.3595,-2.3566,-2.3566,-2.3566,-2.3523,-2.348,-2.3407,-2.2754,-2.2035,-2.1657,-2.0881,-2.0207,-1.985,-1.9798,-1.9798,-1.9798,-1.9798,-1.9798,-1.9798,-1.9798,-1.9798,-1.9759,-1.9656,-1.9617,-1.9656,-1.9656,-1.9656,-1.9656,-1.9565,-1.9512,-1.9512,-1.942,-1.9328,-1.9328,-1.9263,-1.9146,-1.8922,-1.8709,-1.8643,-1.8536,-1.7972,-1.7534,0.0,-2.1546,-2.1803,-2.2688,-2.2952,-2.3004,-2.3,-2.3682,0.0,-2.4314,-2.4951,-2.554,-2.56,-2.5612,-2.5659,-2.5768,0.0,0.0,0.0,0.0,0.0,0.0,0.0,0.0,0.0,0.0,0.0,0.0,0.0,0.0,0.0,0.0,-3.2034,-3.1958,-3.1696,-3.1763,-3.2119,-3.191,-3.2018,-3.2462,-3.1753,-3.127,-3.0903,-3.0169,0.0,0.0,0.0,0.0,0.0,-2.7427,-2.7087,-2.6975,-2.6926,-2.6825,-2.6691,-2.6691,-2.6691,-2.6691,-2.6623,-2.6347,-2.5901,-2.5346,-2.4639,-2.3982,-2.3839,-2.3696,-2.3595,-2.361,-2.3595,-2.361,-2.3551,-2.3523,-2.3509,-2.3509,-2.3363,-2.3275,-2.3231,-2.2374,-2.1609,-2.1561,-2.0584,-1.9798,-1.9798,-1.9798,-1.9798,-1.9747,-1.9747,-1.9747,-1.9747,-1.9747,-1.9708,-1.9617,-1.9565,-1.9512,-1.942,-1.9368,-1.942,-1.942,-1.9368,-1.9368,-1.9368,-1.9275,-1.9182,-1.9182,-1.9052,-1.8709,-1.8093,-1.7655,-1.7379,-1.7202,-1.6708,-1.6425,-2.0431,0.0,-2.1447,-2.112,-2.1536,-2.2033,0.0,-2.2742,-2.3419,0.0,0.0,-2.3907,-2.4581,-2.472,-2.513,0.0,0.0,0.0,0.0,0.0,0.0,0.0,0.0,0.0,0.0,0.0,0.0,0.0,0.0,0.0,0.0,0.0,-3.0651,-3.056,-3.0352,-3.0646,-3.1498,-3.1155,-3.1045,-3.1136,-3.0752,-3.0176,-2.9408,-2.9123,0.0,0.0,0.0,0.0,-2.754,-2.7351,-2.7137,-2.7007,-2.6975,-2.6859,-2.6691,-2.6691,-2.6691,-2.6691,-2.6674,-2.6365,-2.5848,-2.4918,-2.441,-2.4151,-2.3711,-2.3668,-2.3696,-2.3581,-2.3538,-2.3494,-2.3407,-2.3363,-2.3363,-2.3363,-2.3319,-2.3172,-2.2649,-2.2035,-2.1465,-2.0944,-2.0245,-1.9747,-1.9656,-1.9656,-1.9617,-1.9512,-1.946,-1.946,-1.946,-1.946,-1.946,-1.9473,-1.9368,-1.9275,-1.9223,-1.9328,-1.942,-1.942,-1.9328,-1.9223,-1.9223,-1.9105,-1.9052,-1.9052,-1.8999,-1.8709,-1.8093,-1.7984,-1.7699,-1.7202,-1.6585,-1.6301,-2.0089,-2.0738,-2.1327,-2.0993,-2.1281,-2.1658,-2.1686,0.0,0.0,0.0,0.0,0.0,-2.4249,0.0,0.0,0.0,0.0,0.0,0.0,0.0,0.0,0.0,0.0,0.0,0.0,0.0,0.0,0.0,0.0,0.0,0.0,0.0,-3.0226,-3.0147,-2.9953,-3.0208,-3.0978,-3.0648,-3.0541,-3.0668,-3.0125,-2.9561,-2.8877,-2.8421,0.0,0.0,0.0,0.0,-2.7299,-2.7299,-2.7186,-2.7007,-2.7007,-2.6892,-2.6691,-2.6691,-2.6674,-2.6657,-2.6623,-2.6137,-2.5384,-2.4599,-2.4162,-2.3882,-2.3596,-2.3538,-2.3538,-2.3451,-2.3407,-2.3363,-2.3319,-2.3231,-2.3201,-2.3201,-2.3157,-2.3008,-2.2678,-2.2002,-2.1417,-2.1042,-2.0346,-1.9759,-1.9604,-1.9617,-1.9565,-1.942,-1.942,-1.942,-1.942,-1.942,-1.9368,-1.9328,-1.9223,-1.917,-1.9105,-1.9158,-1.921,-1.921,-1.9158,-1.9117,-1.9117,-1.9052,-1.8987,-1.8987,-1.8483,-1.7984,-1.771,-1.7146,-1.6698,-1.6368,-1.6026,-1.5921,-2.0213,-2.088,-2.1491,-2.1489,-2.164,-2.1797,-2.1872,0.0,0.0,0.0,0.0,0.0,0.0,0.0,0.0,0.0,0.0,0.0,0.0,0.0,0.0,0.0,0.0,0.0,0.0,0.0,0.0,0.0,0.0,0.0,0.0,0.0,0.0,-3.0232,-3.0045,-3.0124,-3.0482,-3.0183,-3.0136,-3.0358,-2.9589,-2.9076,-2.8762,-2.7944,-2.7557,0.0,0.0,0.0,-2.7299,-2.7299,-2.7117,-2.6836,-2.6853,-2.6721,-2.6555,-2.6522,-2.6556,-2.6589,-2.6434,-2.5738,-2.4823,-2.441,-2.3967,-2.3581,-2.3466,-2.3319,-2.3231,-2.3187,-2.3187,-2.3216,-2.3231,-2.3112,-2.3037,-2.3037,-2.2947,-2.2752,-2.2692,-2.1955,-2.1272,-2.1175,-2.0446,-1.9759,-1.9617,-1.9565,-1.9512,-1.9368,-1.9316,-1.9316,-1.9316,-1.9316,-1.9316,-1.917,-1.917,-1.9117,-1.8999,-1.8987,-1.8987,-1.8987,-1.8987,-1.8987,-1.8987,-1.8987,-1.8987,-1.8987,-1.7929,-1.7313,-1.7202,-1.6083,-1.5468,-1.541,-1.541,-1.541,-2.0726,-2.1746,-2.2244,-2.1589,-2.2013,-2.2634,0.0,0.0,0.0,0.0,0.0,0.0,0.0,0.0,0.0,0.0,0.0,0.0,0.0,0.0,0.0,0.0,0.0,0.0,0.0,0.0,0.0,0.0,0.0,0.0,0.0,0.0,0.0,-3.0299,-3.0253,-3.0161,-3.0021,-2.9465,-2.9209,-2.9245,-2.8657,-2.8314,-2.822,-2.7789,-2.7544,0.0,0.0,-2.7362,-2.7299,-2.7299,-2.684,-2.6145,-2.6082,-2.597,-2.5842,-2.581,-2.6117,-2.6537,-2.601,-2.5443,-2.4887,-2.4313,-2.4078,-2.3909,-2.3334,-2.3008,-2.2799,-2.2737,-2.2768,-2.2799,-2.2933,-2.2843,-2.2706,-2.2888,-2.2615,-2.217,-2.1718,-2.114,-2.0597,-2.0144,-1.9901,-1.9708,-1.9473,-1.942,-1.9368,-1.9105,-1.904,-1.904,-1.904,-1.904,-1.904,-1.904,-1.904,-1.8999,-1.8987,-1.8987,-1.8987,-1.8987,-1.8987,-1.8987,-1.8987,-1.8987,-1.8987,-1.8987,-1.8321,-1.7699,-1.7202,-1.6472,-1.5921,-1.541,-1.541,-1.541,-1.9745,-2.0928,-2.197,-2.2038,-2.2757,-2.3485,0.0,0.0,0.0,0.0,0.0,0.0,0.0,0.0,0.0,0.0,0.0,0.0,0.0,0.0,0.0,0.0,0.0,0.0,0.0,0.0,0.0,0.0,0.0,0.0,0.0,0.0,0.0,0.0,-3.0324,-3.0234,-3.0133,-2.966,-2.9279,-2.8952,-2.859,-2.8291,-2.8042,-2.7736,-2.7557,-2.7513,0.0,-2.7376,-2.7362,-2.7233,-2.6914,-2.651,-2.6463,-2.6349,-2.6234,-2.6118,-2.6081,-2.5961,-2.5351,-2.4831,-2.4307,-2.3809,-2.361,-2.3494,-2.3216,-2.2978,-2.2783,-2.2646,-2.2509,-2.2449,-2.2509,-2.2463,-2.2417,-2.2509,-2.2184,-2.1793,-2.1541,-2.0944,-2.0295,-2.0042,-1.9798,-1.9512,-1.9328,-1.9275,-1.917,-1.8839,-1.8774,-1.8721,-1.8518,-1.8518,-1.856,-1.8774,-1.8774,-1.8827,-1.8987,-1.8987,-1.8987,-1.8987,-1.8987,-1.8987,-1.8987,-1.8709,-1.8483,-1.8483,-1.7589,-1.6978,-1.6698,-1.6083,-1.569,-1.541,-1.541,-1.541,-1.9249,-2.026,-2.1359,-2.2383,0.0,-2.3865,-2.4374,0.0,0.0,0.0,0.0,0.0,0.0,0.0,0.0,0.0,0.0,0.0,0.0,0.0,0.0,0.0,0.0,0.0,0.0,0.0,0.0,0.0,0.0,0.0,0.0,0.0,0.0,0.0,-3.0355,-3.0318,-3.0318,-3.0056,-2.9623,-2.9045,-2.8772,-2.833,-2.7786,-2.7736,-2.7542,-2.7295,-2.7382,-2.7407,-2.7345,-2.7215,-2.6985,-2.6751,-2.6686,-2.6571,-2.6438,-2.6436,-2.6066,-2.5486,-2.4989,-2.4405,-2.3809,-2.348,-2.3187,-2.2978,-2.2992,-2.2797,-2.2615,-2.2417,-2.2184,-2.1996,-2.2184,-2.2137,-2.2137,-2.2184,-2.1746,-2.1299,-2.1299,-2.0534,-1.9837,-1.9837,-1.954,-1.9263,-1.9117,-1.9182,-1.9064,-1.8667,-1.8614,-1.8452,-1.8139,-1.8084,-1.8193,-1.8464,-1.8506,-1.856,-1.8774,-1.8774,-1.8721,-1.8655,-1.8721,-1.8827,-1.8881,-1.8387,-1.8104,-1.8093,-1.6978,-1.6368,-1.6312,-1.569,-1.5362,-1.5362,-1.541,-1.5362,-2.0566,-2.0766,-2.0685,-2.2376,0.0,0.0,-2.5027,0.0,0.0,0.0,0.0,0.0,0.0,0.0,0.0,0.0,0.0,0.0,0.0,0.0,0.0,0.0,0.0,0.0,0.0,0.0,0.0,0.0,0.0,0.0,0.0,0.0,0.0,0.0,0.0,-3.0394,-3.0398,-3.0323,-2.9984,-2.9438,-2.9001,-2.8215,-2.7189,-2.7698,-2.739,-2.6417,-2.7165,-2.7421,-2.7299,-2.7282,-2.6805,-2.6073,-2.5997,-2.579,-2.5647,-2.6115,-2.5941,-2.5368,-2.5214,-2.4583,-2.3782,-2.3653,-2.3201,-2.2709,-2.2646,-2.2278,-2.1841,-2.1712,-2.1471,-2.1423,-2.2044,-2.2044,-2.1902,-2.2137,-2.1321,-2.0471,-2.0471,-1.9567,-1.8721,-1.8721,-1.8881,-1.8999,-1.8851,-1.9011,-1.9064,-1.8667,-1.8614,-1.8452,-1.8139,-1.8084,-1.8084,-1.8139,-1.8139,-1.8139,-1.8139,-1.8139,-1.7963,-1.7556,-1.7909,-1.8302,-1.8614,-1.8302,-1.8127,-1.8093,-1.7213,-1.6595,-1.6312,-1.569,-1.5362,-1.5215,-1.5362,-1.5303,-1.8035,-1.9254,-2.0535,-2.1696,0.0,0.0,0.0,0.0,0.0,0.0,0.0,0.0,0.0,0.0,0.0,0.0,0.0,0.0,0.0,0.0,0.0,0.0,0.0,0.0,0.0,0.0,0.0,0.0,0.0,0.0,0.0,0.0,0.0,0.0,0.0,-3.0428,-3.0394,-2.9848,-2.9331,-2.8889,-2.8983,-2.8478,-2.7416,-2.7826,-2.7441,-2.6521,-2.7208,-2.7404,-2.7215,-2.7137,-2.6886,-2.6548,-2.6434,-2.6302,-2.6185,-2.6195,-2.5832,-2.5237,-2.5036,-2.4338,-2.3551,-2.3508,-2.3113,-2.2632,-2.2601,-2.2324,-2.1996,-2.1664,-2.152,-2.1471,-2.1471,-2.1375,-2.1326,-2.1423,-2.066,-1.9901,-1.9901,-1.9069,-1.8302,-1.8302,-1.8356,-1.841,-1.8356,-1.8476,-1.841,-1.8084,-1.803,-1.792,-1.7656,-1.7601,-1.7656,-1.7822,-1.7975,-1.8084,-1.8084,-1.792,-1.7755,-1.7579,-1.7623,-1.7611,-1.7424,-1.6989,-1.6719,-1.6708,-1.6036,-1.5642,-1.5478,-1.5371,-1.5205,-1.5098,-1.5205,-1.5205,-1.7527,-1.8904,-2.0537,0.0,0.0,0.0,0.0,0.0,0.0,0.0,0.0,0.0,0.0,0.0,0.0,0.0,0.0,0.0,0.0,0.0,0.0,0.0,0.0,0.0,0.0,0.0,0.0,0.0,0.0,0.0,0.0,0.0,0.0,0.0,0.0,-3.049,-3.0419,-2.9567,-2.8976,-2.8688,-2.8609,-2.7954,-2.6804,-2.7422,-2.7171,-2.6282,-2.7133,-2.7404,-2.723,-2.7087,-2.6957,-2.6825,-2.6691,-2.6589,-2.6452,-2.6206,-2.5775,-2.5237,-2.4823,-2.4131,-2.3406,-2.3231,-2.2754,-2.2278,-2.2278,-2.2091,-2.1759,-2.1471,-2.1388,-2.1291,-2.0997,-2.0947,-2.0934,-2.0772,-2.0118,-1.9396,-1.9226,-1.8494,-1.7877,-1.7877,-1.7931,-1.7975,-1.7975,-1.803,-1.803,-1.7767,-1.7711,-1.7601,-1.7334,-1.7278,-1.7334,-1.7479,-1.7634,-1.7744,-1.7744,-1.7534,-1.7312,-1.7134,-1.6888,-1.6754,-1.681,-1.6208,-1.5874,-1.5874,-1.5362,-1.5088,-1.497,-1.5088,-1.5039,-1.4911,-1.5088,-1.5029,-1.9924,-2.0197,0.0,0.0,0.0,0.0,0.0,0.0,0.0,0.0,0.0,0.0,0.0,0.0,0.0,0.0,0.0,0.0,0.0,0.0,0.0,0.0,0.0,0.0,0.0,0.0,0.0,0.0,0.0,0.0,0.0,0.0,0.0,0.0,0.0,0.0,-3.0501,-2.9602,-2.9128,-2.9044,-2.7761,-2.6394,-2.5045,-2.6451,-2.6507,-2.557,-2.6906,-2.7434,-2.7359,-2.7166,-2.6923,-2.6674,-2.6521,-2.6417,-2.6243,-2.5974,-2.577,-2.5476,-2.4688,-2.4032,-2.3508,-2.2875,-2.2203,-2.1602,-2.1616,-2.1326,-2.0997,-2.0924,-2.0888,-2.0888,-2.0712,-2.0848,-2.0822,-2.0346,-1.9683,-1.9016,-1.8459,-1.7788,-1.7278,-1.7278,-1.749,-1.7711,-1.7711,-1.792,-1.7986,-1.7711,-1.7711,-1.7601,-1.7323,-1.7278,-1.7211,-1.7011,-1.7011,-1.7011,-1.7011,-1.674,-1.64,-1.5931,-1.5459,-1.5748,-1.6955,-1.6265,-1.5874,-1.5874,-1.5584,-1.5245,-1.497,-1.497,-1.4902,-1.4715,-1.4902,-1.4902,-1.7603,-1.9347,0.0,0.0,0.0,0.0,0.0,0.0,0.0,0.0,0.0,0.0,0.0,0.0,0.0,0.0,0.0,0.0,0.0,0.0,0.0,0.0,0.0,0.0,0.0,0.0,0.0,0.0,0.0,0.0,0.0,0.0,0.0,0.0,0.0,0.0,-2.9705,-2.7047,-2.5916,-2.6339,-2.4588,-2.4128,-2.4833,-2.6477,-2.6408,-2.508,-2.6382,-2.6825,-2.6601,-2.6265,-2.5737,-2.5203,-2.5531,-2.5528,-2.5236,-2.468,-2.4738,-2.4934,-2.4328,-2.348,-2.2656,-2.2892,-2.2045,-2.1068,-2.1479,-2.0994,-2.0369,-2.0617,-2.0348,-1.993,-1.98,-1.985,-1.9888,-1.9901,-1.9488,-1.8869,-1.8309,-1.7689,-1.7267,-1.7134,-1.7134,-1.719,-1.7088,-1.7145,-1.7145,-1.7088,-1.6807,-1.6591,-1.6645,-1.6828,-1.6976,-1.7011,-1.6909,-1.6864,-1.6864,-1.64,-1.6046,-1.5931,-1.5235,-1.4951,-1.5254,-1.502,-1.4911,-1.4911,-1.4793,-1.4734,-1.4625,-1.4725,-1.4725,-1.4556,-1.4725,-1.4725,-1.8412,0.0,0.0,0.0,0.0,0.0,0.0,0.0,0.0,0.0,0.0,0.0,0.0,0.0,0.0,0.0,0.0,0.0,0.0,0.0,0.0,0.0,0.0,0.0,0.0,0.0,0.0,0.0,0.0,0.0,0.0,0.0,0.0,0.0,0.0,0.0,-2.7852,-2.542,-2.4401,-2.4773,-2.3163,-2.2874,-2.3827,-2.4937,-2.4874,-2.3957,-2.5207,-2.5722,-2.5697,-2.5446,-2.4975,-2.4402,-2.4679,-2.4646,-2.4357,-2.3811,-2.3733,-2.3772,-2.3147,-2.2298,-2.1527,-2.1655,-2.0962,-2.0197,-2.0502,-2.0087,-1.9572,-1.9817,-1.9561,-1.9131,-1.9055,-1.9044,-1.9056,-1.9004,-1.875,-1.8333,-1.7722,-1.7203,-1.6861,-1.6933,-1.6749,-1.6684,-1.6775,-1.6818,-1.6818,-1.6818,-1.6573,-1.6263,-1.5953,-1.6165,-1.6265,-1.6073,-1.6026,-1.5979,-1.5979,-1.5517,-1.5216,-1.5216,-1.4579,-1.4172,-1.4139,-1.4387,-1.4515,-1.4515,-1.4515,-1.4515,-1.4515,-1.4556,-1.4556,-1.4515,-1.4556,-1.4556,0.0,0.0,0.0,0.0,0.0,0.0,0.0,0.0,0.0,0.0,0.0,0.0,0.0,0.0,0.0,0.0,0.0,0.0,0.0,0.0,0.0,0.0,0.0,0.0,0.0,0.0,0.0,0.0,0.0,0.0,0.0,0.0,0.0,0.0,0.0,0.0,-2.5628,-2.46,-2.4129,0.0,-2.3055,-2.2498,-2.2429,-2.2645,-2.2738,-2.28,-2.3861,-2.4452,-2.4643,-2.4682,-2.4445,-2.4041,-2.3932,-2.377,-2.3537,-2.3141,-2.2801,-2.2375,-2.1525,-2.0915,-2.0316,-1.9693,-1.9351,-1.9189,-1.9112,-1.8885,-1.8701,-1.8753,-1.8576,-1.8351,-1.835,-1.8279,-1.8116,-1.7587,-1.7566,-1.7478,-1.6791,-1.6339,-1.6169,-1.6539,-1.6339,-1.6136,-1.6613,-1.6698,-1.6698,-1.6698,-1.6698,-1.6304,-1.5305,-1.5412,-1.5371,-1.4787,-1.4669,-1.4669,-1.4669,-1.4323,-1.4154,-1.4154,-1.3683,-1.345,-1.345,-1.4079,-1.4446,-1.4446,-1.4446,-1.4446,-1.4515,-1.4515,-1.4515,-1.4515,-1.4515,-1.4515,0.0,0.0,0.0,0.0,0.0,0.0,0.0,0.0,0.0,0.0,0.0,0.0,0.0,0.0,0.0,0.0,0.0,0.0,0.0,0.0,0.0,0.0,0.0,0.0,0.0,0.0,0.0,0.0,0.0,0.0,0.0,0.0,0.0,0.0,0.0,-2.5469,-2.6597,-2.4427,-2.365,0.0,-2.3176,-2.2642,-2.268,-2.3545,-2.4127,-2.4458,-2.445,-2.4073,-2.3493,-2.3732,-2.342,-2.2789,-2.2938,-2.2899,-2.267,-2.1902,-2.1904,-2.2148,-2.1204,-2.0409,-1.9779,-1.9544,-1.8968,-1.8406,-1.878,-1.8384,-1.7958,-1.8359,-1.7787,-1.7003,-1.702,-1.6729,-1.6328,-1.5701,-1.6383,-1.6866,-1.5934,-1.5616,-1.5573,-1.5564,-1.5448,-1.5532,-1.5862,-1.5946,-1.5946,-1.5946,-1.5946,-1.5729,-1.5099,-1.5308,-1.5225,-1.4728,-1.4628,-1.4519,-1.4519,-1.3983,-1.3623,-1.3623,-1.3338,-1.3103,-1.3103,-1.3519,-1.3821,-1.407,-1.4139,-1.4258,-1.4515,-1.4515,-1.4515,-1.4515,-1.4515,-1.4515,0.0,0.0,0.0,0.0,0.0,0.0,0.0,0.0,0.0,0.0,0.0,0.0,0.0,0.0,0.0,0.0,0.0,0.0,0.0,0.0,0.0,0.0,0.0,0.0,0.0,0.0,0.0,0.0,0.0,0.0,0.0,0.0,0.0,0.0,-2.482,-2.4596,-2.5083,-2.3767,-2.3309,-2.3724,-2.3094,-2.2915,-2.313,-2.3138,-2.3419,-2.3871,-2.3539,-2.3259,-2.3063,-2.3099,-2.2728,-2.2168,-2.209,-2.1955,-2.1648,-2.1077,-2.0834,-2.07,-2.0084,-1.9327,-1.8549,-1.8372,-1.7978,-1.7592,-1.7834,-1.7542,-1.7213,-1.7447,-1.6837,-1.6138,-1.6055,-1.5658,-1.5133,-1.4604,-1.5258,-1.589,-1.5342,-1.5017,-1.4923,-1.5091,-1.4852,-1.479,-1.5213,-1.5481,-1.5553,-1.5273,-1.5732,-1.5639,-1.4561,-1.4735,-1.4638,-1.3795,-1.3631,-1.358,-1.358,-1.3277,-1.3094,-1.3094,-1.2928,-1.2805,-1.2805,-1.2981,-1.3277,-1.3761,-1.3941,-1.4079,-1.4258,-1.4258,-1.4327,-1.4515,-1.4327,-1.4327,0.0,0.0,0.0,0.0,0.0,0.0,0.0,0.0,0.0,0.0,0.0,0.0,0.0,0.0,0.0,0.0,0.0,0.0,0.0,0.0,0.0,0.0,0.0,0.0,0.0,0.0,0.0,0.0,0.0,0.0,0.0,0.0,-2.5297,-2.4635,-2.4567,-2.4219,-2.3566,-2.3558,-2.3554,-2.3552,-2.3411,-2.3559,-2.3834,-2.2877,-2.2615,-2.2936,-2.2629,-2.2693,-2.3003,-2.2738,-2.2343,-2.1882,-2.157,-2.1214,-2.0893,-2.0613,-1.998,-1.9192,-1.893,-1.8277,-1.7462,-1.7031,-1.6905,-1.6918,-1.6791,-1.6718,-1.659,-1.6491,-1.5978,-1.5432,-1.5325,-1.4789,-1.4234,-1.3862,-1.4216,-1.4666,-1.4707,-1.4408,-1.4193,-1.4635,-1.4348,-1.4216,-1.4593,-1.4917,-1.5006,-1.4659,-1.53,-1.5268,-1.3835,-1.4037,-1.3872,-1.2744,-1.2621,-1.2621,-1.2621,-1.2621,-1.2621,-1.2621,-1.2621,-1.2621,-1.2621,-1.2621,-1.2858,-1.3329,-1.364,-1.389,-1.401,-1.401,-1.4198,-1.4506,-1.4198,-1.4198,0.0,0.0,0.0,0.0,0.0,0.0,0.0,0.0,0.0,0.0,0.0,0.0,0.0,0.0,0.0,0.0,0.0,0.0,0.0,0.0,0.0,0.0,0.0,0.0,0.0,0.0,0.0,0.0,0.0,0.0,0.0,-2.5574,-2.5541,-2.5442,-2.5495,-2.5463,-2.535,-2.5348,-2.5344,-2.5359,-2.5272,-2.5156,-2.4982,-2.4717,-2.437,-2.3988,-2.3694,-2.3424,-2.3144,-2.2876,-2.2463,-2.1969,-2.1615,-2.1291,-2.0942,-2.0613,-2.007,-1.9361,-1.8841,-1.8185,-1.7476,-1.6795,-1.6565,-1.6522,-1.6362,-1.6287,-1.6244,-1.6244,-1.5549,-1.481,-1.4799,-1.4021,-1.3214,-1.3154,-1.3145,-1.3244,-1.3399,-1.3397,-1.3377,-1.3438,-1.371,-1.3963,-1.4023,-1.3706,-1.3532,-1.3893,-1.3541,-1.3229,-1.296,-1.3212,-1.3208,-1.2683,-1.2621,-1.2621,-1.2621,-1.2621,-1.2621,-1.2621,-1.2621,-1.2621,-1.2621,-1.2621,-1.2621,-1.2744,-1.2981,-1.3407,-1.401,-1.401,-1.4198,-1.4515,-1.4446,-1.4455,0.0,0.0,0.0,0.0,0.0,0.0,0.0,0.0,0.0,0.0,0.0,0.0,0.0,0.0,0.0,0.0,0.0,0.0,0.0,0.0,0.0,0.0,0.0,0.0,0.0,0.0,0.0,0.0,0.0,0.0,-2.5445,-2.5505,-2.5544,-2.5549,-2.5609,-2.5648,-2.5631,-2.5681,-2.5703,-2.5701,-2.5625,-2.5507,-2.5309,-2.5213,-2.4854,-2.4302,-2.4001,-2.3504,-2.295,-2.2695,-2.2164,-2.1491,-2.1275,-2.0975,-2.0613,-2.0139,-1.963,-1.9066,-1.8288,-1.772,-1.7173,-1.6595,-1.6436,-1.6392,-1.6231,-1.6001,-1.5724,-1.5724,-1.4983,-1.4143,-1.4014,-1.342,-1.2822,-1.2725,-1.2725,-1.2725,-1.2803,-1.2949,-1.3094,-1.3152,-1.3312,-1.3343,-1.2986,-1.2957,-1.3025,-1.3113,-1.3148,-1.3094,-1.2966,-1.3039,-1.2964,-1.249,-1.2436,-1.2498,-1.256,-1.2621,-1.2621,-1.2621,-1.2621,-1.2621,-1.2621,-1.2621,-1.2621,-1.2621,-1.2867,-1.3172,-1.3467,-1.364,-1.3821,-1.3941,-1.3941,-1.3821,0.0,0.0,0.0,0.0,0.0,0.0,0.0,0.0,0.0,0.0,0.0,0.0,0.0,0.0,0.0,0.0,0.0,0.0,0.0,0.0,0.0,0.0,0.0,0.0,0.0,0.0,0.0,0.0,0.0,0.0,-2.5393,-2.5448,-2.5472,-2.5478,-2.5543,-2.5576,-2.559,-2.5661,-2.5698,-2.5703,-2.5641,-2.5562,-2.542,-2.5395,-2.5071,-2.4532,-2.4192,-2.3666,-2.301,-2.2643,-2.2,-2.1274,-2.1086,-2.0763,-2.0373,-1.9945,-1.9376,-1.8727,-1.8027,-1.7366,-1.6833,-1.6436,-1.6306,-1.6262,-1.6144,-1.5768,-1.5389,-1.5266,-1.4514,-1.3732,-1.3409,-1.2997,-1.2578,-1.248,-1.2431,-1.2431,-1.248,-1.2715,-1.292,-1.2978,-1.2881,-1.2627,-1.2175,-1.2195,-1.2244,-1.2204,-1.2535,-1.2738,-1.2578,-1.2655,-1.2589,-1.2305,-1.2243,-1.2305,-1.2498,-1.2498,-1.256,-1.2621,-1.2621,-1.2621,-1.2621,-1.2621,-1.2621,-1.2621,-1.2805,-1.292,-1.2989,-1.3155,-1.339,-1.3631,-1.3321,-1.313,0.0,0.0,0.0,0.0,0.0,0.0,0.0,0.0,0.0,0.0,0.0,0.0,0.0,0.0,0.0,0.0,0.0,0.0,0.0,0.0,0.0,0.0,0.0,0.0,0.0,0.0,0.0,0.0,0.0,0.0,-2.5395,-2.5395,-2.5412,-2.5414,-2.5476,-2.5544,-2.5601,-2.5671,-2.5693,-2.5703,-2.5697,-2.5625,-2.5504,-2.5567,-2.5362,-2.495,-2.4614,-2.4191,-2.3684,-2.2979,-2.2361,-2.1799,-2.1228,-2.078,-2.046,-2.0339,-1.9573,-1.8574,-1.8341,-1.7504,-1.6479,-1.6275,-1.6132,-1.6001,-1.5881,-1.5659,-1.5412,-1.504,-1.4387,-1.3721,-1.3304,-1.2745,-1.2323,-1.2323,-1.2224,-1.2175,-1.2431,-1.2529,-1.2578,-1.2676,-1.2323,-1.1977,-1.2076,-1.1226,-1.0641,-1.0923,-1.0837,-1.09,-1.1346,-1.1669,-1.1934,-1.2058,-1.212,-1.2189,-1.2305,-1.2305,-1.2375,-1.256,-1.2621,-1.2621,-1.2621,-1.2621,-1.2621,-1.2621,-1.2621,-1.2744,-1.2989,-1.2674,-1.3033,-1.395,-1.2887,-1.2704,0.0,0.0,0.0,0.0,0.0,0.0,0.0,0.0,0.0,0.0,0.0,0.0,0.0,0.0,0.0,0.0,0.0,0.0,0.0,0.0,0.0,0.0,0.0,0.0,0.0,0.0,0.0,0.0,0.0,0.0,-2.5407,-2.5406,-2.5378,-2.534,-2.5437,-2.5531,-2.56,-2.5613,-2.5662,-2.5709,-2.5707,-2.5679,-2.5624,-2.5605,-2.5527,-2.5374,-2.5078,-2.4401,-2.353,-2.3249,-2.2531,-2.1576,-2.1458,-2.1023,-2.0426,-1.9803,-1.9244,-1.8703,-1.7894,-1.7186,-1.6577,-1.6405,-1.6044,-1.5724,-1.5647,-1.504,-1.4387,-1.4236,-1.3589,-1.289,-1.2706,-1.2461,-1.2274,-1.2175,-1.2126,-1.2126,-1.2224,-1.2382,-1.2529,-1.2578,-1.2224,-1.1828,-1.1528,-1.0863,-1.041,-1.037,-1.0487,-1.0762,-1.1145,-1.1478,-1.1747,-1.1872,-1.1934,-1.1905,-1.1873,-1.2119,-1.2212,-1.2114,-1.2432,-1.2621,-1.2621,-1.2621,-1.2621,-1.2621,-1.2243,-1.212,-1.2236,-1.2305,-1.2297,-1.2097,-1.2035,-1.1856,0.0,0.0,0.0,0.0,0.0,0.0,0.0,0.0,0.0,0.0,0.0,0.0,0.0,0.0,0.0,0.0,0.0,0.0,0.0,0.0,0.0,0.0,0.0,0.0,0.0,0.0,0.0,0.0,0.0,0.0,-2.4899,-2.4946,-2.4811,-2.4466,-2.4563,-2.4774,-2.5084,-2.5121,-2.5294,-2.5629,-2.5639,-2.5632,-2.5664,-2.5611,-2.5584,-2.5559,-2.5378,-2.478,-2.3875,-2.2729,-2.1721,-2.0849,-1.9822,-1.9396,-1.9271,-1.8636,-1.8517,-1.8549,-1.7625,-1.7031,-1.6663,-1.6349,-1.5944,-1.5546,-1.5513,-1.4766,-1.3873,-1.3684,-1.3025,-1.2323,-1.2026,-1.2026,-1.2076,-1.1977,-1.2026,-1.2076,-1.2076,-1.2224,-1.2332,-1.2175,-1.1828,-1.1418,-1.0905,-1.0446,-1.0098,-1.0107,-1.0287,-1.058,-1.1019,-1.1267,-1.1461,-1.1584,-1.168,-1.1675,-1.1517,-1.192,-1.215,-1.1978,-1.2364,-1.2498,-1.2313,-1.2313,-1.2243,-1.2058,-1.174,-1.1428,-1.1303,-1.1553,-1.1483,-1.1163,-1.1115,-1.087,0.0,0.0,0.0,0.0,0.0,0.0,0.0,0.0,0.0,0.0,0.0,0.0,0.0,0.0,0.0,0.0,0.0,0.0,0.0,0.0,0.0,0.0,0.0,0.0,0.0,0.0,0.0,0.0,0.0,-2.4713,-2.3932,-2.4005,-2.3667,-2.2831,-2.286,-2.3269,-2.4056,-2.4126,-2.4594,-2.5463,-2.5443,-2.5474,-2.5554,-2.5535,-2.5498,-2.5464,-2.5468,-2.532,-2.4848,-2.1515,-2.0073,-1.9695,-1.6476,-1.6011,-1.709,-1.6914,-1.7478,-1.8226,-1.7679,-1.7131,-1.6637,-1.6163,-1.5768,-1.5468,-1.5468,-1.4869,-1.4035,-1.3362,-1.2686,-1.2058,-1.1469,-1.1528,-1.1728,-1.1728,-1.1877,-1.2076,-1.2076,-1.2076,-1.1927,-1.1578,-1.1175,-1.0761,-1.0269,-0.9865,-0.9724,-1.0038,-1.0089,-1.0331,-1.0967,-1.1055,-1.1122,-1.1122,-1.1402,-1.1461,-1.1309,-1.1783,-1.2104,-1.2274,-1.2482,-1.2375,-1.1864,-1.1809,-1.1553,-1.1052,-1.0982,-1.0737,-1.0301,-1.0421,-1.085,-1.1392,-1.0295,-0.9676,-1.6639,0.0,0.0,0.0,0.0,0.0,0.0,0.0,0.0,0.0,0.0,0.0,0.0,0.0,0.0,0.0,0.0,0.0,0.0,0.0,0.0,0.0,0.0,0.0,0.0,0.0,0.0,0.0,-2.3833,-2.3954,-2.3828,-2.337,-2.3007,-2.2814,-2.2831,-2.2923,-2.3165,-2.318,-2.3676,-2.4623,-2.4,-2.4064,-2.4713,-2.4029,-2.4078,-2.4694,-2.4649,-2.4979,-2.5437,-2.4206,-2.2227,-1.9907,-1.899,-1.8062,-1.7209,-1.6779,-1.737,-1.8277,-1.7557,-1.7018,-1.6625,-1.6064,-1.5534,-1.5153,-1.4971,-1.4107,-1.315,-1.2957,-1.2236,-1.1519,-1.1326,-1.1528,-1.1728,-1.1728,-1.1628,-1.1528,-1.1528,-1.12,-1.099,-1.1267,-1.1015,-1.0549,-1.0123,-0.971,-0.9546,-0.9686,-0.995,-1.0163,-1.0346,-1.0572,-1.0719,-1.0719,-1.0799,-1.0784,-1.0453,-1.1122,-1.1525,-1.1457,-1.2033,-1.2375,-1.2375,-1.1996,-1.174,-1.1553,-1.0863,-1.0428,-1.0301,-1.0364,-1.0238,-1.004,-0.9862,-0.974,0.0,0.0,0.0,0.0,0.0,0.0,0.0,0.0,0.0,0.0,0.0,0.0,0.0,0.0,0.0,0.0,0.0,0.0,0.0,0.0,0.0,0.0,0.0,0.0,0.0,0.0,0.0,-2.2335,-2.2764,-2.295,-2.2764,-2.1998,-2.1618,-2.1711,-2.1711,-2.1882,-2.226,-2.2224,-2.2709,-2.3711,-2.3166,-2.3234,-2.3805,-2.3595,-2.38,-2.4339,-2.4682,-2.5141,-2.5637,-2.5434,-2.3526,-2.0494,-1.8263,-1.7432,-1.7311,-1.5701,-1.6342,-1.7881,-1.7076,-1.6625,-1.6238,-1.5756,-1.5277,-1.4846,-1.4708,-1.3789,-1.2764,-1.2667,-1.1841,-1.0972,-1.0972,-1.1226,-1.1519,-1.1519,-1.1418,-1.1326,-1.1326,-1.0846,-1.0423,-1.0592,-1.0438,-1.0131,-0.9666,-0.9465,-0.9413,-0.9517,-0.9722,-0.9943,-1.0082,-1.0265,-1.0382,-1.0382,-1.0507,-1.0514,-1.0324,-1.0894,-1.1346,-1.1411,-1.1776,-1.1934,-1.1872,-1.1428,-1.1052,-1.0863,-1.0238,-0.9989,-0.9989,-0.9989,-0.9798,-0.9484,-0.9612,-0.9676,0.0,0.0,0.0,0.0,0.0,0.0,-1.8293,-1.7478,0.0,0.0,0.0,0.0,0.0,0.0,0.0,0.0,0.0,0.0,0.0,0.0,0.0,0.0,0.0,0.0,0.0,0.0,-2.0756,-2.0704,-2.154,-2.1776,-2.113,-2.0391,-2.0041,-2.0171,-2.018,-2.0572,-2.1349,-2.1311,-2.1765,-2.2753,-2.2593,-2.2629,-2.2882,-2.3508,-2.3883,-2.4101,-2.4953,-2.5426,-2.5613,-2.5677,-2.4127,-2.1202,-1.6135,-1.5631,-1.7446,-1.4389,-1.5035,-1.731,-1.6625,-1.6139,-1.5756,-1.5379,-1.4949,-1.4581,-1.4581,-1.3695,-1.2667,-1.2325,-1.1392,-1.0522,-1.0522,-1.0922,-1.1276,-1.1226,-1.1217,-1.1167,-1.1116,-1.0635,-1.0064,-0.9614,-0.9666,-0.9614,-0.9113,-0.9211,-0.9361,-0.9413,-0.951,-0.9716,-1.0009,-1.0046,-1.0046,-1.0046,-1.0309,-1.0477,-1.0477,-1.0835,-1.1219,-1.1613,-1.1487,-1.1267,-1.0863,-1.0491,-1.0053,-0.9612,-0.9548,-0.9484,-0.9484,-0.9484,-0.9484,-0.9484,-0.9484,-0.9484,0.0,-1.8936,-1.8935,0.0,0.0,0.0,0.0,-1.6627,0.0,0.0,0.0,0.0,0.0,0.0,0.0,0.0,0.0,0.0,0.0,0.0,0.0,0.0,0.0,0.0,0.0,-2.0274,-2.0704,-2.0704,-2.0927,-2.0723,-1.9886,-1.9884,-1.995,-2.0039,-2.0136,-2.0277,-2.045,-2.0441,-2.0919,-2.1856,-2.1135,-2.1197,-2.1935,-2.139,-2.1913,-2.3245,-2.3422,-2.4331,-2.5681,-2.5689,-2.412,-2.1382,-1.8153,-1.7289,-1.7481,-1.4705,-1.5269,-1.7365,-1.6947,-1.6367,-1.57,-1.5175,-1.4789,-1.4581,-1.4326,-1.3447,-1.2267,-1.115,-1.0667,-1.0522,-1.0522,-1.0922,-1.1167,-1.071,-1.0592,-1.0474,-1.0028,-0.9517,-0.9061,-0.8956,-0.9309,-0.951,-0.9211,-0.9211,-0.9309,-0.951,-0.9562,-0.9636,-0.9702,-0.9709,-0.9709,-0.9709,-0.9768,-0.9804,-0.9804,-0.9714,-0.9974,-1.0574,-1.0421,-1.0486,-1.0912,-1.0555,-1.0244,-1.018,-0.974,-0.9484,-0.9484,-0.9484,-0.9484,-0.9484,-0.9484,-0.9484,0.0,0.0,-1.9757,-1.9759,0.0,0.0,0.0,0.0,0.0,0.0,0.0,0.0,0.0,0.0,0.0,0.0,0.0,0.0,0.0,0.0,0.0,0.0,0.0,0.0,0.0,-1.9263,-1.967,-2.0082,-2.01,-1.9926,-1.9569,-1.9701,-1.9851,-1.9947,-2.0079,-2.0183,-2.0192,-2.0183,-2.0425,-2.0959,-2.0508,-2.0571,-2.1058,-2.1043,-2.1746,-2.2984,-2.344,-2.4394,-2.5605,-2.5679,-2.4917,-2.3301,-1.9272,-1.8559,-1.9269,-1.4893,-1.4902,-1.7031,-1.625,-1.5668,-1.5152,-1.4617,-1.4362,-1.4197,-1.3647,-1.2706,-1.1625,-1.0761,-1.0522,-1.0522,-1.0522,-1.082,-1.0964,-1.0506,-1.0285,-1.0115,-0.9666,-0.9159,-0.8804,-0.8804,-0.9008,-0.9159,-0.9106,-0.9159,-0.9263,-0.9465,-0.9562,-0.9614,-0.9614,-0.9614,-0.9614,-0.9614,-0.9614,-0.968,-0.9841,-0.9605,-0.9744,-1.0397,-1.0032,-0.995,-1.0478,-1.011,-0.9926,-0.9926,-0.9612,-0.9484,-0.9484,-0.9484,-0.9484,-0.9484,-0.9484,-0.9484,0.0,0.0,0.0,0.0,0.0,-1.9604,0.0,0.0,0.0,-1.8557,0.0,0.0,0.0,0.0,0.0,0.0,0.0,0.0,0.0,0.0,0.0,0.0,0.0,0.0,0.0,-1.8254,-1.8606,-1.9427,-1.9291,-1.928,-1.9569,-1.9669,-1.9762,-1.9907,-2.004,-2.0126,-2.0183,-2.0126,-2.0152,-2.0277,-2.03,-2.033,-2.0418,-2.1121,-2.1978,-2.2946,-2.3702,-2.461,-2.5526,-2.5629,-2.5689,-2.5175,-1.9792,-1.9375,-2.1061,-1.5004,-1.4563,-1.6748,-1.5591,-1.4994,-1.4617,-1.4154,-1.3894,-1.3621,-1.2764,-1.1864,-1.1124,-1.0608,-1.0522,-1.0522,-1.0573,-1.0718,-1.082,-1.0395,-1.0182,-0.9917,-0.951,-0.9113,-0.8811,-0.8857,-0.8857,-0.8857,-0.9008,-0.9113,-0.9263,-0.9413,-0.951,-0.9562,-0.9458,-0.9562,-0.9562,-0.9458,-0.9562,-0.9671,-0.9825,-0.9527,-0.9595,-1.018,-0.9618,-0.9479,-0.9856,-0.967,-0.9484,-0.9484,-0.9484,-0.9484,-0.9484,-0.9484,-0.9484,-0.9484,-0.9484,-0.9484,0.0,0.0,0.0,0.0,-1.9848,0.0,0.0,0.0,-1.9566,-1.8227,0.0,0.0,0.0,0.0,0.0,0.0,0.0,0.0,0.0,0.0,0.0,0.0,0.0,0.0,0.0,0.0,-1.8545,-1.935,-1.8695,-1.8609,-1.9481,-1.9638,-1.9762,-1.9907,-2.004,-2.0098,-2.0117,-2.0098,-2.0143,-2.0215,-2.0273,-2.033,-2.0399,-2.0495,-2.1411,-2.29,-2.301,-2.4016,-2.5598,-2.554,-2.5599,-2.5166,-1.9789,-1.9375,-2.1101,-1.5265,-1.4756,-1.6778,-1.5864,-1.5186,-1.4617,-1.4154,-1.3542,-1.2764,-1.1715,-1.1316,-1.1124,-1.0608,-1.0522,-1.0565,-1.0769,-1.0871,-1.0761,-1.0174,-1.0012,-0.9814,-0.9061,-0.8857,-0.8857,-0.8956,-0.8956,-0.9008,-0.9159,-0.9211,-0.9263,-0.9562,-0.9614,-0.9406,-0.8928,-0.9302,-0.9406,-0.8935,-0.9302,-0.942,-0.8983,-0.8705,-0.8631,-0.8928,-0.8628,-0.8792,-0.9524,-0.9548,-0.9484,-0.9484,-0.9484,-0.9484,-0.9484,-0.9484,-0.9484,-0.9484,-0.9484,-0.9484,0.0,0.0,0.0,0.0,0.0,0.0,0.0,0.0,-1.8259,0.0,0.0,0.0,0.0,0.0,0.0,0.0,0.0,0.0,0.0,0.0,0.0,0.0,0.0,0.0,0.0,0.0,0.0,0.0,0.0,-1.8676,-1.9632,-1.9755,-1.9832,-1.9907,-2.004,-2.0088,-2.0088,-2.0088,-2.0116,-2.0133,-2.0254,-2.0311,-2.0337,-2.0386,-2.1062,-2.223,-2.2739,-2.3678,-2.489,-2.5398,-2.5654,-2.5174,-1.9791,-1.8684,-1.9534,-1.4708,-1.3678,-1.4778,-1.4835,-1.4606,-1.4201,-1.3789,-1.2909,-1.1972,-1.1832,-1.1342,-1.0804,-1.0913,-1.0972,-1.0922,-1.0659,-1.0608,-1.0454,-0.9725,-0.951,-0.9413,-0.891,-0.8804,-0.8857,-0.8956,-0.9008,-0.9061,-0.9263,-0.9309,-0.9361,-0.9562,-0.9354,-0.9033,-0.883,-0.8666,-0.8508,-0.8296,-0.8455,-0.8685,-0.8808,-0.8472,-0.8558,-0.9191,-0.9058,-0.9119,-0.9472,-0.9484,-0.9484,-0.9484,-0.9484,-0.9484,-0.9484,-0.9484,-0.9484,-0.9484,-0.9484,-0.9484,-2.0238,0.0,0.0,0.0,0.0,0.0,0.0,0.0,0.0,0.0,0.0,0.0,0.0,0.0,0.0,0.0,0.0,0.0,0.0,0.0,0.0,0.0,0.0,0.0,0.0,0.0,0.0,0.0,0.0,0.0,-1.9775,-1.9866,-1.9928,-1.996,-2.005,-2.0088,-2.0088,-2.0088,-2.0107,-2.0134,-2.025,-2.0313,-2.0325,-2.0385,-2.0886,-2.174,-2.2619,-2.3485,-2.4375,-2.5288,-2.5254,-2.4136,-1.9482,-1.74,-1.6623,-1.376,-1.2829,-1.3148,-1.4007,-1.3967,-1.3447,-1.3054,-1.2218,-1.1375,-1.1651,-1.1217,-1.0769,-1.1175,-1.1167,-1.0964,-1.0608,-1.0344,-1.0035,-0.9465,-0.9263,-0.9159,-0.891,-0.891,-0.8962,-0.9061,-0.9113,-0.9159,-0.9413,-0.9413,-0.9465,-0.9562,-0.9145,-0.8725,-0.8567,-0.819,-0.7818,-0.7717,-0.7818,-0.8063,-0.8428,-0.8226,-0.848,-0.9313,-0.9407,-0.9406,-0.9478,-0.9484,-0.9484,-0.9484,-0.9484,-0.9484,-0.9484,-0.9484,-0.9484,-0.9484,-0.9484,-0.9484,0.0,0.0,0.0,-1.8285,0.0,0.0,0.0,0.0,-2.0233,0.0,0.0,0.0,0.0,0.0,0.0,0.0,0.0,0.0,0.0,0.0,0.0,0.0,0.0,0.0,0.0,0.0,0.0,0.0,0.0,0.0,-1.9801,-1.9907,-1.996,-2.0088,-2.0088,-2.0088,-2.0088,-2.0088,-2.0143,-2.0208,-2.0272,-2.0334,-2.0408,-2.0394,-2.0878,-2.1751,-2.2624,-2.3484,-2.4365,-2.5249,-2.4112,-2.1558,-1.8704,-1.5375,-1.2173,-1.2573,-1.2686,-1.2797,-1.3903,-1.3399,-1.2197,-1.1774,-1.1434,-1.1099,-1.0667,-1.082,-1.1124,-1.1276,-1.0863,-1.0506,-1.082,-1.0241,-0.9614,-0.9614,-0.9465,-0.9309,-0.9061,-0.9106,-0.9211,-0.9361,-0.9361,-0.9413,-0.9562,-0.9465,-0.9465,-0.9562,-0.9145,-0.8613,-0.7978,-0.7925,-0.7711,-0.7192,-0.761,-0.783,-0.7586,-0.7794,-0.8123,-0.8715,-0.8993,-0.9202,-0.9472,-0.9484,-0.9484,-0.9484,-0.9484,-0.9484,-0.9484,-0.9484,-0.9484,-0.9484,-0.9484,-0.9484,0.0,0.0,-2.0055,-1.8993,0.0,0.0,0.0,0.0,0.0,0.0,0.0,0.0,0.0,0.0,0.0,0.0,0.0,0.0,0.0,0.0,0.0,0.0,0.0,0.0,0.0,0.0,0.0,0.0,0.0,0.0,0.0,-2.0079,-2.0069,-2.0155,-2.0117,-2.0088,-2.0088,-2.0133,-2.0184,-2.0188,-2.0314,-2.0385,-2.039,-2.0456,-2.06,-2.0922,-2.2422,-2.2201,-2.0908,-2.2395,-2.1227,-1.8217,-1.5926,-1.3531,-1.1428,-1.1743,-1.1098,-1.0404,-1.2101,-1.2197,-1.1551,-1.1551,-1.12,-1.0804,-1.0871,-1.0972,-1.1175,-1.1477,-1.1619,-1.1519,-1.0863,-1.0549,-1.0233,-0.9517,-0.9309,-0.9263,-0.9159,-0.9159,-0.9263,-0.9361,-0.9413,-0.9465,-0.9562,-0.9562,-0.9406,-0.9145,-0.856,-0.7978,-0.745,-0.7025,-0.6707,-0.6549,-0.6869,-0.7193,-0.7467,-0.8084,-0.8555,-0.8969,-0.9077,-0.919,-0.9472,-0.9484,-0.9484,-0.9484,-0.9484,-0.9484,-0.9484,-0.9484,-0.9484,-0.9484,-0.9484,-0.9484,-2.0301,-2.0299,0.0,-1.9342,-1.8765,0.0,-1.7357,0.0,0.0,0.0,0.0,0.0,0.0,0.0,0.0,0.0,0.0,0.0,0.0,0.0,0.0,0.0,0.0,0.0,0.0,0.0,-1.5773,-1.7653,0.0,0.0,0.0,0.0,-2.018,-2.0209,-2.0162,-2.0152,-2.0167,-2.0204,-2.0262,-2.0314,-2.037,-2.0422,-2.0476,-2.0497,-2.0455,-2.0481,-2.1894,-2.1632,-2.0262,-2.0653,-1.9175,-1.641,-1.4012,-1.1714,-0.9798,-1.0982,-1.0839,-1.0214,-1.1392,-1.141,-1.0956,-1.1099,-1.0905,-1.0608,-1.082,-1.1074,-1.1377,-1.1628,-1.1719,-1.1519,-1.0863,-1.0446,-1.0079,-0.9465,-0.9316,-0.9316,-0.9368,-0.9368,-0.9368,-0.9524,-0.9517,-0.9458,-0.9354,-0.9302,-0.9197,-0.883,-0.8296,-0.7717,-0.7187,-0.6554,-0.6178,-0.6178,-0.6495,-0.6926,-0.7461,-0.8072,-0.8513,-0.8777,-0.8878,-0.9046,-0.9322,-0.943,-0.9484,-0.9484,-0.9484,-0.9484,-0.9484,-0.9484,-0.9484,-0.9484,-0.9484,-0.9484]},{"header":{"parameterUnit":"m.s-1","parameterCategory":1,"la1":30.6,"la2":29.2853,"lo1":-89.7004,"lo2":-87.6739,"dy":0.0162,"dx":0.0183,"nx":112,"ny":82,"refTime":"2024-08-10T00:00:00:Z","depth":0,"parameterNumber":3,"parameterNumberName":"V-component_of_WINDS"},"data":[0.0,0.0,0.0,0.0,0.0,0.0,0.0,0.0,0.0,0.0,0.0,0.0,0.0,0.0,0.0,0.0,0.0,0.0,0.0,0.0,0.0,0.0,0.0,0.0,0.0,0.0,0.0,0.0,0.0,0.0,0.0,0.0,0.0,0.0,0.0,0.0,0.0,0.0,0.0,0.0,0.0,0.0,0.0,0.0,0.0,0.0,0.0,0.0,0.0,0.0,0.0,0.0,0.0,0.0,0.0,0.0,0.0,0.0,0.0,0.0,0.0,0.0,0.0,0.0,0.0,0.0,0.0,0.0,0.0,0.0,0.0,0.0,0.0,0.0,0.0,0.0,0.0,0.0,0.0,0.0,0.0,0.0,0.0,0.0,0.0,0.0,0.0,0.0,0.0,0.0,0.0,-1.9384,-2.18,-2.3629,-2.404,-2.4468,-2.396,-2.2141,0.0,0.0,0.0,0.0,0.0,0.0,0.0,0.0,0.0,0.0,0.0,0.0,0.0,0.0,0.0,0.0,0.0,0.0,0.0,0.0,0.0,0.0,0.0,0.0,0.0,0.0,0.0,0.0,0.0,0.0,0.0,0.0,0.0,0.0,0.0,0.0,0.0,0.0,0.0,0.0,0.0,0.0,0.0,0.0,0.0,0.0,0.0,0.0,0.0,0.0,0.0,0.0,0.0,0.0,0.0,0.0,0.0,0.0,0.0,0.0,0.0,0.0,0.0,0.0,0.0,0.0,0.0,0.0,0.0,0.0,0.0,0.0,0.0,0.0,0.0,0.0,0.0,0.0,0.0,0.0,0.0,0.0,0.0,0.0,0.0,0.0,0.0,0.0,0.0,0.0,0.0,0.0,0.0,0.0,0.0,0.0,0.0,0.0,0.0,0.0,0.0,0.0,0.0,0.0,-1.8329,-2.0266,-2.1997,-2.3019,-2.2831,-2.3489,-2.324,-2.1461,0.0,0.0,0.0,0.0,0.0,0.0,0.0,0.0,0.0,0.0,0.0,0.0,0.0,0.0,0.0,0.0,0.0,0.0,0.0,0.0,0.0,0.0,0.0,0.0,0.0,0.0,0.0,0.0,0.0,0.0,0.0,0.0,0.0,0.0,0.0,0.0,0.0,0.0,0.0,0.0,0.0,0.0,0.0,0.0,0.0,0.0,0.0,0.0,0.0,0.0,0.0,0.0,0.0,0.0,0.0,0.0,0.0,0.0,0.0,0.0,0.0,0.0,0.0,0.0,0.0,0.0,0.0,0.0,0.0,0.0,0.0,0.0,0.0,0.0,0.0,0.0,0.0,0.0,0.0,0.0,0.0,0.0,0.0,0.0,0.0,0.0,0.0,0.0,0.0,0.0,0.0,0.0,0.0,0.0,0.0,0.0,0.0,0.0,0.0,0.0,0.0,0.0,0.0,-1.7464,-1.8417,-2.0996,-2.1898,-2.2357,-2.2435,-2.2699,-2.2265,-2.0804,-2.1218,0.0,0.0,0.0,0.0,0.0,0.0,0.0,0.0,0.0,0.0,0.0,0.0,0.0,0.0,0.0,0.0,0.0,0.0,0.0,0.0,0.0,0.0,0.0,0.0,0.0,0.0,0.0,0.0,0.0,0.0,0.0,0.0,0.0,0.0,0.0,0.0,0.0,0.0,0.0,0.0,0.0,0.0,0.0,0.0,0.0,0.0,0.0,0.0,0.0,0.0,0.0,0.0,0.0,0.0,0.0,0.0,0.0,0.0,0.0,0.0,0.0,0.0,0.0,0.0,0.0,0.0,0.0,0.0,0.0,0.0,0.0,0.0,0.0,0.0,0.0,0.0,0.0,0.0,0.0,0.0,0.0,0.0,0.0,0.0,0.0,0.0,0.0,0.0,0.0,0.0,0.0,0.0,0.0,0.0,0.0,0.0,0.0,0.0,0.0,0.0,0.0,0.0,-1.7901,-1.8881,-2.1287,-2.1628,-2.1827,-2.2177,-2.1802,-2.1129,-2.0306,-2.0539,0.0,0.0,0.0,0.0,0.0,0.0,0.0,0.0,0.0,0.0,0.0,0.0,0.0,0.0,0.0,0.0,0.0,0.0,0.0,0.0,0.0,0.0,0.0,0.0,0.0,0.0,0.0,0.0,0.0,0.0,0.0,0.0,0.0,0.0,0.0,0.0,0.0,0.0,0.0,0.0,0.0,0.0,0.0,0.0,0.0,0.0,0.0,0.0,0.0,0.0,0.0,0.0,0.0,0.0,0.0,0.0,0.0,0.0,0.0,0.0,0.0,0.0,0.0,0.0,0.0,0.0,0.0,0.0,0.0,0.0,0.0,0.0,0.0,0.0,0.0,0.0,0.0,0.0,0.0,0.0,0.0,0.0,0.0,0.0,0.0,0.0,0.0,0.0,0.0,0.0,0.0,0.0,0.0,0.0,0.0,0.0,0.0,0.0,0.0,0.0,0.0,0.0,-1.807,-1.9887,-2.0875,-2.1393,-2.1685,-2.1668,-2.0502,-1.9851,-2.0091,-1.9308,0.0,0.0,0.0,0.0,0.0,0.0,0.0,0.0,0.0,0.0,0.0,0.0,0.0,0.0,0.0,0.0,0.0,0.0,0.0,0.0,0.0,0.0,0.0,0.0,0.0,0.0,0.0,0.0,0.0,0.0,0.0,0.0,0.0,0.0,0.0,0.0,0.0,0.0,0.0,0.0,0.0,0.0,0.0,0.0,0.0,0.0,0.0,0.0,0.0,0.0,0.0,0.0,0.0,0.0,0.0,0.0,0.0,0.0,0.0,0.0,0.0,0.0,0.0,0.0,0.0,0.0,0.0,0.0,0.0,0.0,0.0,0.0,0.0,0.0,0.0,0.0,0.0,0.0,0.0,0.0,0.0,0.0,0.0,0.0,0.0,0.0,0.0,0.0,0.0,0.0,0.0,0.0,0.0,0.0,0.0,0.0,0.0,0.0,0.0,0.0,0.0,0.0,-1.6979,-1.8444,0.0,-2.0582,-2.076,-2.0981,-2.0074,-1.9396,-1.9123,0.0,0.0,0.0,0.0,0.0,0.0,0.0,0.0,0.0,0.0,0.0,0.0,0.0,0.0,0.0,0.0,0.0,0.0,0.0,0.0,0.0,0.0,0.0,0.0,0.0,0.0,0.0,0.0,0.0,0.0,0.0,0.0,0.0,0.0,0.0,0.0,0.0,0.0,0.0,0.0,0.0,0.0,0.0,0.0,0.0,0.0,0.0,0.0,0.0,0.0,0.0,0.0,0.0,0.0,0.0,0.0,0.0,0.0,0.0,0.0,0.0,0.0,0.0,0.0,0.0,0.0,0.0,0.0,0.0,0.0,0.0,0.0,0.0,0.0,0.0,0.0,0.0,0.0,0.0,0.0,0.0,0.0,0.0,0.0,0.0,0.0,0.0,0.0,0.0,0.0,0.0,0.0,0.0,0.0,0.0,0.0,0.0,0.0,0.0,0.0,0.0,0.0,-1.5499,-1.6732,-1.8061,0.0,-2.0179,-2.0445,-2.0572,-1.9682,-1.898,-1.8708,0.0,0.0,0.0,0.0,0.0,0.0,0.0,0.0,0.0,0.0,0.0,0.0,0.0,0.0,0.0,0.0,0.0,0.0,0.0,0.0,0.0,0.0,0.0,0.0,0.0,0.0,0.0,0.0,0.0,0.0,0.0,0.0,0.0,0.0,0.0,0.0,0.0,0.0,0.0,0.0,0.0,0.0,0.0,0.0,0.0,0.0,0.0,0.0,0.0,0.0,0.0,0.0,0.0,0.0,0.0,0.0,0.0,0.0,0.0,0.0,0.0,0.0,0.0,0.0,0.0,0.0,0.0,0.0,0.0,0.0,0.0,0.0,0.0,0.0,0.0,0.0,0.0,0.0,0.0,0.0,0.0,0.0,0.0,0.0,0.0,0.0,0.0,0.0,0.0,0.0,0.0,0.0,0.0,0.0,0.0,0.0,0.0,0.0,0.0,0.0,0.0,0.0,-1.5173,-1.7615,-1.9221,-1.9424,-2.0394,-2.0971,-2.0611,-1.9244,-1.8623,0.0,0.0,0.0,0.0,0.0,0.0,0.0,0.0,0.0,0.0,0.0,0.0,0.0,0.0,0.0,0.0,0.0,0.0,0.0,0.0,0.0,0.0,0.0,0.0,0.0,0.0,0.0,0.0,0.0,0.0,0.0,0.0,0.0,0.0,0.0,0.0,0.0,0.0,0.0,0.0,0.0,0.0,0.0,0.0,0.0,0.0,0.0,0.0,0.0,0.0,0.0,0.0,0.0,0.0,0.0,0.0,0.0,0.0,0.0,0.0,0.0,0.0,0.0,0.0,0.0,0.0,0.0,0.0,0.0,0.0,0.0,0.0,0.0,0.0,0.0,0.0,0.0,0.0,0.0,0.0,0.0,0.0,0.0,0.0,0.0,0.0,0.0,0.0,0.0,0.0,0.0,0.0,0.0,0.0,0.0,0.0,0.0,0.0,0.0,0.0,0.0,0.0,0.0,-1.6143,-1.7727,-1.9081,-1.9976,-2.0423,-2.0656,-2.0706,-1.9643,-1.8808,-1.8491,0.0,0.0,0.0,0.0,0.0,0.0,0.0,0.0,0.0,0.0,0.0,0.0,0.0,0.0,0.0,0.0,0.0,0.0,0.0,0.0,0.0,0.0,0.0,0.0,0.0,0.0,0.0,0.0,0.0,0.0,0.0,0.0,0.0,0.0,0.0,0.0,0.0,0.0,0.0,0.0,0.0,0.0,0.0,0.0,0.0,0.0,0.0,0.0,0.0,0.0,0.0,0.0,0.0,0.0,0.0,0.0,0.0,0.0,0.0,0.0,0.0,0.0,0.0,0.0,0.0,0.0,0.0,0.0,0.0,0.0,0.0,0.0,0.0,0.0,0.0,0.0,0.0,0.0,0.0,0.0,0.0,0.0,0.0,0.0,0.0,0.0,0.0,0.0,0.0,0.0,0.0,0.0,0.0,0.0,0.0,0.0,0.0,0.0,0.0,0.0,0.0,0.0,-1.6597,-1.8065,-1.9256,-2.0304,-2.0633,-2.0894,-2.1104,-2.0113,-1.9328,-1.8883,0.0,0.0,0.0,0.0,0.0,0.0,0.0,0.0,0.0,0.0,0.0,0.0,0.0,0.0,0.0,0.0,0.0,0.0,0.0,0.0,0.0,0.0,0.0,0.0,0.0,0.0,0.0,0.0,0.0,0.0,0.0,0.0,0.0,0.0,0.0,0.0,0.0,0.0,0.0,0.0,0.0,0.0,0.0,0.0,0.0,0.0,0.0,0.0,0.0,0.0,0.0,0.0,0.0,0.0,0.0,0.0,0.0,0.0,0.0,0.0,0.0,0.0,0.0,0.0,0.0,0.0,0.0,0.0,0.0,0.0,0.0,0.0,0.0,0.0,0.0,0.0,0.0,0.0,0.0,0.0,0.0,0.0,0.0,0.0,0.0,0.0,0.0,0.0,0.0,0.0,0.0,0.0,0.0,0.0,0.0,0.0,0.0,0.0,0.0,0.0,0.0,0.0,-1.6963,-1.8639,-1.9892,-2.0502,-2.1104,-2.152,-2.1664,-2.0671,-2.0034,-1.9933,0.0,0.0,0.0,0.0,0.0,0.0,0.0,0.0,0.0,0.0,0.0,0.0,0.0,0.0,0.0,0.0,0.0,0.0,0.0,0.0,0.0,0.0,0.0,0.0,0.0,0.0,0.0,0.0,0.0,0.0,0.0,0.0,0.0,0.0,0.0,0.0,0.0,0.0,0.0,0.0,0.0,0.0,0.0,0.0,0.0,0.0,0.0,0.0,0.0,0.0,0.0,0.0,0.0,0.0,0.0,0.0,0.0,0.0,0.0,0.0,-1.2429,0.0,0.0,0.0,0.0,0.0,0.0,0.0,0.0,0.0,0.0,0.0,0.0,0.0,0.0,0.0,0.0,0.0,0.0,0.0,0.0,0.0,0.0,0.0,0.0,0.0,0.0,0.0,0.0,0.0,0.0,0.0,0.0,0.0,0.0,0.0,0.0,0.0,0.0,0.0,0.0,0.0,-1.87,-2.0073,-2.1161,-2.1744,-2.1935,-2.2137,-2.237,-2.1676,-2.0941,-2.0171,0.0,0.0,0.0,0.0,0.0,0.0,0.0,0.0,0.0,0.0,0.0,0.0,0.0,0.0,0.0,0.0,0.0,0.0,0.0,0.0,0.0,0.0,0.0,0.0,0.0,0.0,0.0,0.0,0.0,0.0,0.0,0.0,0.0,0.0,0.0,0.0,0.0,0.0,0.0,0.0,0.0,0.0,0.0,0.0,0.0,0.0,0.0,0.0,0.0,0.0,0.0,0.0,0.0,0.0,0.0,0.0,0.0,0.0,0.0,0.0,0.0,-1.3368,0.0,0.0,0.0,0.0,0.0,0.0,0.0,0.0,0.0,0.0,0.0,0.0,0.0,0.0,0.0,0.0,0.0,0.0,0.0,0.0,0.0,0.0,0.0,0.0,0.0,0.0,0.0,0.0,0.0,0.0,0.0,0.0,0.0,0.0,0.0,0.0,0.0,0.0,0.0,0.0,-1.9193,-2.0512,-2.1541,-2.2114,-2.2184,-2.2324,-2.2555,-2.1998,-2.1442,-2.1073,-2.0006,0.0,0.0,0.0,0.0,0.0,0.0,0.0,0.0,0.0,0.0,0.0,0.0,0.0,0.0,0.0,0.0,0.0,0.0,0.0,0.0,0.0,0.0,0.0,0.0,0.0,0.0,0.0,0.0,0.0,0.0,0.0,0.0,0.0,0.0,0.0,0.0,0.0,0.0,0.0,0.0,0.0,0.0,0.0,0.0,0.0,0.0,0.0,0.0,0.0,0.0,0.0,0.0,0.0,-1.5295,-1.5496,-1.5625,-1.5625,-1.5625,-1.5588,-1.5041,-1.4846,-1.4821,0.0,0.0,0.0,0.0,0.0,0.0,0.0,0.0,0.0,0.0,0.0,0.0,0.0,0.0,0.0,0.0,0.0,0.0,0.0,0.0,0.0,0.0,0.0,0.0,0.0,-1.8892,-1.8617,0.0,0.0,0.0,0.0,0.0,0.0,0.0,0.0,0.0,0.0,0.0,0.0,-1.9362,-2.0667,-2.1668,-2.2128,-2.2231,-2.2324,-2.2555,-2.2098,-2.1887,-2.1989,-2.0695,-1.987,0.0,0.0,0.0,0.0,0.0,0.0,0.0,0.0,0.0,0.0,0.0,0.0,0.0,0.0,0.0,0.0,0.0,0.0,0.0,0.0,0.0,0.0,0.0,0.0,0.0,0.0,0.0,0.0,0.0,0.0,0.0,0.0,-0.583,-0.5821,0.0,0.0,0.0,0.0,0.0,0.0,0.0,0.0,0.0,0.0,0.0,0.0,0.0,0.0,-1.4806,-1.5851,-1.641,-1.6601,-1.7314,-1.7652,-1.7724,-1.7724,-1.7724,-1.7724,-1.7614,0.0,-1.5463,-1.5126,0.0,0.0,0.0,0.0,0.0,0.0,0.0,0.0,0.0,0.0,0.0,0.0,0.0,0.0,0.0,0.0,0.0,0.0,0.0,0.0,0.0,0.0,-1.9874,-2.0213,-2.0213,-2.0103,0.0,-1.8937,-1.7847,-1.7046,0.0,0.0,0.0,0.0,0.0,0.0,0.0,0.0,-2.0245,-2.1327,-2.2086,-2.217,-2.2324,-2.2417,-2.2615,-2.2618,-2.2465,-2.2133,-2.1982,-2.1724,-2.1243,-2.0721,0.0,0.0,0.0,0.0,0.0,0.0,0.0,0.0,0.0,0.0,0.0,0.0,0.0,0.0,0.0,0.0,0.0,0.0,0.0,0.0,0.0,0.0,0.0,0.0,0.0,0.0,0.0,0.0,0.0,-0.5546,-0.6379,-0.6515,-0.7453,-0.8146,0.0,0.0,0.0,0.0,0.0,0.0,0.0,0.0,0.0,-1.4306,-1.5103,-1.5765,-1.6234,-1.7089,-1.7551,-1.7761,-1.8199,-1.8458,-1.8458,-1.8458,-1.833,-1.8128,-1.8128,-1.7759,-1.7135,-1.6693,-1.6286,-1.5836,0.0,0.0,0.0,0.0,0.0,-1.7717,-1.8553,-1.865,0.0,0.0,0.0,0.0,0.0,0.0,0.0,0.0,0.0,0.0,0.0,0.0,0.0,-2.1699,-2.1835,-2.182,-2.1531,-2.0919,-2.0079,0.0,-1.869,-1.8517,-1.7896,0.0,0.0,0.0,0.0,0.0,-2.0793,-2.1636,-2.2231,-2.2324,-2.237,-2.2477,-2.2689,-2.2749,-2.2711,-2.2571,-2.238,-2.2184,-2.1946,-2.1486,-2.0946,0.0,0.0,0.0,0.0,0.0,0.0,0.0,0.0,0.0,0.0,0.0,0.0,0.0,0.0,0.0,0.0,0.0,0.0,0.0,0.0,0.0,0.0,0.0,0.0,0.0,0.0,0.0,0.0,-0.5983,-0.6791,-0.7189,-0.8337,-0.9123,0.0,0.0,0.0,0.0,0.0,0.0,-1.3625,-1.4182,-1.4982,-1.5965,-1.6501,-1.6998,-1.7454,-1.8058,-1.8415,-1.8611,-1.8784,-1.8861,-1.8861,-1.8861,-1.8705,-1.8421,-1.8421,-1.8442,-1.8388,-1.7773,-1.7313,-1.7144,-1.7477,-1.7754,-1.8194,-1.9157,-1.9233,-1.9065,-2.0196,-2.0322,-1.9889,-1.9227,0.0,-1.8566,-1.7435,0.0,0.0,0.0,0.0,-2.0846,-2.2454,-2.2811,-2.283,-2.3183,-2.3174,-2.2971,-2.2521,-2.2297,-2.1769,0.0,-2.0161,-1.9816,-1.8645,0.0,0.0,0.0,0.0,-2.0231,-2.1189,-2.1851,-2.2278,-2.237,-2.2477,-2.2583,-2.2795,-2.2795,-2.2826,-2.2902,-2.2702,-2.2479,-2.2317,-2.1917,-2.138,-2.0722,0.0,0.0,0.0,0.0,0.0,0.0,0.0,0.0,0.0,0.0,0.0,0.0,0.0,0.0,0.0,0.0,0.0,0.0,0.0,0.0,0.0,0.0,0.0,0.0,0.0,0.0,0.0,0.0,0.0,-0.783,-0.9166,0.0,0.0,0.0,0.0,-1.3822,-1.3496,-1.3974,-1.5556,-1.5703,-1.6216,-1.7398,-1.7614,-1.7978,-1.8612,-1.8859,-1.9027,-1.9265,-1.9274,-1.9265,-1.9265,-1.9265,-1.9256,-1.9246,-1.9246,-1.9026,-1.8586,-1.7589,-1.7726,-1.8594,-1.8383,-1.8829,-1.9691,-2.032,-2.0505,-2.0493,-2.0598,-2.0598,-2.0646,-2.1103,-2.0899,-2.0495,-2.0453,-2.0114,0.0,0.0,-2.2333,-2.2748,-2.4403,-2.4446,-2.4165,-2.4741,-2.3969,-2.3083,-2.3055,-2.2592,-2.1988,0.0,-2.1215,-2.1018,-2.0371,0.0,-2.0274,-2.0302,-2.0807,-2.1245,-2.1302,-2.1942,-2.237,-2.2417,-2.2644,-2.2809,-2.2809,-2.2872,-2.2902,-2.2888,-2.3113,-2.2951,-2.2332,-2.1917,-2.138,-2.0722,-2.0034,0.0,0.0,0.0,0.0,0.0,0.0,0.0,0.0,0.0,0.0,0.0,0.0,0.0,0.0,0.0,0.0,0.0,0.0,0.0,0.0,0.0,0.0,0.0,0.0,0.0,0.0,0.0,0.0,-0.8918,-1.0499,0.0,0.0,-1.3048,-1.4022,-1.472,-1.5129,-1.5783,-1.6824,-1.6876,-1.7364,-1.8331,-1.8447,-1.8883,-1.9695,-1.9769,-1.9716,-1.9705,-1.9705,-1.9567,-1.9301,-1.9301,-1.9301,-1.9283,-1.9036,-1.8843,-1.8641,-1.7751,-1.8334,-1.992,-2.0018,-2.0621,-2.1444,-2.1436,-2.1439,-2.1439,-2.1572,-2.1632,-2.1608,-2.1452,-2.1055,-2.0574,-2.0628,-2.1016,-2.1588,-2.222,-2.2926,-2.3761,-2.4755,-2.4812,-2.4699,-2.4924,-2.4385,-2.3603,-2.3182,-2.262,-2.2114,-2.1935,-2.1907,-2.171,-2.1105,-2.0992,-2.1006,-2.1078,-2.1292,-2.162,-2.2093,-2.2381,-2.2569,-2.2644,-2.2749,-2.2795,-2.2872,-2.2526,-2.2323,-2.2396,-2.2203,-2.2005,-2.178,-2.1734,-2.138,-2.0722,-2.0483,-1.9587,0.0,0.0,0.0,0.0,0.0,0.0,0.0,0.0,0.0,0.0,0.0,0.0,0.0,0.0,0.0,0.0,0.0,0.0,0.0,0.0,0.0,0.0,0.0,0.0,0.0,0.0,-0.9059,-1.0098,-1.1776,-1.2971,-1.3276,-1.4564,-1.5591,-1.5951,-1.6439,-1.7055,-1.78,-1.7723,-1.8086,-1.8935,-1.884,-1.9204,-2.0023,-2.0032,-2.0066,-2.0127,-1.9989,-1.9787,-1.9512,-1.9366,-1.9301,-1.9283,-1.888,-1.8715,-1.866,-1.799,-1.8634,-2.0195,-2.0492,-2.1341,-2.2392,-2.2126,-2.2017,-2.1925,-2.2123,-2.2197,-2.2137,-2.1789,-2.144,-2.1198,-2.1397,-2.1995,-2.2605,-2.2841,-2.3474,-2.4191,-2.4855,-2.4875,-2.4727,-2.4924,-2.4399,-2.3617,-2.3196,-2.262,-2.2184,-2.2184,-2.2184,-2.2044,-2.1682,-2.1611,-2.1626,-2.1744,-2.179,-2.1977,-2.2466,-2.2615,-2.2689,-2.2795,-2.2841,-2.2872,-2.2902,-2.2367,-2.2033,-2.2089,-2.1645,-2.1325,-2.1154,-2.1272,-2.1051,-2.0378,-2.0363,-1.9933,-1.9037,0.0,0.0,0.0,0.0,0.0,0.0,0.0,0.0,0.0,0.0,0.0,0.0,0.0,0.0,0.0,0.0,0.0,0.0,0.0,0.0,0.0,0.0,0.0,-0.8143,-0.8998,-0.9996,-1.1401,-1.3051,-1.4221,-1.4803,-1.613,-1.7081,-1.7441,-1.7492,-1.7817,-1.8545,-1.8263,-1.8417,-1.917,-1.8819,-1.9063,-1.9803,-1.9803,-2.005,-2.053,-2.0136,-1.9943,-1.9916,-1.9494,-1.9292,-1.9256,-1.8871,-1.8687,-1.8641,-1.8247,-1.859,-1.9324,-1.9792,-2.0929,-2.2362,-2.235,-2.2162,-2.1925,-2.2123,-2.2197,-2.2197,-2.2197,-2.2197,-2.2309,-2.2859,-2.3088,-2.3195,-2.3761,-2.3987,-2.4136,-2.4788,-2.4514,-2.423,-2.4812,-2.3997,-2.3097,-2.3097,-2.262,-2.2184,-2.2184,-2.2184,-2.2184,-2.2184,-2.2184,-2.2184,-2.2231,-2.2324,0.0,-2.2417,-2.2629,-2.2795,-2.2795,-2.2872,-2.2888,-2.2888,-2.2338,-2.1989,-2.206,-2.1601,-2.1089,-2.0531,-2.0631,-2.0408,-1.975,-1.9756,-2.0085,-2.0775,0.0,0.0,0.0,0.0,0.0,0.0,0.0,0.0,0.0,0.0,0.0,0.0,0.0,0.0,0.0,0.0,0.0,0.0,0.0,0.0,0.0,0.0,-0.7666,-0.8948,-0.9753,-1.0949,-1.2654,-1.4024,-1.5186,-1.5901,-1.6816,-1.7355,-1.7458,-1.7971,-1.8365,-1.8579,-1.8759,-1.9085,-1.9573,-1.9487,-1.9782,-2.0421,-2.0598,-2.0721,-2.0694,-2.0464,-2.0209,-1.9916,-1.9494,-1.9146,-1.8852,-1.8458,-1.8109,-1.7798,-1.7403,-1.8165,-1.9614,-1.9154,-1.9923,-2.1307,-2.1025,-2.1325,-2.1925,-2.2123,-2.2197,-2.2197,-2.2197,-2.2197,-2.2247,-2.242,-2.275,-2.3059,-2.2774,-2.3001,-2.3366,-2.3581,-2.3482,-2.3519,-2.4216,-2.3688,-2.3097,-2.3097,-2.262,-2.2184,-2.2184,-2.2184,-2.2184,-2.2184,-2.2184,-2.2278,-2.2463,-2.2509,0.0,-2.2752,-2.2812,-2.2857,-2.2857,-2.2902,-2.2888,-2.2888,-2.1917,-2.1362,0.0,-2.0539,-2.0167,-2.0616,-2.0669,-2.0842,-2.1141,-2.0872,-2.1228,0.0,0.0,0.0,0.0,0.0,0.0,0.0,0.0,0.0,0.0,0.0,0.0,0.0,0.0,0.0,0.0,0.0,0.0,0.0,0.0,0.0,0.0,-0.7453,-0.8692,-0.9915,-1.0663,-1.1723,-1.3457,-1.4723,-1.5624,-1.6068,-1.7098,-1.7578,-1.7261,-1.8074,-1.8588,-1.8588,-1.8956,-1.9418,-1.9958,-1.9821,-2.0004,-2.0645,-2.0916,-2.0891,-2.077,-2.0464,-2.0063,-1.965,-1.9072,-1.8678,0.0,-1.8036,-1.7724,-1.7468,-1.7064,-1.7584,0.0,0.0,0.0,0.0,0.0,-2.1285,-2.1874,-2.2135,-2.2197,-2.2197,-2.2197,-2.2197,-2.2197,-2.2197,-2.242,-2.2578,-2.2048,-2.2109,-2.2376,-2.243,-2.2396,-2.2533,-2.3206,-2.3035,-2.2704,-2.2704,-2.2437,-2.2184,-2.2184,0.0,0.0,-2.2184,-2.2184,-2.2278,-2.2463,-2.2555,-2.2661,-2.2826,-2.2902,-2.2888,-2.2888,-2.2888,-2.2888,-2.2888,-2.2004,0.0,0.0,0.0,-2.0493,-2.1111,-2.1126,0.0,0.0,0.0,0.0,0.0,0.0,0.0,0.0,-2.4646,-2.5166,0.0,0.0,0.0,0.0,0.0,0.0,0.0,0.0,0.0,0.0,0.0,0.0,0.0,0.0,0.0,0.0,-0.8264,-0.9592,-1.0842,-1.145,-1.2346,-1.3909,-1.5036,-1.5707,-1.5725,-1.7027,-1.7618,-1.6953,-1.798,-1.8605,-1.8648,0.0,0.0,0.0,0.0,-2.0047,-2.0654,-2.0782,-2.0846,-2.077,-2.0098,-1.9587,-1.9274,-1.8485,-1.81,-1.8027,-1.766,-1.7468,-1.7403,-1.7055,-1.6978,-1.7213,-1.9,-2.0528,-2.1712,-2.1672,-2.1663,0.0,0.0,0.0,0.0,-2.2173,-2.2197,-2.2197,-2.2197,-2.2149,-2.2005,-2.1536,-2.1354,-2.1299,-2.1398,-2.1368,-2.1448,-2.2074,-2.2145,-2.2137,-2.2184,-2.2184,-2.2184,-2.2184,-2.2184,-2.2184,-2.2231,-2.2231,-2.2231,-2.2417,-2.2509,-2.2661,-2.2795,-2.2857,-2.2888,-2.2888,0.0,0.0,-2.2888,-2.2367,-2.2076,-2.2275,-2.1901,-2.1717,-2.1919,-2.2054,-2.2667,-2.3804,-2.4292,-2.5176,-2.6486,-2.8008,-2.8408,-2.7809,-2.5786,-2.6331,0.0,0.0,0.0,0.0,0.0,0.0,0.0,0.0,0.0,0.0,0.0,0.0,0.0,0.0,0.0,-0.8422,-0.934,-1.0335,-1.1172,-1.1507,-1.2262,-1.3901,-1.4735,-1.5241,-1.5338,-1.639,-1.6959,-1.6904,-1.7963,-1.8725,-1.9042,-1.9701,0.0,-2.0292,-2.0223,-2.0223,-2.0382,-2.0349,-2.0334,-2.0499,0.0,0.0,-1.9274,-1.8485,-1.7935,-1.7614,-1.7532,-1.7312,-1.7009,-1.6936,-1.7235,-1.791,-1.8802,-1.9701,-2.0564,-2.1406,-2.1416,-2.116,-2.1918,-2.1921,-2.1632,-2.2053,-2.2197,-2.2197,-2.2197,-2.1897,0.0,-2.144,-2.1084,-2.079,-2.0778,-2.0759,-2.0885,-2.1461,-2.1553,-2.1664,-2.2137,-2.2184,-2.2184,-2.2184,-2.2184,-2.2231,-2.2324,-2.2278,-2.2278,-2.2509,-2.2555,-2.2661,-2.2857,-2.2902,-2.2888,-2.2888,-2.2888,-2.2888,-2.2888,-2.2367,-2.2076,-2.2275,-2.2842,-2.3193,-2.3236,-2.4268,-2.4971,-2.5211,-2.5318,-2.5955,-2.7149,-2.7879,-2.843,-2.8844,-2.9137,-2.9585,0.0,0.0,0.0,0.0,0.0,0.0,0.0,0.0,0.0,0.0,0.0,-0.6977,-0.7733,0.0,-0.8457,-0.8766,-0.9548,-1.0225,-1.0655,-1.1153,-1.2038,-1.3413,-1.4182,-1.4579,-1.4449,-1.5578,-1.6264,-1.6046,-1.7267,-1.8226,-1.8596,-1.9504,-2.0103,-2.0283,-2.0292,-2.0198,-2.0018,-2.0104,-1.9983,-1.9827,-1.9021,-1.8683,-1.8687,-1.788,-1.7403,-1.7202,-1.7202,-1.7092,-1.6908,-1.6908,-1.7304,-1.8007,-1.8135,-1.8833,-1.9799,-2.0506,-2.063,-2.0594,-2.1176,-2.1404,-2.1452,-2.1716,-2.1981,-2.2149,-2.1873,-2.162,-2.1296,-2.0742,-2.0414,-2.0146,-1.9875,-2.0012,-2.0258,-2.056,-2.1019,-2.1471,-2.1746,-2.1996,-2.2184,-2.2184,-2.2231,-2.2324,-2.237,-2.2417,-2.2477,-2.2675,-2.2689,-2.2766,-2.2888,-2.2888,-2.2888,-2.2888,-2.2888,-2.2888,-2.2888,-2.2731,-2.2717,-2.289,-2.3344,-2.3759,-2.4103,-2.4762,-2.5435,-2.6093,-2.6316,-2.6901,-2.7796,-2.8325,-2.8878,-2.9454,-3.0315,-3.091,0.0,0.0,0.0,0.0,0.0,0.0,0.0,0.0,-0.6437,-0.7495,-0.7728,-0.7905,-0.836,-0.834,-0.844,-0.8831,-0.9461,-0.9974,-1.0073,-1.0679,-1.1481,-1.2402,-1.3219,-1.3637,-1.3507,-1.4723,-1.5351,-1.5129,-1.6459,-1.7468,-1.7861,-1.8888,-1.9692,-2.0061,-2.0078,-1.9932,-1.9632,-1.9817,-1.9633,-1.9159,-1.8637,-1.833,-1.821,-1.7394,-1.7018,-1.7018,-1.6936,-1.6908,-1.6908,-1.6908,-1.7235,-1.7726,-1.7311,-1.7859,-1.8869,-1.9481,-1.9844,-2.017,-2.0495,-2.0827,-2.1115,-2.1211,-2.1536,-2.1801,-2.138,-2.1175,-2.0911,-2.0021,-1.9708,-1.9528,-1.9095,-1.9291,-1.9643,-1.9798,-2.0459,-2.1166,-2.1361,-2.1746,-2.2091,-2.2184,-2.2278,-2.237,-2.2417,-2.2509,-2.2675,-2.2795,-2.2809,-2.2841,-2.2902,-2.2888,-2.2888,-2.2888,-2.2888,-2.2888,-2.2888,-2.3142,-2.3363,-2.3466,-2.3776,-2.4238,-2.4746,-2.5015,-2.5689,-2.6752,-2.7172,-2.7607,-2.8158,-2.8685,-2.9137,-2.9617,-3.0612,-3.1489,-0.7362,-0.7134,-0.6772,-0.5755,-0.6634,-0.7785,0.0,0.0,-0.8336,-0.922,-0.8723,-0.8365,-0.904,-0.9265,-0.92,-0.8878,-0.9561,-1.009,-0.998,-1.0072,-1.0278,-1.0702,-1.1778,-1.2544,-1.3009,-1.3792,-1.441,-1.4641,-1.5751,-1.6768,-1.7504,-1.8294,-1.8896,-1.929,-1.9299,-1.9281,-1.9239,-1.9074,-1.9099,-1.9159,-1.8637,-1.8475,-1.8614,-1.7798,-1.7431,-1.7413,-1.7055,-1.6908,-1.6908,-1.6908,-1.6978,-1.7001,-1.6603,-1.6608,-1.7083,-1.867,-1.9618,-2.017,-2.0495,-2.0334,-2.0045,-2.0538,-2.0718,-2.0742,-2.0718,-2.0358,-1.9937,-1.9805,-1.9444,-1.9059,-1.9011,-1.904,-1.9198,-1.9708,-1.9901,-2.0258,-2.1166,-2.1471,-2.1616,-2.2137,-2.2231,-2.2324,-2.2555,-2.2615,-2.2675,-2.2795,-2.2809,-2.2841,-2.2902,-2.2888,-2.2888,-2.2888,-2.2888,-2.2888,-2.2888,-2.3142,-2.3319,-2.3319,-2.4595,-2.542,-2.5495,-2.6617,-2.7305,-2.7505,-2.7555,-2.7585,-2.766,-2.8174,-2.848,-2.8783,-3.0927,-3.2145,-0.7273,-0.6681,0.0,0.0,-0.7214,-0.7552,-0.8281,-0.8461,-0.8711,-0.949,-0.9106,-0.8771,-0.9229,-0.8761,-0.8418,0.0,-0.8662,-0.8824,-0.9082,-0.9077,-0.9181,-0.9717,-1.0355,-1.1142,-1.2227,-1.2734,-1.3331,-1.4248,-1.495,-1.5835,-1.7108,-1.7652,-1.8371,-1.9153,-1.917,-1.9067,-1.8836,-1.8757,-1.8815,-1.8922,-1.8442,-1.8407,-1.8687,-1.8119,-1.7724,-1.7477,-1.7073,-1.6908,-1.6908,-1.6908,-1.6908,-1.6844,-1.6202,-1.6439,-1.714,-1.7775,-1.8286,-1.8803,-1.9341,-1.9665,-1.9817,-2.0057,-2.0346,-2.0538,-2.0225,-1.9961,-1.9708,-1.9408,-1.9167,-1.8987,-1.8987,-1.8987,-1.904,-1.9291,-1.9552,-2.0003,-2.0759,-2.1166,-2.1568,-2.2091,-2.2278,-2.237,-2.2555,-2.2675,-2.2735,-2.2826,-2.2872,-2.2857,-2.2902,-2.2888,-2.2888,-2.2888,-2.2992,-2.3037,-2.3037,-2.3246,-2.3422,-2.3422,-2.4417,-2.5211,-2.56,-2.6497,-2.7006,-2.7006,-2.7006,-2.7006,-2.7006,-2.7221,-2.7913,-2.9042,-3.073,-3.1839,-0.6498,0.0,0.0,-0.7147,-0.7138,-0.7089,-0.7966,-0.8261,-0.8466,-0.9036,-0.8754,-0.8398,-0.8603,-0.7773,0.0,-0.7892,-0.7699,-0.7646,-0.8149,-0.8206,-0.8384,-0.8941,-0.9141,-0.987,-1.1351,-1.179,-1.2449,-1.3719,-1.4037,-1.4893,-1.6354,-1.688,-1.761,-1.8682,-1.8802,-1.8725,-1.8434,-1.8516,-1.8551,-1.8612,-1.839,-1.8491,-1.8784,-1.8282,-1.7889,-1.7477,-1.7073,-1.6908,-1.6908,-1.6908,-1.6908,-1.6826,-1.601,-1.6187,-1.6922,-1.696,-1.7367,-1.7968,-1.8619,-1.9198,-1.9564,-1.9564,-1.9841,-2.0093,-1.9684,-1.9564,-1.948,-1.9095,-1.8987,-1.8987,-1.8987,-1.8987,-1.8987,-1.8987,-1.9291,-1.9747,-2.0258,-2.0809,-2.1361,-2.1935,-2.2231,-2.2463,-2.2629,-2.2735,-2.2841,-2.2902,-2.2888,-2.2888,-2.2888,-2.2888,-2.2888,-2.2888,-2.2992,-2.3037,-2.3082,-2.329,-2.3466,-2.3509,-2.4164,-2.4837,-2.5315,-2.5974,-2.6318,-2.6318,-2.6318,-2.6408,-2.6587,-2.6587,-2.7549,-2.9404,-3.051,-3.1401,0.0,0.0,-0.5271,-0.5224,-0.6041,-0.6964,-0.7121,-0.7461,-0.7809,-0.8035,-0.7335,-0.6822,-0.6954,-0.6412,-0.6085,-0.6386,-0.6974,-0.7306,-0.7258,-0.7573,-0.7977,-0.8295,-0.8368,-0.8981,0.0,-1.1076,-1.1734,-1.2906,-1.3128,-1.3836,-1.5157,-1.5961,-1.6723,-1.7509,-1.7877,-1.8066,-1.8057,-1.829,-1.8371,-1.8434,-1.8825,-1.8984,-1.8957,-1.841,-1.7889,-1.7477,-1.7073,-1.6908,-1.6908,-1.6908,-1.6908,-1.6826,-1.601,-1.5698,-1.5789,-1.6323,-1.7302,-1.843,-1.8833,-1.8999,-1.9011,-1.9011,-1.9035,-1.9035,-1.9023,-1.9011,-1.9011,-1.8999,-1.8987,-1.8987,-1.8987,-1.8987,-1.8987,-1.8987,-1.8987,-1.9198,-1.9695,-2.0258,-2.0809,-2.1506,-2.2044,-2.2477,-2.2749,-2.2809,-2.2841,-2.2902,-2.2888,-2.2888,-2.2888,-2.2888,-2.2888,-2.2888,-2.2888,-2.2947,-2.3082,-2.3246,-2.3363,-2.3509,-2.4164,-2.4597,-2.4612,-2.5285,-2.563,-2.563,-2.563,-2.5959,-2.6587,-2.6587,-2.7604,-2.9604,-3.0179,-3.1111,0.0,0.0,-0.4768,-0.5618,-0.6079,-0.6388,-0.6813,-0.7055,-0.7244,-0.7318,-0.673,-0.6284,-0.6414,-0.5966,-0.5654,-0.6011,-0.6352,-0.6679,-0.6945,-0.7122,-0.7354,-0.7822,-0.8309,0.0,0.0,0.0,0.0,-1.2292,-1.2505,-1.3165,-1.45,-1.5475,-1.6459,-1.7458,-1.7843,-1.804,-1.804,-1.8121,-1.8282,-1.8612,-1.8993,-1.9231,-1.9204,-1.841,-1.8045,-1.788,-1.7202,-1.6908,-1.6908,-1.6908,-1.6908,-1.6826,-1.601,-1.5936,-1.634,-1.6516,-1.7199,-1.8002,-1.863,-1.8946,-1.8987,-1.8987,-1.8987,-1.8987,-1.8987,-1.8987,-1.8987,-1.8987,-1.8987,-1.8987,-1.8987,-1.8987,-1.8987,-1.8987,-1.8987,-1.9251,-2.0156,-2.056,-2.1006,-2.1935,-2.237,-2.2569,-2.2749,-2.2809,-2.2841,-2.2902,-2.2888,-2.2888,-2.2888,-2.2888,-2.2888,-2.2888,-2.3068,-2.3157,-2.3082,-2.3363,-2.348,-2.3509,-2.4164,-2.4582,-2.4582,-2.5255,-2.5405,-2.4971,-2.4956,-2.5076,-2.5285,-2.5285,-2.6318,-2.8314,-2.9271,-3.0241,0.0,-0.4189,-0.4148,-0.521,-0.5361,-0.5447,-0.5864,-0.6066,-0.6079,-0.6087,-0.5755,-0.5501,-0.5627,-0.5376,-0.5296,-0.5636,-0.5803,-0.6056,-0.6495,-0.668,-0.6916,-0.7513,-0.807,0.0,0.0,0.0,0.0,-1.168,-1.17,-1.2364,-1.3976,-1.4942,-1.5996,-1.7215,-1.7755,-1.804,-1.804,-1.804,-1.8201,-1.87,-1.9002,-1.9149,-1.9072,-1.8421,-1.8036,-1.7862,-1.7193,-1.6908,-1.6908,-1.6908,-1.6908,-1.6826,-1.601,-1.5946,-1.6403,-1.6632,-1.7034,-1.7611,-1.856,-1.8946,-1.8987,-1.8987,-1.8987,-1.8987,-1.8987,-1.8987,-1.8987,-1.8987,-1.8987,-1.8987,-1.8987,-1.8987,-1.8987,-1.8987,-1.8987,-1.9198,-1.9901,-2.0446,-2.1042,-2.1779,-2.2324,-2.2735,-2.2826,-2.2841,-2.2872,-2.2888,-2.2888,-2.2888,-2.2888,-2.2888,-2.2888,-2.2888,-2.3112,-2.3201,-2.3157,-2.3407,-2.3581,-2.3538,-2.3985,-2.4253,-2.4253,-2.4672,-2.4687,-2.4268,-2.4253,-2.4373,-2.4582,-2.4582,-2.5525,-2.7295,-2.8263,-2.9122,-0.3477,-0.3495,-0.352,-0.3978,-0.4105,-0.418,-0.4448,-0.4507,-0.4481,-0.4496,-0.4476,-0.4484,0.0,0.0,-0.4855,-0.5269,-0.5396,-0.5524,-0.5815,-0.6173,-0.6614,0.0,0.0,0.0,0.0,0.0,0.0,-1.1004,0.0,-1.1671,-1.3547,-1.4414,-1.5451,-1.6735,-1.7595,-1.7959,-1.804,-1.8031,-1.8282,-1.87,-1.8904,-1.8855,-1.8696,-1.8284,-1.7871,-1.7477,-1.7073,-1.6908,-1.6908,-1.6908,-1.6899,-1.6798,-1.6001,-1.5808,-1.5996,-1.6448,-1.681,-1.7168,-1.8494,-1.8987,-1.8987,-1.8987,-1.8987,-1.8987,-1.8987,-1.8987,-1.8987,-1.8987,-1.8987,-1.8987,-1.8987,-1.8987,-1.8987,-1.8987,-1.8987,-1.8987,-1.904,-1.9952,-2.0845,-2.0993,-2.1996,-2.2841,-2.2902,-2.2888,-2.2888,-2.2888,-2.2888,-2.2888,-2.2888,-2.2902,-2.2902,-2.2902,-2.3037,-2.3171,-2.3275,-2.3422,-2.3538,-2.361,-2.3595,-2.3595,-2.3595,-2.3595,-2.3595,-2.3595,-2.3595,-2.3924,-2.4522,-2.4522,-2.5241,-2.6497,-2.72,-2.7889,-0.2842,-0.3234,-0.3732,-0.3865,-0.4048,-0.42,-0.4268,-0.4203,-0.4138,-0.4116,-0.4154,-0.4138,-0.4175,0.0,0.0,-0.415,-0.4893,0.0,-0.5154,-0.5693,0.0,0.0,0.0,-0.7829,-0.8458,-0.8836,0.0,0.0,-1.0503,-1.1446,-1.2927,-1.4073,-1.5295,-1.6743,-1.7274,-1.7716,-1.804,-1.8201,-1.8442,-1.8692,-1.8635,-1.8583,-1.8687,-1.7981,-1.7596,-1.7477,-1.7073,-1.6908,-1.6908,-1.6908,-1.6734,-1.6413,-1.589,-1.5813,-1.5959,-1.6065,-1.6436,-1.7,-1.7995,-1.8602,-1.8987,-1.8987,-1.8987,-1.8987,-1.8987,-1.8987,-1.8987,-1.8987,-1.8987,-1.8987,-1.8987,-1.8987,-1.8987,-1.8987,-1.8987,-1.9146,-1.9643,-2.0093,-2.0633,-2.1541,-2.237,-2.2857,-2.2902,-2.2888,-2.2888,-2.2888,-2.2888,-2.2888,-2.2888,-2.2992,-2.3037,-2.3037,-2.326,-2.3422,-2.3466,-2.3538,-2.3566,-2.3595,-2.3595,-2.3595,-2.3595,-2.3595,-2.3595,-2.3595,-2.3595,-2.3684,-2.3864,-2.3864,-2.4298,-2.5151,-2.6303,-2.72,-0.2273,-0.2662,-0.313,-0.3555,-0.3773,-0.3955,-0.4008,-0.3964,-0.3892,-0.3784,-0.3817,0.0,-0.3839,0.0,0.0,0.0,0.0,0.0,-0.4717,-0.5547,-0.6345,0.0,-0.7139,0.0,-0.8016,-0.8507,-0.902,0.0,-1.0167,-1.1103,-1.2779,-1.3742,-1.4962,-1.6669,-1.7203,-1.7554,-1.804,-1.8282,-1.8523,-1.8692,-1.8536,-1.8402,-1.844,-1.7789,-1.7394,-1.722,0.0,-1.6908,-1.6908,-1.6908,-1.6679,-1.6276,-1.5854,-1.5748,-1.5814,-1.586,-1.6208,-1.6708,-1.7424,-1.8093,-1.8655,-1.8934,-1.8987,-1.8987,-1.8987,-1.8987,-1.8987,-1.8987,-1.8987,-1.8987,-1.8987,-1.8987,-1.8987,-1.8987,-1.9052,-1.921,-1.9552,-2.0003,-2.0646,-2.1841,-2.2509,-2.2888,-2.2888,-2.2888,-2.2888,-2.2888,-2.2888,-2.2947,-2.2992,-2.3037,-2.3082,-2.3082,-2.3334,-2.3509,-2.3509,-2.3566,-2.3595,-2.3595,-2.3595,-2.3595,-2.3595,-2.3595,-2.3595,-2.3595,-2.3595,-2.3595,-2.3595,-2.3595,-2.3789,-2.4208,-2.5241,-2.6078,-0.1822,-0.2063,-0.2295,-0.3143,-0.3456,-0.361,-0.3698,-0.377,-0.3692,-0.3441,0.0,-0.369,-0.3551,0.0,-0.3903,-0.353,0.0,-0.4795,-0.4527,-0.5469,-0.6307,-0.6581,-0.6939,-0.7411,-0.7949,-0.8195,-0.862,-0.9488,-0.9697,-1.0713,-1.2801,-1.333,-1.4554,-1.664,-1.718,-1.756,-1.7963,-1.8072,-1.8294,-1.8541,-1.8297,-1.8158,-1.7953,-1.7605,-1.7229,-1.6908,0.0,0.0,-1.6899,-1.6844,-1.6587,-1.6193,-1.5771,-1.5557,-1.5514,-1.5733,-1.5921,-1.6255,-1.6866,-1.7479,-1.8093,-1.8655,-1.8934,-1.8987,-1.8987,-1.8987,-1.8987,-1.8987,-1.8987,-1.8987,-1.8987,-1.8987,-1.8987,-1.8999,-1.9117,-1.9235,-1.9223,-1.9926,-2.0858,-2.1874,-2.2509,-2.2888,-2.2888,-2.2888,-2.2888,-2.2888,-2.2947,-2.2992,-2.3082,-2.3127,-2.3127,-2.3127,-2.3378,-2.3494,-2.3494,-2.3566,-2.3595,-2.3595,-2.3595,-2.3595,-2.3595,-2.3595,-2.3595,-2.3595,-2.3595,-2.3595,-2.3595,-2.3595,-2.3595,-2.361,-2.4313,-2.4881,-0.1369,-0.177,-0.225,-0.2909,-0.3242,-0.3419,-0.3449,-0.3484,0.0,0.0,0.0,-0.3401,-0.3202,-0.3645,0.0,-0.3119,0.0,0.0,0.0,0.0,-0.5862,0.0,0.0,0.0,0.0,0.0,0.0,0.0,0.0,0.0,-1.2443,-1.2907,-1.4227,-1.664,-1.7174,-1.749,-1.7569,-1.7261,-1.726,-1.748,-1.7234,-1.7233,-1.7388,-1.7122,-1.6972,-1.6908,0.0,0.0,-1.6881,-1.6551,-1.6175,-1.5753,-1.5359,-1.5069,-1.4868,-1.5107,-1.5264,-1.5488,-1.6197,-1.6866,-1.7479,-1.8038,-1.859,-1.8987,-1.8987,-1.8987,-1.8987,-1.8987,-1.8987,-1.8987,-1.8987,-1.8987,-1.9052,-1.9117,-1.917,-1.9275,-1.946,-2.0396,-2.1272,-2.1527,-2.2263,-2.2888,-2.2888,-2.2888,-2.2888,-2.2888,-2.2992,-2.3082,-2.3082,-2.3201,-2.3334,-2.3422,-2.3538,-2.3551,-2.3551,-2.3595,-2.3595,-2.3595,-2.3595,-2.3595,-2.3595,-2.3595,-2.3595,-2.3595,-2.3595,-2.3595,-2.3595,-2.3595,-2.3595,-2.361,-2.4313,-2.4642,-0.0539,-0.0906,-0.1389,-0.2222,-0.262,-0.2875,-0.3144,0.0,0.0,0.0,0.0,-0.3185,-0.3089,0.0,0.0,0.0,0.0,0.0,0.0,0.0,0.0,0.0,0.0,0.0,0.0,0.0,0.0,0.0,0.0,0.0,-1.165,-1.2894,-1.4409,-1.6103,-1.6641,-1.7021,-1.7184,-1.7013,-1.6985,-1.7194,-1.6893,-1.6927,-1.7207,-1.6872,-1.683,-1.6908,-1.6908,0.0,-1.6872,-1.6477,-1.6074,-1.5652,-1.5258,-1.4976,-1.4843,-1.497,-1.5147,-1.5371,-1.569,-1.6415,-1.7257,-1.7534,-1.8267,-1.8987,-1.8987,-1.8987,-1.8987,-1.8987,-1.8987,-1.8999,-1.9117,-1.9105,-1.917,-1.9275,-1.9368,-1.9473,-1.9656,-2.0396,-2.1091,-2.1369,-2.2016,-2.2615,-2.2843,-2.2947,-2.2992,-2.2992,-2.3112,-2.3246,-2.3305,-2.3378,-2.3422,-2.3509,-2.3566,-2.3595,-2.3595,-2.3595,-2.3595,-2.3595,-2.3595,-2.3595,-2.3595,-2.3595,-2.3595,-2.3595,-2.3595,-2.3595,-2.3595,-2.3595,-2.3595,-2.361,-2.3939,-2.4416,0.0146,-0.0148,-0.0447,-0.1426,-0.1995,-0.2334,-0.2735,-0.2992,0.0,0.0,0.0,-0.2923,-0.2906,0.0,0.0,0.0,0.0,0.0,0.0,0.0,0.0,0.0,0.0,0.0,0.0,0.0,0.0,0.0,0.0,0.0,-1.0999,-1.2988,-1.451,-1.552,-1.5983,-1.633,-1.6648,-1.6647,-1.6745,-1.6885,-1.6663,-1.6731,-1.7009,-1.6756,-1.6751,-1.6908,-1.6908,0.0,0.0,-1.6386,-1.5991,-1.5707,-1.5219,-1.5014,-1.5039,-1.5039,-1.5196,-1.541,-1.541,-1.6197,-1.7202,-1.7202,-1.8038,-1.8987,-1.8987,-1.8987,-1.8987,-1.8987,-1.8987,-1.904,-1.917,-1.9182,-1.9223,-1.942,-1.9565,-1.9656,-1.9798,-2.0295,-2.0894,-2.1321,-2.1921,-2.2509,-2.2888,-2.3023,-2.3127,-2.3127,-2.3246,-2.3363,-2.3509,-2.3494,-2.3494,-2.3494,-2.3566,-2.3595,-2.3595,-2.3595,-2.3595,-2.3595,-2.3595,-2.3595,-2.3595,-2.3595,-2.3595,-2.3595,-2.3595,-2.3595,-2.3595,-2.3595,-2.3595,-2.3595,-2.3595,-2.4139,0.0407,0.0093,-0.019,-0.0822,-0.1575,-0.2107,-0.2192,0.0,0.0,0.0,-0.277,-0.2691,-0.2628,0.0,0.0,0.0,0.0,0.0,0.0,0.0,0.0,0.0,0.0,0.0,0.0,0.0,0.0,0.0,0.0,0.0,0.0,-1.2912,-1.4204,-1.5142,-1.5605,-1.5889,-1.5889,-1.5927,-1.5908,-1.5899,-1.621,-1.6325,-1.6395,-1.6709,-1.6908,-1.6908,0.0,0.0,0.0,-1.6065,-1.579,-1.5807,-1.5018,-1.493,-1.5156,-1.5156,-1.5254,-1.541,-1.541,-1.6197,-1.7202,-1.7202,-1.8038,-1.8987,-1.8987,-1.8987,-1.8987,-1.8987,-1.8987,-1.904,-1.917,-1.9182,-1.9275,-1.9512,-1.9656,-1.9798,-1.9798,-2.0584,-2.1321,-2.1369,-2.2296,-2.3037,-2.3082,-2.3201,-2.3275,-2.3275,-2.3422,-2.3509,-2.3509,-2.3566,-2.361,-2.361,-2.361,-2.3595,-2.3595,-2.3595,-2.3595,-2.3595,-2.3595,-2.3595,-2.3595,-2.3595,-2.3595,-2.3595,-2.3595,-2.3595,-2.3595,-2.3595,-2.3595,-2.3595,-2.3595,-2.3897,0.103,0.0815,0.0506,-0.0093,-0.0784,-0.1392,-0.1764,0.0,0.0,-0.2715,-0.2653,-0.25,-0.2157,-0.1672,-0.1243,0.0,-0.1083,0.0,0.0,0.0,0.0,0.0,0.0,0.0,0.0,0.0,0.0,0.0,0.0,0.0,0.0,-1.1476,-1.2662,-1.3918,-1.4699,-1.521,-1.5427,-1.566,-1.5805,-1.5805,-1.5938,-1.607,-1.6281,-1.6491,-1.6691,-1.6908,0.0,0.0,0.0,-1.5927,-1.5615,-1.5339,-1.4777,-1.4793,-1.5098,-1.5098,-1.5196,-1.541,-1.541,-1.6197,-1.7202,-1.7202,-1.8038,-1.9117,-1.8999,-1.8987,-1.8999,-1.9105,-1.9117,-1.917,-1.9368,-1.9512,-1.9617,-1.9708,-1.9759,-1.9798,-1.9798,-2.0207,-2.0759,-2.1417,-2.1969,-2.2509,-2.3112,-2.3334,-2.3422,-2.3422,-2.3494,-2.3566,-2.3566,-2.3551,-2.3595,-2.3595,-2.3595,-2.3595,-2.3595,-2.3595,-2.3595,-2.3595,-2.3595,-2.3595,-2.3595,-2.3595,-2.3595,-2.3595,-2.3595,-2.3595,-2.3595,-2.3595,-2.3595,-2.3595,-2.3595,-2.3867,0.1546,0.1323,0.1059,0.0623,0.0,-0.067,0.0,0.0,-0.213,-0.2349,-0.2164,-0.1841,-0.1466,-0.092,-0.0431,0.0,-0.0168,-0.0344,-0.0679,0.0,0.0,0.0,0.0,0.0,0.0,0.0,0.0,0.0,0.0,0.0,0.0,-1.0276,-1.1545,-1.2945,-1.3753,-1.4482,-1.4991,-1.5434,-1.5655,-1.5805,-1.5867,-1.6,-1.6272,-1.6342,-1.6551,-1.6899,0.0,0.0,0.0,-1.5799,-1.5475,-1.5179,-1.4842,-1.4862,-1.5137,-1.5137,-1.5245,-1.541,-1.541,-1.6197,-1.7202,-1.7202,-1.8093,-1.9117,-1.9052,-1.9052,-1.9158,-1.9223,-1.9275,-1.9368,-1.9565,-1.9708,-1.9798,-1.9798,-1.9798,-1.9798,-1.9798,-2.0156,-2.0709,-2.1465,-2.1955,-2.254,-2.3231,-2.3451,-2.3538,-2.3538,-2.3566,-2.3595,-2.3595,-2.3595,-2.3595,-2.3595,-2.3595,-2.3595,-2.3595,-2.3595,-2.3595,-2.3595,-2.3595,-2.3595,-2.3595,-2.3653,-2.3653,-2.3653,-2.3696,-2.3739,-2.3739,-2.3739,-2.3696,-2.3653,-2.3696,-2.4128,0.1883,0.1523,0.1297,0.1299,0.0725,0.0053,0.0,-0.0744,-0.1011,-0.1594,-0.1137,-0.0611,-0.0529,-0.016,0.0108,0.0167,0.0,-0.0289,0.0,0.0,0.0,0.0,0.0,0.0,0.0,0.0,0.0,0.0,0.0,0.0,0.0,-0.9669,-1.1162,-1.2526,-1.3025,-1.368,-1.4569,-1.4991,-1.5426,-1.5805,-1.6,-1.6132,-1.6281,-1.6542,-1.6682,0.0,0.0,0.0,0.0,-1.5568,-1.5411,-1.5538,-1.5319,-1.5254,-1.541,-1.541,-1.541,-1.541,-1.541,-1.6197,-1.7202,-1.7202,-1.8038,-1.8987,-1.8987,-1.921,-1.942,-1.942,-1.946,-1.9617,-1.9617,-1.9708,-1.9798,-1.9798,-1.9798,-1.9798,-1.9798,-2.0733,-2.1609,-2.1609,-2.2603,-2.3466,-2.3509,-2.3566,-2.3595,-2.3595,-2.3595,-2.3595,-2.3595,-2.3595,-2.3595,-2.3595,-2.3595,-2.3595,-2.3595,-2.3595,-2.3595,-2.3595,-2.3595,-2.3595,-2.3595,-2.3739,-2.3797,-2.3797,-2.394,-2.3982,-2.3982,-2.3982,-2.394,-2.3797,-2.394,-2.4808,0.2652,0.228,0.1908,0.1644,0.0997,0.0361,-0.0053,-0.0479,-0.0857,-0.1095,-0.0911,-0.0582,-0.011,0.0055,0.0335,0.0808,0.0,0.0,0.0,0.0,0.0,0.0,0.0,0.0,0.0,0.0,0.0,0.0,0.0,0.0,0.0,-0.8281,-0.9426,-1.1545,-1.3025,-1.3977,-1.4274,-1.4848,-1.5275,-1.5355,-1.5718,-1.5861,-1.5857,-1.5925,0.0,0.0,0.0,0.0,0.0,-1.5274,-1.5111,-1.4952,-1.489,-1.502,-1.5264,-1.5264,-1.5313,-1.541,-1.541,-1.6197,-1.7202,-1.7324,-1.8213,-1.9316,-1.9356,-1.9368,-1.9328,-1.946,-1.9604,-1.9759,-1.9759,-1.9747,-1.9798,-1.9798,-1.9798,-1.9811,-1.9926,-2.061,-2.1321,-2.1704,-2.2512,-2.3216,-2.3523,-2.361,-2.3595,-2.3595,-2.3595,-2.3595,-2.3595,-2.3595,-2.3595,-2.3595,-2.3696,-2.3696,-2.3595,-2.3595,-2.3595,-2.3595,-2.3696,-2.3739,-2.3739,-2.3882,-2.394,-2.394,-2.3982,-2.3982,-2.3982,-2.3982,-2.3982,-2.3925,-2.4245,-2.4829,0.0,0.2748,0.2384,0.1941,0.1387,0.086,0.0311,0.0,-0.0214,-0.0437,-0.0273,0.0109,0.0614,0.0617,0.0678,0.1154,0.0,0.0,0.0,0.0,0.0,0.0,0.0,0.0,0.0,0.0,0.0,0.0,0.0,0.0,0.0,0.0,-0.8694,-1.0283,-1.1872,-1.2942,-1.3573,-1.4285,-1.4782,-1.5204,-1.5292,-1.5446,-1.5613,-1.5455,0.0,0.0,0.0,0.0,0.0,-1.4989,-1.4898,-1.4843,-1.4902,-1.5079,-1.5254,-1.5254,-1.5303,-1.541,-1.5478,-1.6151,-1.7045,-1.7379,-1.8375,-1.942,-1.9565,-1.9512,-1.9473,-1.9604,-1.9759,-1.9798,-1.9798,-1.9862,-1.9862,-1.9862,-1.9914,-1.9965,-2.008,-2.0759,-2.1465,-2.1846,-2.2589,-2.3246,-2.3551,-2.3595,-2.3595,-2.3595,-2.3595,-2.3595,-2.3595,-2.3595,-2.3595,-2.3653,-2.3739,-2.3797,-2.3739,-2.3739,-2.3739,-2.3739,-2.3839,-2.3882,-2.3882,-2.3982,-2.4082,-2.4082,-2.4109,-2.4177,-2.4328,-2.4492,-2.4517,-2.4599,-2.4965,-2.5275,0.0,0.3028,0.2725,0.2185,0.1857,0.1407,0.0602,0.0672,0.0,0.0318,0.0708,0.1171,0.151,0.1286,0.112,0.1294,0.0,0.0,0.0,0.0,0.0,0.0,0.0,0.0,0.0,0.0,0.0,0.0,0.0,0.0,0.0,0.0,-0.8509,-0.8863,-0.9691,-1.0937,-1.2733,-1.3299,-1.4088,-1.5051,-1.4722,-1.4831,-1.5408,-1.5042,0.0,0.0,0.0,0.0,0.0,-1.4814,-1.4784,-1.5029,-1.5156,-1.5254,-1.541,-1.541,-1.541,-1.541,-1.5604,-1.6066,-1.674,-1.7501,-1.8483,-1.942,-1.9565,-1.9708,-1.9798,-1.9811,-1.9798,-1.9811,-1.985,-1.9914,-1.999,-1.999,-2.0131,-2.0233,-2.0283,-2.114,-2.1894,-2.1941,-2.286,-2.3595,-2.3595,-2.3595,-2.3595,-2.3638,-2.3638,-2.3638,-2.3638,-2.3638,-2.3696,-2.3797,-2.3839,-2.3882,-2.3982,-2.4024,-2.3982,-2.3982,-2.4024,-2.4024,-2.4024,-2.4124,-2.4223,-2.4223,-2.4276,-2.4492,-2.4902,-2.5214,-2.5406,-2.5503,-2.5852,-2.6033,0.4203,0.0,0.3301,0.2827,0.2311,0.1831,0.0,0.1192,0.092,0.0,0.0,0.0939,0.1181,0.1133,0.1152,0.0,0.0,0.0,0.0,0.0,0.0,0.0,0.0,0.0,0.0,0.0,0.0,0.0,0.0,0.0,0.0,0.0,-0.6936,-0.7407,-0.7991,-0.9516,-1.2012,-1.2825,-1.3338,-1.3619,-1.4095,-1.4313,-1.4423,-1.46,0.0,0.0,0.0,0.0,-1.4643,-1.4543,-1.4734,-1.497,-1.5029,-1.5196,-1.541,-1.541,-1.541,-1.541,-1.5478,-1.5999,-1.6786,-1.8104,-1.8815,-1.921,-1.972,-1.9772,-1.9708,-1.9875,-1.9926,-1.9978,-2.008,-2.0131,-2.0131,-2.0131,-2.0182,-2.0321,-2.0845,-2.1465,-2.2035,-2.2558,-2.3187,-2.3638,-2.3739,-2.3739,-2.3797,-2.3882,-2.3925,-2.3925,-2.3925,-2.3925,-2.3925,-2.394,-2.4024,-2.4124,-2.4166,-2.4082,-2.3982,-2.3982,-2.4082,-2.4166,-2.4166,-2.4234,-2.4276,-2.4276,-2.4317,-2.4492,-2.4902,-2.4981,-2.516,-2.5503,-2.5908,-2.6087,0.4408,0.4266,0.4001,0.3419,0.2802,0.2276,0.1993,0.0,0.0,0.0,0.0,0.0,0.1165,0.0,0.0,0.0,0.0,0.0,0.0,0.0,0.0,0.0,0.0,0.0,0.0,0.0,0.0,0.0,0.0,0.0,0.0,0.0,-0.6218,-0.6683,-0.726,-0.8591,-1.0818,-1.1611,-1.2417,-1.3176,-1.3491,-1.3785,-1.4084,-1.417,0.0,0.0,0.0,0.0,-1.4515,-1.4515,-1.4684,-1.497,-1.497,-1.5137,-1.541,-1.541,-1.5478,-1.5546,-1.5604,-1.6332,-1.7446,-1.8536,-1.9133,-1.9512,-1.9888,-1.9926,-1.9926,-2.0029,-2.008,-2.0131,-2.0182,-2.0283,-2.0347,-2.0347,-2.0398,-2.0536,-2.0871,-2.1527,-2.2081,-2.2466,-2.3098,-2.3653,-2.3782,-2.3797,-2.3839,-2.3982,-2.3982,-2.3982,-2.3982,-2.3982,-2.4024,-2.4082,-2.4166,-2.4208,-2.4234,-2.4193,-2.4151,-2.4151,-2.4193,-2.425,-2.425,-2.4276,-2.4302,-2.4302,-2.4639,-2.4981,-2.5176,-2.554,-2.5835,-2.6068,-2.628,-2.6367,0.4389,0.4629,0.4666,0.3983,0.3331,0.2773,0.2299,0.0,0.0,0.0,0.0,0.0,0.0,0.0,0.0,0.0,0.0,0.0,0.0,0.0,0.0,0.0,0.0,0.0,0.0,0.0,0.0,0.0,0.0,0.0,0.0,0.0,0.0,-0.6288,-0.6868,-0.7861,-0.9319,-1.0246,-1.1418,-1.2808,-1.2866,-1.3251,-1.3873,-1.3857,-1.389,0.0,0.0,0.0,-1.4515,-1.4515,-1.4647,-1.4876,-1.4885,-1.5041,-1.5255,-1.5312,-1.5487,-1.574,-1.5961,-1.6955,-1.8201,-1.8815,-1.9408,-1.9875,-2.0042,-2.0182,-2.0283,-2.0334,-2.0334,-2.0271,-2.0283,-2.0448,-2.0562,-2.0562,-2.0662,-2.0848,-2.0885,-2.1575,-2.2221,-2.2314,-2.3009,-2.3653,-2.3797,-2.3839,-2.3882,-2.4024,-2.4067,-2.4067,-2.4067,-2.4067,-2.4067,-2.4208,-2.4208,-2.425,-2.4317,-2.4302,-2.4302,-2.4302,-2.4302,-2.4302,-2.4302,-2.4302,-2.4302,-2.4302,-2.502,-2.5427,-2.5503,-2.6245,-2.6657,-2.6691,-2.6691,-2.6691,0.469,0.4871,0.4881,0.4392,0.3832,0.3282,0.0,0.0,0.0,0.0,0.0,0.0,0.0,0.0,0.0,0.0,0.0,0.0,0.0,0.0,0.0,0.0,0.0,0.0,0.0,0.0,0.0,0.0,0.0,0.0,0.0,0.0,0.0,-0.5958,-0.6086,-0.6618,-0.7555,-0.9432,-1.0487,-1.0789,-1.2017,-1.2755,-1.3009,-1.3554,-1.3959,0.0,0.0,-1.4396,-1.4515,-1.4515,-1.4421,-1.4269,-1.4383,-1.4544,-1.477,-1.4827,-1.5231,-1.5788,-1.657,-1.7324,-1.8081,-1.891,-1.9239,-1.9448,-2.0195,-2.0536,-2.0709,-2.0835,-2.0772,-2.0709,-2.0649,-2.0749,-2.0898,-2.0699,-2.0997,-2.141,-2.1813,-2.2374,-2.2875,-2.3275,-2.3508,-2.3696,-2.394,-2.3982,-2.4024,-2.4234,-2.4261,-2.4261,-2.4261,-2.4261,-2.4261,-2.4261,-2.4261,-2.4317,-2.4302,-2.4302,-2.4302,-2.4302,-2.4302,-2.4302,-2.4302,-2.4302,-2.4302,-2.4302,-2.4759,-2.516,-2.5503,-2.598,-2.6367,-2.6691,-2.6691,-2.6691,0.4423,0.4592,0.467,0.4634,0.4218,0.3667,0.0,0.0,0.0,0.0,0.0,0.0,0.0,0.0,0.0,0.0,0.0,0.0,0.0,0.0,0.0,0.0,0.0,0.0,0.0,0.0,0.0,0.0,0.0,0.0,0.0,0.0,0.0,0.0,-0.5826,-0.6083,-0.6474,-0.8086,-0.9372,-1.0395,-1.1406,-1.2228,-1.2928,-1.3528,-1.389,-1.4019,0.0,-1.4327,-1.4396,-1.4556,-1.4613,-1.4619,-1.4744,-1.4907,-1.507,-1.5308,-1.5827,-1.6539,-1.7424,-1.8124,-1.8821,-1.954,-1.9811,-1.9978,-2.036,-2.0599,-2.0785,-2.0934,-2.1082,-2.1118,-2.1082,-2.1131,-2.118,-2.1082,-2.1423,-2.1793,-2.2016,-2.2558,-2.3143,-2.3363,-2.3595,-2.3882,-2.4082,-2.4124,-2.4208,-2.4441,-2.4467,-2.4508,-2.4686,-2.4686,-2.463,-2.4467,-2.4467,-2.4426,-2.4302,-2.4302,-2.4302,-2.4302,-2.4302,-2.4302,-2.4302,-2.4492,-2.4639,-2.4639,-2.5237,-2.5652,-2.5835,-2.6245,-2.6505,-2.6691,-2.6691,-2.6691,0.4223,0.426,0.4346,0.4503,0.0,0.3887,0.3101,0.0,0.0,0.0,0.0,0.0,0.0,0.0,0.0,0.0,0.0,0.0,0.0,0.0,0.0,0.0,0.0,0.0,0.0,0.0,0.0,0.0,0.0,0.0,0.0,0.0,0.0,0.0,-0.5557,-0.5756,-0.5756,-0.6732,-0.8146,-1.0072,-1.0829,-1.1735,-1.2736,-1.3304,-1.3657,-1.3758,-1.4103,-1.4267,-1.4387,-1.4547,-1.4728,-1.4828,-1.4945,-1.511,-1.5341,-1.5806,-1.6446,-1.7191,-1.7907,-1.8727,-1.954,-1.9965,-2.0334,-2.0599,-2.0612,-2.0799,-2.0997,-2.118,-2.1423,-2.1616,-2.1423,-2.1471,-2.1471,-2.1423,-2.1841,-2.2249,-2.2249,-2.2905,-2.3537,-2.3537,-2.3809,-2.4109,-2.425,-2.4223,-2.4291,-2.4549,-2.4589,-2.471,-2.4966,-2.5005,-2.4926,-2.4726,-2.467,-2.463,-2.4467,-2.4467,-2.4508,-2.4533,-2.4508,-2.4426,-2.4385,-2.4735,-2.4918,-2.4902,-2.5652,-2.6068,-2.6104,-2.6505,-2.6742,-2.6742,-2.6691,-2.6742,0.4325,0.4225,0.3927,0.3795,0.0,0.0,0.3073,0.0,0.0,0.0,0.0,0.0,0.0,0.0,0.0,0.0,0.0,0.0,0.0,0.0,0.0,0.0,0.0,0.0,0.0,0.0,0.0,0.0,0.0,0.0,0.0,0.0,0.0,0.0,0.0,-0.5223,-0.5428,-0.562,-0.6785,-0.886,-1.0199,-1.1185,-1.1822,-1.2696,-1.3212,-1.346,-1.3841,-1.4198,-1.4515,-1.4506,-1.4403,-1.4156,-1.4336,-1.4665,-1.5107,-1.5847,-1.6606,-1.7435,-1.7655,-1.8525,-1.9604,-1.9759,-2.0258,-2.0809,-2.0934,-2.1326,-2.1746,-2.1902,-2.2137,-2.2184,-2.1568,-2.1568,-2.1712,-2.1471,-2.2175,-2.2935,-2.2935,-2.3736,-2.4508,-2.4508,-2.4385,-2.4317,-2.4457,-2.4333,-2.4291,-2.4549,-2.4589,-2.471,-2.4966,-2.5005,-2.5005,-2.4966,-2.4966,-2.4966,-2.4966,-2.4966,-2.5068,-2.5307,-2.5107,-2.4846,-2.4589,-2.4846,-2.495,-2.4902,-2.5519,-2.5924,-2.6104,-2.6505,-2.6742,-2.6893,-2.6742,-2.6775,0.3833,0.3612,0.3436,0.3826,0.0,0.0,0.0,0.0,0.0,0.0,0.0,0.0,0.0,0.0,0.0,0.0,0.0,0.0,0.0,0.0,0.0,0.0,0.0,0.0,0.0,0.0,0.0,0.0,0.0,0.0,0.0,0.0,0.0,0.0,0.0,-0.5024,-0.5223,-0.5397,-0.6301,-0.7944,-0.9208,-1.0155,-1.0869,-1.2316,-1.3015,-1.3079,-1.3714,-1.4189,-1.4547,-1.4734,-1.4827,-1.4792,-1.4955,-1.5186,-1.5501,-1.6053,-1.6775,-1.7589,-1.7941,-1.8845,-1.985,-1.9901,-2.0359,-2.0921,-2.0983,-2.1277,-2.1616,-2.1949,-2.2091,-2.2137,-2.2137,-2.2231,-2.2278,-2.2184,-2.2844,-2.3508,-2.3508,-2.4188,-2.4846,-2.4846,-2.4806,-2.4766,-2.4806,-2.4742,-2.4766,-2.5005,-2.5045,-2.5123,-2.5333,-2.5371,-2.5333,-2.5217,-2.5084,-2.5005,-2.5005,-2.5123,-2.524,-2.5339,-2.5285,-2.5269,-2.5351,-2.5668,-2.5868,-2.5852,-2.6297,-2.6556,-2.6674,-2.6759,-2.6876,-2.6959,-2.6876,-2.6876,0.3685,0.3461,0.3299,0.0,0.0,0.0,0.0,0.0,0.0,0.0,0.0,0.0,0.0,0.0,0.0,0.0,0.0,0.0,0.0,0.0,0.0,0.0,0.0,0.0,0.0,0.0,0.0,0.0,0.0,0.0,0.0,0.0,0.0,0.0,0.0,-0.4761,-0.4954,-0.508,-0.5698,-0.6755,-0.8001,-0.915,-1.0289,-1.1924,-1.267,-1.2677,-1.3602,-1.4189,-1.4478,-1.4784,-1.502,-1.5254,-1.5488,-1.5662,-1.5894,-1.6296,-1.6899,-1.7589,-1.8201,-1.9109,-1.9991,-2.0194,-2.0759,-2.1326,-2.1326,-2.152,-2.1855,-2.2137,-2.2245,-2.2338,-2.2615,-2.2661,-2.2646,-2.2768,-2.3348,-2.3952,-2.4063,-2.4655,-2.5178,-2.5178,-2.5139,-2.5084,-2.5084,-2.5045,-2.5045,-2.5256,-2.5294,-2.5371,-2.5578,-2.5616,-2.5578,-2.5432,-2.5301,-2.5224,-2.5224,-2.5394,-2.5546,-2.5642,-2.5758,-2.5799,-2.5762,-2.6191,-2.6418,-2.6418,-2.6742,-2.6942,-2.7007,-2.6942,-2.6992,-2.704,-2.6942,-2.6975,0.4054,0.388,0.0,0.0,0.0,0.0,0.0,0.0,0.0,0.0,0.0,0.0,0.0,0.0,0.0,0.0,0.0,0.0,0.0,0.0,0.0,0.0,0.0,0.0,0.0,0.0,0.0,0.0,0.0,0.0,0.0,0.0,0.0,0.0,0.0,0.0,-0.4558,-0.4622,-0.4744,-0.5121,-0.6601,-0.8259,-1.0119,-1.1364,-1.201,-1.2265,-1.3488,-1.413,-1.4318,-1.4597,-1.5001,-1.54,-1.5778,-1.5951,-1.6161,-1.6627,-1.6976,-1.7346,-1.8352,-1.9202,-1.9901,-2.0597,-2.1348,-2.1983,-2.1996,-2.2278,-2.2615,-2.2735,-2.2795,-2.2795,-2.2902,-2.2752,-2.2723,-2.3098,-2.3666,-2.423,-2.4608,-2.5169,-2.5616,-2.5616,-2.5448,-2.5294,-2.5294,-2.5123,-2.51,-2.5294,-2.5294,-2.5371,-2.5562,-2.5616,-2.5637,-2.5701,-2.5701,-2.5701,-2.5701,-2.5901,-2.6118,-2.6383,-2.6641,-2.647,-2.5738,-2.6156,-2.6418,-2.6418,-2.659,-2.6808,-2.7007,-2.7007,-2.7023,-2.7103,-2.7023,-2.7023,0.3702,0.3194,0.0,0.0,0.0,0.0,0.0,0.0,0.0,0.0,0.0,0.0,0.0,0.0,0.0,0.0,0.0,0.0,0.0,0.0,0.0,0.0,0.0,0.0,0.0,0.0,0.0,0.0,0.0,0.0,0.0,0.0,0.0,0.0,0.0,0.0,-0.3911,-0.3741,-0.4047,-0.4822,-0.5676,-0.6691,-0.7949,-1.043,-1.1414,-1.1232,-1.2513,-1.3301,-1.37,-1.4335,-1.4561,-1.4551,-1.5265,-1.572,-1.6077,-1.6883,-1.7483,-1.8116,-1.8922,-1.9356,-1.9695,-2.0343,-2.0919,-2.1439,-2.1857,-2.2027,-2.2131,-2.2698,-2.2599,-2.2527,-2.3389,-2.3551,-2.3493,-2.3508,-2.3852,-2.4369,-2.4744,-2.5262,-2.56,-2.5642,-2.5642,-2.5605,-2.5696,-2.5659,-2.5659,-2.5696,-2.5273,-2.4948,-2.4912,-2.5424,-2.577,-2.5701,-2.5791,-2.5844,-2.5844,-2.6118,-2.6314,-2.6383,-2.6791,-2.6973,-2.6825,-2.6957,-2.704,-2.704,-2.7105,-2.7137,-2.7218,-2.712,-2.712,-2.7233,-2.712,-2.712,0.3329,0.0,0.0,0.0,0.0,0.0,0.0,0.0,0.0,0.0,0.0,0.0,0.0,0.0,0.0,0.0,0.0,0.0,0.0,0.0,0.0,0.0,0.0,0.0,0.0,0.0,0.0,0.0,0.0,0.0,0.0,0.0,0.0,0.0,0.0,0.0,-0.3297,-0.3234,-0.3484,-0.4146,-0.4976,-0.5703,-0.6385,-0.9262,-1.0431,-1.0293,-1.1754,-1.2755,-1.3449,-1.396,-1.4202,-1.4374,-1.4975,-1.5401,-1.5818,-1.6595,-1.7243,-1.7913,-1.8744,-1.9213,-1.9554,-2.0193,-2.069,-2.1006,-2.1417,-2.1541,-2.1642,-2.2105,-2.2306,-2.2599,-2.3322,-2.3834,-2.4173,-2.4214,-2.4436,-2.4775,-2.5192,-2.5266,-2.5354,-2.5705,-2.5546,-2.5448,-2.5832,-2.5897,-2.5897,-2.5897,-2.552,-2.5163,-2.4921,-2.562,-2.6156,-2.6229,-2.628,-2.6332,-2.6332,-2.6607,-2.6757,-2.6757,-2.7132,-2.7369,-2.7452,-2.7345,-2.7299,-2.7299,-2.7299,-2.7299,-2.7299,-2.7233,-2.7233,-2.7299,-2.7233,-2.7233,0.0,0.0,0.0,0.0,0.0,0.0,0.0,0.0,0.0,0.0,0.0,0.0,0.0,0.0,0.0,0.0,0.0,0.0,0.0,0.0,0.0,0.0,0.0,0.0,0.0,0.0,0.0,0.0,0.0,0.0,0.0,0.0,0.0,0.0,0.0,0.0,-0.2807,-0.2857,-0.3016,0.0,-0.4429,-0.5091,-0.5385,-0.8019,-0.9361,-0.9619,-1.1127,-1.2325,-1.331,-1.3401,-1.383,-1.4445,-1.4737,-1.507,-1.5431,-1.6053,-1.6566,-1.7169,-1.8223,-1.8832,-1.9364,-2.0216,-2.0571,-2.0668,-2.0766,-2.0973,-2.1137,-2.1196,-2.1943,-2.2762,-2.2863,-2.3714,-2.4595,-2.5,-2.5086,-2.5195,-2.5611,-2.516,-2.4898,-2.5589,-2.516,-2.4966,-2.5704,-2.5835,-2.5835,-2.5835,-2.5835,-2.5716,-2.5347,-2.6034,-2.6623,-2.6952,-2.7017,-2.7017,-2.7017,-2.7224,-2.7334,-2.7334,-2.7595,-2.773,-2.773,-2.7483,-2.7313,-2.7313,-2.7313,-2.7313,-2.7299,-2.7299,-2.7299,-2.7299,-2.7299,-2.7299,0.0,0.0,0.0,0.0,0.0,0.0,0.0,0.0,0.0,0.0,0.0,0.0,0.0,0.0,0.0,0.0,0.0,0.0,0.0,0.0,0.0,0.0,0.0,0.0,0.0,0.0,0.0,0.0,0.0,0.0,0.0,0.0,0.0,0.0,0.0,-0.1725,-0.2093,-0.203,-0.2173,0.0,-0.3619,-0.4299,-0.4614,-0.7424,-0.9141,-1.0006,-1.1014,-1.1547,-1.1841,-1.2818,-1.3183,-1.3224,-1.4264,-1.48,-1.5148,-1.6207,-1.6884,-1.746,-1.8596,-1.8866,-1.8852,-2.0062,-2.0341,-2.0353,-2.0857,-2.087,-2.0749,-2.1306,-2.1482,-2.1763,-2.2586,-2.3238,-2.3758,-2.4177,-2.4288,-2.4312,-2.4188,-2.4046,-2.3981,-2.4196,-2.4131,-2.4263,-2.5141,-2.5273,-2.5273,-2.5273,-2.5273,-2.5294,-2.5379,-2.6118,-2.6774,-2.6985,-2.7083,-2.7164,-2.7164,-2.7444,-2.7624,-2.7624,-2.7806,-2.794,-2.794,-2.7719,-2.7569,-2.7465,-2.7452,-2.739,-2.7299,-2.7299,-2.7299,-2.7299,-2.7299,-2.7299,0.0,0.0,0.0,0.0,0.0,0.0,0.0,0.0,0.0,0.0,0.0,0.0,0.0,0.0,0.0,0.0,0.0,0.0,0.0,0.0,0.0,0.0,0.0,0.0,0.0,0.0,0.0,0.0,0.0,0.0,0.0,0.0,0.0,0.0,-0.0433,-0.0805,-0.1315,-0.1402,-0.1528,-0.1763,-0.2785,-0.3886,-0.5128,-0.7019,-0.8466,-0.9584,-1.0419,-1.1032,-1.1436,-1.2347,-1.2859,-1.3123,-1.4073,-1.4601,-1.5018,-1.581,-1.6572,-1.7293,-1.8004,-1.8421,-1.8794,-1.9615,-1.9792,-1.9797,-2.0157,-2.018,-2.0154,-2.0519,-2.1072,-2.171,-2.2302,-2.3104,-2.3753,-2.3601,-2.3835,-2.4007,-2.3851,-2.3572,-2.3424,-2.3803,-2.3653,-2.3669,-2.4464,-2.4895,-2.5012,-2.468,-2.5176,-2.5647,-2.5737,-2.6446,-2.71,-2.7517,-2.7642,-2.7689,-2.7689,-2.7836,-2.7922,-2.7922,-2.8042,-2.8099,-2.8099,-2.7996,-2.7836,-2.76,-2.7509,-2.7483,-2.739,-2.739,-2.7376,-2.7299,-2.7376,-2.7376,0.0,0.0,0.0,0.0,0.0,0.0,0.0,0.0,0.0,0.0,0.0,0.0,0.0,0.0,0.0,0.0,0.0,0.0,0.0,0.0,0.0,0.0,0.0,0.0,0.0,0.0,0.0,0.0,0.0,0.0,0.0,0.0,0.1658,0.0806,0.0429,0.0,-0.0617,-0.0874,-0.0977,-0.1028,-0.1997,-0.3573,-0.5722,-0.6452,-0.7567,-0.8919,-0.9722,-1.0582,-1.1469,-1.2026,-1.2706,-1.3409,-1.3941,-1.4444,-1.4903,-1.5322,-1.6107,-1.698,-1.7271,-1.7961,-1.8808,-1.925,-1.9362,-1.9376,-1.9487,-1.9574,-1.9683,-1.9741,-2.0729,-2.1836,-2.1887,-2.2883,-2.3689,-2.307,-2.3312,-2.37,-2.3652,-2.3171,-2.2936,-2.3535,-2.33,-2.3198,-2.3814,-2.4463,-2.4729,-2.4277,-2.5213,-2.605,-2.6156,-2.6822,-2.7522,-2.8126,-2.8182,-2.8182,-2.8182,-2.8182,-2.8182,-2.8182,-2.8182,-2.8182,-2.8182,-2.8182,-2.8053,-2.7789,-2.7659,-2.7557,-2.7496,-2.7496,-2.7421,-2.7282,-2.7421,-2.7421,0.0,0.0,0.0,0.0,0.0,0.0,0.0,0.0,0.0,0.0,0.0,0.0,0.0,0.0,0.0,0.0,0.0,0.0,0.0,0.0,0.0,0.0,0.0,0.0,0.0,0.0,0.0,0.0,0.0,0.0,0.0,0.2575,0.2066,0.1835,0.128,0.0556,-0.0277,-0.0442,-0.0608,-0.0775,-0.1435,-0.2811,-0.4856,-0.5085,-0.6473,-0.8672,-0.9393,-1.0246,-1.1226,-1.1719,-1.2452,-1.3266,-1.3836,-1.4294,-1.4801,-1.5322,-1.5964,-1.6756,-1.734,-1.8027,-1.8741,-1.9406,-1.9654,-1.969,-1.9848,-1.9935,-1.997,-1.997,-2.054,-2.1151,-2.1135,-2.1798,-2.2433,-2.2332,-2.2428,-2.2483,-2.23,-2.2187,-2.2153,-2.2254,-2.2705,-2.3123,-2.3223,-2.3502,-2.3918,-2.4431,-2.494,-2.5548,-2.6426,-2.7238,-2.7847,-2.8154,-2.8182,-2.8182,-2.8182,-2.8182,-2.8182,-2.8182,-2.8182,-2.8182,-2.8182,-2.8182,-2.8182,-2.8126,-2.7996,-2.7795,-2.7496,-2.7496,-2.7421,-2.7299,-2.7313,-2.733,0.0,0.0,0.0,0.0,0.0,0.0,0.0,0.0,0.0,0.0,0.0,0.0,0.0,0.0,0.0,0.0,0.0,0.0,0.0,0.0,0.0,0.0,0.0,0.0,0.0,0.0,0.0,0.0,0.0,0.0,0.3633,0.3188,0.2854,0.2629,0.1959,0.1344,0.0839,0.0392,0.0056,-0.0336,-0.1007,-0.2007,-0.3332,-0.3993,-0.5738,-0.8249,-0.9033,-1.0159,-1.1443,-1.194,-1.2861,-1.3956,-1.4283,-1.4755,-1.5322,-1.5876,-1.6471,-1.7092,-1.7894,-1.8511,-1.9072,-1.9603,-1.9762,-1.9797,-1.9955,-2.0115,-2.0308,-2.0308,-2.0812,-2.1368,-2.1477,-2.1899,-2.2321,-2.2377,-2.2377,-2.2377,-2.2287,-2.2203,-2.2118,-2.2106,-2.2375,-2.2651,-2.2836,-2.3255,-2.3864,-2.4793,-2.5392,-2.612,-2.7183,-2.7646,-2.7961,-2.8219,-2.8264,-2.8237,-2.8209,-2.8182,-2.8182,-2.8182,-2.8182,-2.8182,-2.8182,-2.8182,-2.8182,-2.8182,-2.8071,-2.7929,-2.7766,-2.7659,-2.7569,-2.7509,-2.7509,-2.7569,0.0,0.0,0.0,0.0,0.0,0.0,0.0,0.0,0.0,0.0,0.0,0.0,0.0,0.0,0.0,0.0,0.0,0.0,0.0,0.0,0.0,0.0,0.0,0.0,0.0,0.0,0.0,0.0,0.0,0.0,0.3852,0.3747,0.358,0.3241,0.2685,0.2125,0.1677,0.1064,0.0505,0.0,-0.0392,-0.1116,-0.2112,-0.2781,-0.459,-0.7267,-0.8271,-0.9622,-1.1099,-1.1913,-1.3024,-1.4215,-1.456,-1.5085,-1.5703,-1.6151,-1.6769,-1.7463,-1.8185,-1.8869,-1.945,-1.9762,-1.9869,-1.9904,-2.0025,-2.0273,-2.0514,-2.063,-2.1118,-2.1658,-2.1882,-2.2175,-2.246,-2.2515,-2.2542,-2.2542,-2.2515,-2.236,-2.2265,-2.2254,-2.231,-2.2432,-2.2659,-2.3179,-2.3902,-2.4883,-2.57,-2.6556,-2.7601,-2.7931,-2.811,-2.83,-2.8327,-2.83,-2.8237,-2.8237,-2.8209,-2.8182,-2.8182,-2.8182,-2.8182,-2.8182,-2.8182,-2.8182,-2.8099,-2.8025,-2.8014,-2.7893,-2.776,-2.7642,-2.7771,-2.784,0.0,0.0,0.0,0.0,0.0,0.0,0.0,0.0,0.0,0.0,0.0,0.0,0.0,0.0,0.0,0.0,0.0,0.0,0.0,0.0,0.0,0.0,0.0,0.0,0.0,0.0,0.0,0.0,0.0,0.0,0.3965,0.3965,0.3855,0.3572,0.3411,0.2854,0.179,0.1289,0.0729,0.0,0.0561,-0.0112,-0.1783,-0.1396,-0.2722,-0.5303,-0.6768,-0.8212,-0.9629,-1.1208,-1.2395,-1.3358,-1.4318,-1.5028,-1.5558,-1.5748,-1.657,-1.7626,-1.7867,-1.8688,-1.9726,-1.9919,-2.001,-2.0115,-2.0235,-2.0407,-2.0545,-2.0795,-2.1229,-2.1642,-2.1924,-2.2298,-2.2579,-2.2579,-2.2632,-2.2659,-2.2542,-2.2487,-2.246,-2.2405,-2.2579,-2.2764,-2.2712,-2.3144,-2.3761,-2.4534,-2.553,-2.6477,-2.7222,-2.7998,-2.8458,-2.8406,-2.838,-2.8371,-2.83,-2.83,-2.8291,-2.8209,-2.8182,-2.8182,-2.8182,-2.8182,-2.8182,-2.8182,-2.8182,-2.8126,-2.8014,-2.8136,-2.795,-2.7526,-2.7954,-2.8037,0.0,0.0,0.0,0.0,0.0,0.0,0.0,0.0,0.0,0.0,0.0,0.0,0.0,0.0,0.0,0.0,0.0,0.0,0.0,0.0,0.0,0.0,0.0,0.0,0.0,0.0,0.0,0.0,0.0,0.0,0.4138,0.4024,0.4076,0.4184,0.3688,0.2965,0.2071,0.1903,0.1457,0.0842,0.0898,0.0504,-0.0168,-0.0168,-0.1003,-0.2611,-0.358,-0.6197,-0.9746,-1.0351,-1.1791,-1.3679,-1.3935,-1.4652,-1.5603,-1.6324,-1.6951,-1.7517,-1.8369,-1.9087,-1.9669,-1.9812,-2.008,-2.0308,-2.0392,-2.0795,-2.1229,-2.1306,-2.1748,-2.2215,-2.2343,-2.248,-2.2605,-2.2659,-2.2685,-2.2685,-2.2632,-2.2569,-2.2487,-2.246,-2.2632,-2.2842,-2.2995,-2.3295,-2.3799,-2.473,-2.5633,-2.647,-2.7242,-2.8055,-2.8536,-2.8484,-2.8458,-2.8216,-2.7635,-2.804,-2.8085,-2.7531,-2.7924,-2.8182,-2.8182,-2.8182,-2.8182,-2.8182,-2.8327,-2.838,-2.8309,-2.83,-2.8282,-2.8326,-2.8352,-2.8448,0.0,0.0,0.0,0.0,0.0,0.0,0.0,0.0,0.0,0.0,0.0,0.0,0.0,0.0,0.0,0.0,0.0,0.0,0.0,0.0,0.0,0.0,0.0,0.0,0.0,0.0,0.0,0.0,0.0,0.0,0.4446,0.4175,0.4152,0.4314,0.3726,0.3207,0.2747,0.2585,0.2213,0.168,0.1512,0.1287,0.1008,0.0838,0.0279,-0.0613,-0.1274,-0.398,-0.7988,-0.9883,-1.1732,-1.3475,-1.5073,-1.5989,-1.6532,-1.7302,-1.7572,-1.768,-1.8655,-1.925,-1.9596,-1.9833,-2.0135,-2.0444,-2.0494,-2.0991,-2.1568,-2.1688,-2.2113,-2.2579,-2.2738,-2.2738,-2.2712,-2.2764,-2.2738,-2.2712,-2.2712,-2.2632,-2.2596,-2.2659,-2.2842,-2.3028,-2.3253,-2.3463,-2.3934,-2.486,-2.5461,-2.6186,-2.7272,-2.7888,-2.8189,-2.8139,-2.8373,-2.8185,-2.7299,-2.7913,-2.8111,-2.7548,-2.7933,-2.8237,-2.8318,-2.8318,-2.8327,-2.8406,-2.8518,-2.8644,-2.8694,-2.8594,-2.8601,-2.8707,-2.8767,-2.8881,0.0,0.0,0.0,0.0,0.0,0.0,0.0,0.0,0.0,0.0,0.0,0.0,0.0,0.0,0.0,0.0,0.0,0.0,0.0,0.0,0.0,0.0,0.0,0.0,0.0,0.0,0.0,0.0,0.0,0.5197,0.4923,0.4449,0.412,0.4026,0.3621,0.3529,0.381,0.3337,0.2911,0.2508,0.2506,0.2173,0.1619,0.1618,0.1225,0.05,-0.0111,-0.1604,-0.4047,-0.9635,-1.2061,-1.2668,-1.7591,-1.8996,-1.8327,-1.8621,-1.8418,-1.8068,-1.863,-1.9109,-1.9566,-1.996,-2.0273,-2.0527,-2.0527,-2.0942,-2.1509,-2.1911,-2.2309,-2.2677,-2.3003,-2.2995,-2.2893,-2.2893,-2.2816,-2.2712,-2.2712,-2.2712,-2.279,-2.297,-2.3168,-2.3342,-2.3477,-2.3671,-2.4067,-2.4846,-2.4972,-2.557,-2.7145,-2.7363,-2.7357,-2.7357,-2.8044,-2.8189,-2.7301,-2.7929,-2.8344,-2.8228,-2.8201,-2.8291,-2.8466,-2.851,-2.8594,-2.8791,-2.8797,-2.891,-2.9089,-2.9026,-2.8827,-2.8554,-2.9071,-2.9344,0.1822,0.0,0.0,0.0,0.0,0.0,0.0,0.0,0.0,0.0,0.0,0.0,0.0,0.0,0.0,0.0,0.0,0.0,0.0,0.0,0.0,0.0,0.0,0.0,0.0,0.0,0.0,0.0,0.6053,0.564,0.5228,0.4649,0.4264,0.4125,0.4026,0.3836,0.3565,0.3464,0.3012,0.2263,0.2417,0.2158,0.162,0.2102,0.1736,0.0808,0.0968,0.0272,-0.1277,-0.465,-0.8477,-1.2259,-1.367,-1.584,-1.8214,-1.8717,-1.8465,-1.7961,-1.8745,-1.9236,-1.9551,-2.0015,-2.0429,-2.0761,-2.0893,-2.1415,-2.1994,-2.2108,-2.2537,-2.2977,-2.3095,-2.2995,-2.2893,-2.2893,-2.2944,-2.2995,-2.2995,-2.3091,-2.317,-2.3102,-2.3223,-2.3417,-2.3562,-2.3735,-2.3928,-2.4124,-2.4628,-2.5153,-2.5606,-2.6168,-2.653,-2.653,-2.6729,-2.6524,-2.571,-2.685,-2.7317,-2.6666,-2.7673,-2.8291,-2.8291,-2.8432,-2.8518,-2.8594,-2.8863,-2.9044,-2.9089,-2.9067,-2.9112,-2.916,-2.9262,-2.9323,0.0,0.0,0.0,0.0,0.0,0.0,0.0,0.0,0.0,0.0,0.0,0.0,0.0,0.0,0.0,0.0,0.0,0.0,0.0,0.0,0.0,0.0,0.0,0.0,0.0,0.0,0.0,0.6775,0.642,0.5882,0.5151,0.4726,0.4349,0.4073,0.4073,0.4006,0.3775,0.3869,0.3445,0.2544,0.2844,0.2596,0.1978,0.2532,0.2449,0.1916,0.178,0.1318,0.0615,-0.1333,-0.5054,-0.9885,-1.3208,-1.5491,-1.716,-1.9303,-1.9304,-1.8355,-1.9132,-1.9551,-1.9874,-2.0258,-2.0646,-2.1006,-2.1103,-2.1645,-2.222,-2.2275,-2.2747,-2.3265,-2.3265,-2.3144,-2.2977,-2.2977,-2.3028,-2.3095,-2.3095,-2.3259,-2.341,-2.3376,-2.3445,-2.358,-2.3774,-2.3876,-2.3896,-2.3855,-2.4215,-2.461,-2.4954,-2.5407,-2.5697,-2.5697,-2.6005,-2.6023,-2.5552,-2.6627,-2.7222,-2.7047,-2.7911,-2.8458,-2.8484,-2.8644,-2.8791,-2.8863,-2.9112,-2.9218,-2.9218,-2.9218,-2.9283,-2.9407,-2.9365,-2.9344,0.0,0.0,0.0,0.0,0.0,0.0,0.3102,0.3437,0.0,0.0,0.0,0.0,0.0,0.0,0.0,0.0,0.0,0.0,0.0,0.0,0.0,0.0,0.0,0.0,0.0,0.0,0.6844,0.6877,0.6637,0.6039,0.5024,0.4754,0.4443,0.4012,0.3968,0.3999,0.4198,0.4287,0.3887,0.2995,0.3427,0.318,0.2405,0.2782,0.3091,0.3227,0.2293,0.1778,0.1623,0.056,-0.2323,-0.6736,-1.4275,-1.64,-1.5709,-1.9988,-2.0412,-1.8974,-1.9551,-1.9929,-2.0258,-2.0595,-2.0957,-2.1215,-2.1215,-2.1705,-2.2275,-2.2466,-2.2975,-2.3494,-2.3494,-2.3289,-2.3119,-2.3144,-2.3126,-2.3151,-2.3175,-2.3335,-2.3566,-2.3795,-2.3774,-2.3795,-2.4054,-2.3996,-2.3917,-2.3896,-2.3837,-2.4049,-2.4773,-2.4864,-2.4864,-2.4864,-2.5516,-2.5932,-2.5932,-2.6651,-2.7423,-2.8211,-2.8431,-2.8603,-2.8863,-2.9021,-2.9197,-2.9365,-2.9386,-2.9407,-2.9407,-2.9407,-2.9407,-2.9407,-2.9407,-2.9407,0.0,0.2788,0.2661,0.0,0.0,0.0,0.0,0.3307,0.0,0.0,0.0,0.0,0.0,0.0,0.0,0.0,0.0,0.0,0.0,0.0,0.0,0.0,0.0,0.0,0.0,0.6685,0.6877,0.6877,0.6699,0.6435,0.6032,0.5328,0.4836,0.4626,0.428,0.4079,0.4114,0.4159,0.3736,0.2926,0.3395,0.3121,0.2257,0.2721,0.2788,0.2494,0.2307,0.1755,0.1065,0.0841,-0.1951,-0.6486,-1.1233,-1.3938,-1.5671,-1.9782,-2.0262,-1.895,-1.9325,-1.9767,-2.0277,-2.0697,-2.1023,-2.1215,-2.134,-2.1836,-2.2476,-2.3116,-2.3407,-2.3494,-2.3494,-2.3289,-2.3151,-2.3365,-2.3376,-2.3387,-2.3624,-2.3855,-2.4074,-2.4113,-2.3937,-2.3837,-2.3996,-2.3996,-2.3937,-2.3837,-2.3816,-2.385,-2.4013,-2.4031,-2.4031,-2.4031,-2.4176,-2.4266,-2.4266,-2.5142,-2.5983,-2.6672,-2.7506,-2.8233,-2.8803,-2.8998,-2.913,-2.9152,-2.9323,-2.9407,-2.9407,-2.9407,-2.9407,-2.9407,-2.9407,-2.9407,0.0,0.0,0.2557,0.2689,0.0,0.0,0.0,0.0,0.0,0.0,0.0,0.0,0.0,0.0,0.0,0.0,0.0,0.0,0.0,0.0,0.0,0.0,0.0,0.0,0.0,0.6445,0.6582,0.6768,0.6774,0.6619,0.6264,0.5696,0.5226,0.4927,0.4451,0.4152,0.4108,0.4152,0.3832,0.3132,0.3478,0.3212,0.2539,0.2817,0.2863,0.272,0.2515,0.2188,0.1734,0.1121,-0.0489,-0.3171,-0.9452,-1.2052,-1.2997,-1.9321,-2.0606,-1.925,-1.9889,-2.0326,-2.0665,-2.1071,-2.1293,-2.145,-2.1735,-2.2231,-2.2815,-2.3342,-2.3494,-2.3494,-2.3494,-2.3336,-2.3247,-2.3458,-2.3513,-2.3544,-2.3774,-2.4016,-2.419,-2.419,-2.4094,-2.4016,-2.4036,-2.4016,-2.3976,-2.3876,-2.3816,-2.3795,-2.3795,-2.3795,-2.3795,-2.3795,-2.3795,-2.3958,-2.4357,-2.5351,-2.6237,-2.6909,-2.7941,-2.8695,-2.8984,-2.9156,-2.924,-2.924,-2.9365,-2.9407,-2.9407,-2.9407,-2.9407,-2.9407,-2.9407,-2.9407,0.0,0.0,0.0,0.0,0.0,0.2364,0.0,0.0,0.0,0.2815,0.0,0.0,0.0,0.0,0.0,0.0,0.0,0.0,0.0,0.0,0.0,0.0,0.0,0.0,0.0,0.6196,0.6316,0.6689,0.6784,0.6639,0.6264,0.5873,0.548,0.5009,0.4535,0.4232,0.4152,0.4232,0.4008,0.3439,0.3534,0.3357,0.2915,0.2968,0.304,0.3174,0.2805,0.2587,0.2458,0.1343,0.0841,-0.011,-0.8606,-1.0851,-1.0329,-1.8862,-2.0895,-1.9523,-2.041,-2.0828,-2.1071,-2.1385,-2.1601,-2.1797,-2.222,-2.2669,-2.3063,-2.3412,-2.3494,-2.3494,-2.3471,-2.3383,-2.3336,-2.3486,-2.3558,-2.3649,-2.3837,-2.4054,-2.4208,-2.417,-2.417,-2.417,-2.4094,-2.4054,-2.3976,-2.3896,-2.3837,-2.3816,-2.3858,-2.3816,-2.3816,-2.3858,-2.3816,-2.4088,-2.4784,-2.5651,-2.6542,-2.7409,-2.8334,-2.8957,-2.9243,-2.9326,-2.9407,-2.9407,-2.9407,-2.9407,-2.9407,-2.9407,-2.9407,-2.9407,-2.9407,-2.9407,0.0,0.0,0.0,0.0,0.2613,0.0,0.0,0.0,0.2186,0.2359,0.0,0.0,0.0,0.0,0.0,0.0,0.0,0.0,0.0,0.0,0.0,0.0,0.0,0.0,0.0,0.0,0.6431,0.6852,0.6712,0.6544,0.6283,0.591,0.548,0.5009,0.4535,0.4272,0.4276,0.4272,0.4052,0.3565,0.3575,0.3357,0.2912,0.2926,0.3009,0.3218,0.3132,0.263,0.1846,0.1171,0.0559,-0.0714,-0.8759,-1.0851,-1.0291,-1.8601,-2.0687,-1.9472,-2.0124,-2.0616,-2.1071,-2.1385,-2.1777,-2.222,-2.2746,-2.2947,-2.3063,-2.3412,-2.3494,-2.3453,-2.336,-2.3313,-2.3342,-2.354,-2.3588,-2.3692,-2.4074,-2.417,-2.417,-2.4113,-2.4113,-2.4094,-2.4016,-2.3996,-2.3976,-2.3816,-2.3795,-2.3878,-2.404,-2.3919,-2.3878,-2.4058,-2.3919,-2.3915,-2.4186,-2.4412,-2.5245,-2.6876,-2.7158,-2.7885,-2.9312,-2.9386,-2.9407,-2.9407,-2.9407,-2.9407,-2.9407,-2.9407,-2.9407,-2.9407,-2.9407,-2.9407,0.0,0.0,0.0,0.0,0.0,0.0,0.0,0.0,0.1919,0.0,0.0,0.0,0.0,0.0,0.0,0.0,0.0,0.0,0.0,0.0,0.0,0.0,0.0,0.0,0.0,0.0,0.0,0.0,0.0,0.5978,0.5722,0.5432,0.5221,0.5009,0.4535,0.4316,0.4316,0.4316,0.4184,0.4005,0.3571,0.3353,0.3312,0.2865,0.282,0.3075,0.2792,0.2489,0.2123,0.1275,0.0728,-0.033,-0.8657,-1.1226,-1.1165,-1.8995,-2.1368,-2.0623,-2.0798,-2.1055,-2.1354,-2.1645,-2.2136,-2.2634,-2.273,-2.3,-2.3301,-2.3271,-2.3265,-2.3289,-2.3389,-2.3412,-2.3481,-2.3771,-2.3837,-2.3896,-2.4151,-2.419,-2.417,-2.4113,-2.4094,-2.4074,-2.3976,-2.3937,-2.3917,-2.3816,-2.3899,-2.4001,-2.4097,-2.4136,-2.4192,-2.4265,-2.4211,-2.4357,-2.4873,-2.5505,-2.634,-2.7468,-2.8087,-2.8703,-2.937,-2.9407,-2.9407,-2.9407,-2.9407,-2.9407,-2.9407,-2.9407,-2.9407,-2.9407,-2.9407,-2.9407,0.366,0.0,0.0,0.0,0.0,0.0,0.0,0.0,0.0,0.0,0.0,0.0,0.0,0.0,0.0,0.0,0.0,0.0,0.0,0.0,0.0,0.0,0.0,0.0,0.0,0.0,0.0,0.0,0.0,0.0,0.5206,0.5091,0.4923,0.4792,0.4491,0.4316,0.4316,0.4316,0.4228,0.4096,0.348,0.3217,0.3265,0.2729,0.2657,0.291,0.2477,0.2261,0.2186,0.1104,0.0,-0.1741,-0.924,-1.2469,-1.3703,-1.9835,-2.1888,-2.1561,-2.1364,-2.1507,-2.1836,-2.2051,-2.2502,-2.294,-2.2867,-2.3126,-2.336,-2.3168,-2.3151,-2.3247,-2.3412,-2.3508,-2.3642,-2.3876,-2.3976,-2.4016,-2.4151,-2.4151,-2.4132,-2.4074,-2.4054,-2.4016,-2.3896,-2.3896,-2.3876,-2.3816,-2.3979,-2.4135,-2.4192,-2.4301,-2.4424,-2.4476,-2.4424,-2.4632,-2.519,-2.5893,-2.6693,-2.7633,-2.8528,-2.9165,-2.9388,-2.9407,-2.9407,-2.9407,-2.9407,-2.9407,-2.9407,-2.9407,-2.9407,-2.9407,-2.9407,-2.9407,0.0,0.0,0.0,0.2367,0.0,0.0,0.0,0.0,0.0928,0.0,0.0,0.0,0.0,0.0,0.0,0.0,0.0,0.0,0.0,0.0,0.0,0.0,0.0,0.0,0.0,0.0,0.0,0.0,0.0,0.0,0.5029,0.5009,0.4792,0.4316,0.4316,0.4316,0.4316,0.4316,0.4052,0.3609,0.3347,0.2948,0.2551,0.2504,0.2564,0.2671,0.2428,0.2055,0.1544,0.0496,-0.2269,-0.6233,-1.0962,-1.4978,-1.848,-2.1133,-2.1972,-2.1726,-2.1409,-2.1866,-2.2581,-2.2738,-2.2933,-2.314,-2.3407,-2.3336,-2.3193,-2.3119,-2.3295,-2.3458,-2.3336,-2.3553,-2.3795,-2.3795,-2.3876,-2.3937,-2.4074,-2.4036,-2.3996,-2.3917,-2.3917,-2.3896,-2.3816,-2.3876,-2.3876,-2.3816,-2.3979,-2.4155,-2.4372,-2.4389,-2.4458,-2.4676,-2.451,-2.4461,-2.462,-2.4534,-2.5187,-2.6823,-2.7677,-2.8533,-2.937,-2.9407,-2.9407,-2.9407,-2.9407,-2.9407,-2.9407,-2.9407,-2.9407,-2.9407,-2.9407,-2.9407,0.0,0.0,0.3221,0.2206,0.0,0.0,0.0,0.0,0.0,0.0,0.0,0.0,0.0,0.0,0.0,0.0,0.0,0.0,0.0,0.0,0.0,0.0,0.0,0.0,0.0,0.0,0.0,0.0,0.0,0.0,0.0,0.4268,0.4403,0.4192,0.4276,0.4316,0.4316,0.4005,0.3741,0.3605,0.281,0.2413,0.2368,0.1925,0.1621,0.1509,0.1322,-0.0533,-0.3452,-0.3798,-0.6389,-1.0518,-1.4594,-1.7163,-1.8927,-2.1627,-2.288,-2.3097,-2.2521,-2.2581,-2.2917,-2.2917,-2.3091,-2.3301,-2.3313,-2.3265,-2.3168,-2.302,-2.2927,-2.2977,-2.3295,-2.3417,-2.3535,-2.3855,-2.3937,-2.3976,-2.4016,-2.4016,-2.3976,-2.3917,-2.3896,-2.3876,-2.3816,-2.3816,-2.3878,-2.3979,-2.4174,-2.4372,-2.4559,-2.4704,-2.4813,-2.4875,-2.4768,-2.4879,-2.541,-2.5835,-2.6526,-2.7603,-2.7937,-2.8496,-2.937,-2.9407,-2.9407,-2.9407,-2.9407,-2.9407,-2.9407,-2.9407,-2.9407,-2.9407,-2.9407,-2.9407,0.317,0.3306,0.0,0.2076,0.1766,0.0,0.0455,0.0,0.0,0.0,0.0,0.0,0.0,0.0,0.0,0.0,0.0,0.0,0.0,0.0,0.0,0.0,0.0,0.0,0.0,0.0,0.2995,0.252,0.0,0.0,0.0,0.0,0.3968,0.402,0.4056,0.4008,0.3829,0.3517,0.3164,0.281,0.2006,0.1652,0.1701,0.1119,0.0759,0.0536,0.0048,-0.194,-0.4958,-0.6265,-0.9249,-1.3408,-1.6773,-1.921,-2.1011,-2.2393,-2.3112,-2.3352,-2.2975,-2.301,-2.323,-2.314,-2.3253,-2.3412,-2.3336,-2.3217,-2.307,-2.2944,-2.2876,-2.2977,-2.3295,-2.3463,-2.3602,-2.3876,-2.3955,-2.3955,-2.3935,-2.3935,-2.3935,-2.3873,-2.3855,-2.3858,-2.3899,-2.3919,-2.3959,-2.4097,-2.4265,-2.4476,-2.4657,-2.4894,-2.501,-2.501,-2.4889,-2.4975,-2.5391,-2.5798,-2.6396,-2.7213,-2.7529,-2.805,-2.8905,-2.924,-2.9407,-2.9407,-2.9407,-2.9407,-2.9407,-2.9407,-2.9407,-2.9407,-2.9407,-2.9407]}]]